<?xml version="1.0" encoding="UTF-8" standalone="no" ?>
<gpx xmlns="http://www.topografix.com/GPX/1/1" xmlns:xsi="http://www.w3.org/2001/XMLSchema-instance" xsi:schemaLocation="http://www.topografix.com/GPX/1/1 http://www.topografix.com/GPX/1/1/gpx.xsd" version="1.1" creator="VisuGPX - https://www.visugpx.com">
  <metadata>
    <name>SEILLANS PATRIMOINE DE JEANNE</name>
    <desc><![CDATA[SUR LES TRACES DU PATRIMOINE DE JEANNE ]]></desc>
  </metadata>
  <trk>
    <name><![CDATA[Tracé actuel: 28 SEP 2016 09:15]]></name>
    <trkseg>
      <trkpt lat="43.63594" lon="6.64276">
        <ele>267.38</ele>
        <time>2016-09-28T07:15:03Z</time>
      </trkpt>
      <trkpt lat="43.63593" lon="6.64275">
        <ele>267.86</ele>
        <time>2016-09-28T07:15:05Z</time>
      </trkpt>
      <trkpt lat="43.63594" lon="6.64273">
        <ele>273.63</ele>
        <time>2016-09-28T07:15:11Z</time>
      </trkpt>
      <trkpt lat="43.63594" lon="6.64273">
        <ele>276.52</ele>
        <time>2016-09-28T07:15:12Z</time>
      </trkpt>
      <trkpt lat="43.63594" lon="6.64272">
        <ele>280.84</ele>
        <time>2016-09-28T07:15:13Z</time>
      </trkpt>
      <trkpt lat="43.63594" lon="6.64272">
        <ele>285.17</ele>
        <time>2016-09-28T07:15:14Z</time>
      </trkpt>
      <trkpt lat="43.63593" lon="6.64271">
        <ele>289.01</ele>
        <time>2016-09-28T07:15:15Z</time>
      </trkpt>
      <trkpt lat="43.63593" lon="6.6427">
        <ele>292.86</ele>
        <time>2016-09-28T07:15:16Z</time>
      </trkpt>
      <trkpt lat="43.63592" lon="6.64268">
        <ele>296.7</ele>
        <time>2016-09-28T07:15:17Z</time>
      </trkpt>
      <trkpt lat="43.63592" lon="6.64268">
        <ele>300.07</ele>
        <time>2016-09-28T07:15:18Z</time>
      </trkpt>
      <trkpt lat="43.63589" lon="6.64268">
        <ele>307.76</ele>
        <time>2016-09-28T07:15:20Z</time>
      </trkpt>
      <trkpt lat="43.63586" lon="6.64268">
        <ele>314.01</ele>
        <time>2016-09-28T07:15:22Z</time>
      </trkpt>
      <trkpt lat="43.63585" lon="6.64268">
        <ele>318.81</ele>
        <time>2016-09-28T07:15:24Z</time>
      </trkpt>
      <trkpt lat="43.63585" lon="6.64268">
        <ele>323.14</ele>
        <time>2016-09-28T07:15:25Z</time>
      </trkpt>
      <trkpt lat="43.63584" lon="6.64267">
        <ele>327.95</ele>
        <time>2016-09-28T07:15:27Z</time>
      </trkpt>
      <trkpt lat="43.63585" lon="6.64267">
        <ele>333.23</ele>
        <time>2016-09-28T07:15:29Z</time>
      </trkpt>
      <trkpt lat="43.63585" lon="6.64266">
        <ele>337.56</ele>
        <time>2016-09-28T07:15:31Z</time>
      </trkpt>
      <trkpt lat="43.63586" lon="6.64266">
        <ele>342.37</ele>
        <time>2016-09-28T07:15:33Z</time>
      </trkpt>
      <trkpt lat="43.63588" lon="6.64266">
        <ele>346.21</ele>
        <time>2016-09-28T07:15:35Z</time>
      </trkpt>
      <trkpt lat="43.63587" lon="6.64266">
        <ele>350.06</ele>
        <time>2016-09-28T07:15:37Z</time>
      </trkpt>
      <trkpt lat="43.63586" lon="6.64266">
        <ele>353.42</ele>
        <time>2016-09-28T07:15:39Z</time>
      </trkpt>
      <trkpt lat="43.63586" lon="6.64265">
        <ele>356.79</ele>
        <time>2016-09-28T07:15:41Z</time>
      </trkpt>
      <trkpt lat="43.63586" lon="6.64265">
        <ele>360.15</ele>
        <time>2016-09-28T07:15:43Z</time>
      </trkpt>
      <trkpt lat="43.63585" lon="6.64264">
        <ele>364.48</ele>
        <time>2016-09-28T07:15:46Z</time>
      </trkpt>
      <trkpt lat="43.63587" lon="6.64264">
        <ele>368.32</ele>
        <time>2016-09-28T07:15:49Z</time>
      </trkpt>
      <trkpt lat="43.63589" lon="6.64264">
        <ele>371.69</ele>
        <time>2016-09-28T07:15:52Z</time>
      </trkpt>
      <trkpt lat="43.63589" lon="6.64264">
        <ele>375.05</ele>
        <time>2016-09-28T07:15:55Z</time>
      </trkpt>
      <trkpt lat="43.63589" lon="6.64264">
        <ele>377.94</ele>
        <time>2016-09-28T07:15:58Z</time>
      </trkpt>
      <trkpt lat="43.63589" lon="6.64266">
        <ele>381.3</ele>
        <time>2016-09-28T07:16:02Z</time>
      </trkpt>
      <trkpt lat="43.63589" lon="6.64268">
        <ele>384.66</ele>
        <time>2016-09-28T07:16:07Z</time>
      </trkpt>
      <trkpt lat="43.63591" lon="6.64266">
        <ele>388.51</ele>
        <time>2016-09-28T07:16:13Z</time>
      </trkpt>
      <trkpt lat="43.63592" lon="6.64265">
        <ele>391.39</ele>
        <time>2016-09-28T07:16:19Z</time>
      </trkpt>
      <trkpt lat="43.6359" lon="6.64263">
        <ele>394.76</ele>
        <time>2016-09-28T07:16:26Z</time>
      </trkpt>
      <trkpt lat="43.63591" lon="6.64264">
        <ele>398.12</ele>
        <time>2016-09-28T07:16:33Z</time>
      </trkpt>
      <trkpt lat="43.63591" lon="6.64265">
        <ele>399.57</ele>
        <time>2016-09-28T07:16:37Z</time>
      </trkpt>
      <trkpt lat="43.63591" lon="6.64265">
        <ele>402.93</ele>
        <time>2016-09-28T07:16:48Z</time>
      </trkpt>
      <trkpt lat="43.63591" lon="6.64265">
        <ele>405.81</ele>
        <time>2016-09-28T07:17:04Z</time>
      </trkpt>
      <trkpt lat="43.63591" lon="6.64268">
        <ele>406.29</ele>
        <time>2016-09-28T07:17:24Z</time>
      </trkpt>
      <trkpt lat="43.6359" lon="6.64268">
        <ele>406.29</ele>
        <time>2016-09-28T07:17:44Z</time>
      </trkpt>
      <trkpt lat="43.6359" lon="6.64268">
        <ele>406.29</ele>
        <time>2016-09-28T07:18:10Z</time>
      </trkpt>
      <trkpt lat="43.63589" lon="6.64269">
        <ele>406.29</ele>
        <time>2016-09-28T07:18:40Z</time>
      </trkpt>
      <trkpt lat="43.63588" lon="6.64268">
        <ele>406.29</ele>
        <time>2016-09-28T07:19:08Z</time>
      </trkpt>
      <trkpt lat="43.63588" lon="6.64268">
        <ele>406.77</ele>
        <time>2016-09-28T07:19:32Z</time>
      </trkpt>
      <trkpt lat="43.63583" lon="6.64277">
        <ele>405.33</ele>
        <time>2016-09-28T07:19:42Z</time>
      </trkpt>
      <trkpt lat="43.63579" lon="6.64295">
        <ele>403.41</ele>
        <time>2016-09-28T07:20:01Z</time>
      </trkpt>
      <trkpt lat="43.63576" lon="6.64296">
        <ele>403.41</ele>
        <time>2016-09-28T07:20:13Z</time>
      </trkpt>
      <trkpt lat="43.63569" lon="6.64302">
        <ele>402.93</ele>
        <time>2016-09-28T07:20:27Z</time>
      </trkpt>
      <trkpt lat="43.63577" lon="6.6432">
        <ele>401.97</ele>
        <time>2016-09-28T07:20:45Z</time>
      </trkpt>
      <trkpt lat="43.63577" lon="6.64321">
        <ele>401.97</ele>
        <time>2016-09-28T07:20:46Z</time>
      </trkpt>
      <trkpt lat="43.63576" lon="6.64323">
        <ele>401.97</ele>
        <time>2016-09-28T07:20:48Z</time>
      </trkpt>
      <trkpt lat="43.63582" lon="6.64346">
        <ele>401.97</ele>
        <time>2016-09-28T07:21:05Z</time>
      </trkpt>
      <trkpt lat="43.63586" lon="6.64336">
        <ele>401.97</ele>
        <time>2016-09-28T07:21:28Z</time>
      </trkpt>
      <trkpt lat="43.63586" lon="6.64333">
        <ele>401.97</ele>
        <time>2016-09-28T07:21:36Z</time>
      </trkpt>
      <trkpt lat="43.63583" lon="6.64335">
        <ele>401.01</ele>
        <time>2016-09-28T07:21:44Z</time>
      </trkpt>
      <trkpt lat="43.6358" lon="6.64342">
        <ele>400.53</ele>
        <time>2016-09-28T07:21:49Z</time>
      </trkpt>
      <trkpt lat="43.63574" lon="6.64364">
        <ele>397.64</ele>
        <time>2016-09-28T07:22:07Z</time>
      </trkpt>
      <trkpt lat="43.63574" lon="6.64367">
        <ele>397.16</ele>
        <time>2016-09-28T07:22:10Z</time>
      </trkpt>
      <trkpt lat="43.6357" lon="6.64385">
        <ele>394.76</ele>
        <time>2016-09-28T07:22:28Z</time>
      </trkpt>
      <trkpt lat="43.6357" lon="6.64392">
        <ele>394.28</ele>
        <time>2016-09-28T07:22:37Z</time>
      </trkpt>
      <trkpt lat="43.63571" lon="6.64403">
        <ele>393.8</ele>
        <time>2016-09-28T07:22:52Z</time>
      </trkpt>
      <trkpt lat="43.63571" lon="6.64403">
        <ele>393.8</ele>
        <time>2016-09-28T07:23:20Z</time>
      </trkpt>
      <trkpt lat="43.63569" lon="6.64403">
        <ele>393.8</ele>
        <time>2016-09-28T07:23:45Z</time>
      </trkpt>
      <trkpt lat="43.63579" lon="6.6441">
        <ele>393.8</ele>
        <time>2016-09-28T07:24:05Z</time>
      </trkpt>
      <trkpt lat="43.63567" lon="6.64414">
        <ele>392.84</ele>
        <time>2016-09-28T07:24:26Z</time>
      </trkpt>
      <trkpt lat="43.63565" lon="6.64418">
        <ele>391.39</ele>
        <time>2016-09-28T07:24:31Z</time>
      </trkpt>
      <trkpt lat="43.63558" lon="6.64434">
        <ele>388.51</ele>
        <time>2016-09-28T07:24:49Z</time>
      </trkpt>
      <trkpt lat="43.63558" lon="6.64438">
        <ele>387.55</ele>
        <time>2016-09-28T07:24:53Z</time>
      </trkpt>
      <trkpt lat="43.63563" lon="6.64444">
        <ele>387.07</ele>
        <time>2016-09-28T07:25:02Z</time>
      </trkpt>
      <trkpt lat="43.63568" lon="6.64445">
        <ele>386.59</ele>
        <time>2016-09-28T07:25:06Z</time>
      </trkpt>
      <trkpt lat="43.63576" lon="6.64447">
        <ele>386.59</ele>
        <time>2016-09-28T07:25:20Z</time>
      </trkpt>
      <trkpt lat="43.63577" lon="6.64448">
        <ele>386.59</ele>
        <time>2016-09-28T07:25:22Z</time>
      </trkpt>
      <trkpt lat="43.63595" lon="6.64451">
        <ele>386.11</ele>
        <time>2016-09-28T07:25:39Z</time>
      </trkpt>
      <trkpt lat="43.63604" lon="6.64458">
        <ele>383.22</ele>
        <time>2016-09-28T07:25:55Z</time>
      </trkpt>
      <trkpt lat="43.63607" lon="6.64467">
        <ele>380.34</ele>
        <time>2016-09-28T07:26:06Z</time>
      </trkpt>
      <trkpt lat="43.6361" lon="6.64483">
        <ele>379.86</ele>
        <time>2016-09-28T07:26:17Z</time>
      </trkpt>
      <trkpt lat="43.63606" lon="6.64489">
        <ele>379.38</ele>
        <time>2016-09-28T07:26:22Z</time>
      </trkpt>
      <trkpt lat="43.63601" lon="6.64494">
        <ele>379.38</ele>
        <time>2016-09-28T07:26:29Z</time>
      </trkpt>
      <trkpt lat="43.63599" lon="6.64496">
        <ele>379.38</ele>
        <time>2016-09-28T07:26:31Z</time>
      </trkpt>
      <trkpt lat="43.63597" lon="6.64498">
        <ele>378.9</ele>
        <time>2016-09-28T07:26:33Z</time>
      </trkpt>
      <trkpt lat="43.63589" lon="6.64516">
        <ele>378.42</ele>
        <time>2016-09-28T07:26:47Z</time>
      </trkpt>
      <trkpt lat="43.63589" lon="6.64517">
        <ele>378.42</ele>
        <time>2016-09-28T07:27:05Z</time>
      </trkpt>
      <trkpt lat="43.63589" lon="6.64517">
        <ele>378.42</ele>
        <time>2016-09-28T07:27:34Z</time>
      </trkpt>
      <trkpt lat="43.6359" lon="6.6452">
        <ele>377.94</ele>
        <time>2016-09-28T07:28:04Z</time>
      </trkpt>
      <trkpt lat="43.63592" lon="6.64523">
        <ele>377.94</ele>
        <time>2016-09-28T07:28:24Z</time>
      </trkpt>
      <trkpt lat="43.63591" lon="6.64523">
        <ele>377.94</ele>
        <time>2016-09-28T07:28:37Z</time>
      </trkpt>
      <trkpt lat="43.63591" lon="6.64523">
        <ele>378.9</ele>
        <time>2016-09-28T07:28:56Z</time>
      </trkpt>
      <trkpt lat="43.63591" lon="6.64522">
        <ele>376.97</ele>
        <time>2016-09-28T07:29:21Z</time>
      </trkpt>
      <trkpt lat="43.63591" lon="6.64522">
        <ele>379.86</ele>
        <time>2016-09-28T07:29:22Z</time>
      </trkpt>
      <trkpt lat="43.63592" lon="6.64523">
        <ele>377.94</ele>
        <time>2016-09-28T07:29:45Z</time>
      </trkpt>
      <trkpt lat="43.63593" lon="6.64522">
        <ele>377.94</ele>
        <time>2016-09-28T07:30:20Z</time>
      </trkpt>
      <trkpt lat="43.63593" lon="6.64524">
        <ele>378.42</ele>
        <time>2016-09-28T07:30:58Z</time>
      </trkpt>
      <trkpt lat="43.63593" lon="6.64523">
        <ele>378.42</ele>
        <time>2016-09-28T07:31:20Z</time>
      </trkpt>
      <trkpt lat="43.63593" lon="6.64524">
        <ele>378.42</ele>
        <time>2016-09-28T07:31:44Z</time>
      </trkpt>
      <trkpt lat="43.63593" lon="6.64524">
        <ele>378.42</ele>
        <time>2016-09-28T07:32:14Z</time>
      </trkpt>
      <trkpt lat="43.63594" lon="6.64524">
        <ele>378.42</ele>
        <time>2016-09-28T07:32:54Z</time>
      </trkpt>
      <trkpt lat="43.63594" lon="6.64526">
        <ele>378.42</ele>
        <time>2016-09-28T07:33:27Z</time>
      </trkpt>
      <trkpt lat="43.63594" lon="6.64526">
        <ele>378.42</ele>
        <time>2016-09-28T07:34:00Z</time>
      </trkpt>
      <trkpt lat="43.63596" lon="6.64526">
        <ele>378.9</ele>
        <time>2016-09-28T07:34:34Z</time>
      </trkpt>
      <trkpt lat="43.63595" lon="6.64526">
        <ele>378.42</ele>
        <time>2016-09-28T07:35:00Z</time>
      </trkpt>
      <trkpt lat="43.63595" lon="6.64525">
        <ele>378.42</ele>
        <time>2016-09-28T07:35:28Z</time>
      </trkpt>
      <trkpt lat="43.63596" lon="6.64524">
        <ele>378.42</ele>
        <time>2016-09-28T07:35:48Z</time>
      </trkpt>
      <trkpt lat="43.63593" lon="6.64524">
        <ele>378.42</ele>
        <time>2016-09-28T07:36:19Z</time>
      </trkpt>
      <trkpt lat="43.63591" lon="6.64524">
        <ele>377.94</ele>
        <time>2016-09-28T07:36:21Z</time>
      </trkpt>
      <trkpt lat="43.63583" lon="6.64526">
        <ele>377.45</ele>
        <time>2016-09-28T07:36:28Z</time>
      </trkpt>
      <trkpt lat="43.63567" lon="6.64535">
        <ele>376.01</ele>
        <time>2016-09-28T07:36:45Z</time>
      </trkpt>
      <trkpt lat="43.63555" lon="6.64543">
        <ele>375.05</ele>
        <time>2016-09-28T07:36:59Z</time>
      </trkpt>
      <trkpt lat="43.63556" lon="6.64547">
        <ele>375.05</ele>
        <time>2016-09-28T07:37:20Z</time>
      </trkpt>
      <trkpt lat="43.63557" lon="6.64548">
        <ele>375.05</ele>
        <time>2016-09-28T07:37:49Z</time>
      </trkpt>
      <trkpt lat="43.63558" lon="6.64551">
        <ele>375.05</ele>
        <time>2016-09-28T07:38:17Z</time>
      </trkpt>
      <trkpt lat="43.63558" lon="6.64551">
        <ele>375.53</ele>
        <time>2016-09-28T07:38:23Z</time>
      </trkpt>
      <trkpt lat="43.6356" lon="6.64557">
        <ele>376.49</ele>
        <time>2016-09-28T07:38:28Z</time>
      </trkpt>
      <trkpt lat="43.63561" lon="6.64563">
        <ele>376.97</ele>
        <time>2016-09-28T07:38:34Z</time>
      </trkpt>
      <trkpt lat="43.63559" lon="6.64569">
        <ele>376.97</ele>
        <time>2016-09-28T07:38:38Z</time>
      </trkpt>
      <trkpt lat="43.63561" lon="6.64589">
        <ele>376.01</ele>
        <time>2016-09-28T07:38:48Z</time>
      </trkpt>
      <trkpt lat="43.6356" lon="6.64595">
        <ele>376.01</ele>
        <time>2016-09-28T07:38:51Z</time>
      </trkpt>
      <trkpt lat="43.63564" lon="6.64607">
        <ele>376.49</ele>
        <time>2016-09-28T07:39:01Z</time>
      </trkpt>
      <trkpt lat="43.63579" lon="6.64597">
        <ele>378.9</ele>
        <time>2016-09-28T07:39:17Z</time>
      </trkpt>
      <trkpt lat="43.63579" lon="6.64597">
        <ele>378.9</ele>
        <time>2016-09-28T07:39:36Z</time>
      </trkpt>
      <trkpt lat="43.63579" lon="6.64598">
        <ele>374.09</ele>
        <time>2016-09-28T07:39:38Z</time>
      </trkpt>
      <trkpt lat="43.63579" lon="6.64597">
        <ele>350.54</ele>
        <time>2016-09-28T07:39:39Z</time>
      </trkpt>
      <trkpt lat="43.63578" lon="6.64597">
        <ele>383.7</ele>
        <time>2016-09-28T07:39:40Z</time>
      </trkpt>
      <trkpt lat="43.63578" lon="6.64597">
        <ele>369.76</ele>
        <time>2016-09-28T07:39:41Z</time>
      </trkpt>
      <trkpt lat="43.63578" lon="6.64596">
        <ele>417.35</ele>
        <time>2016-09-28T07:39:42Z</time>
      </trkpt>
      <trkpt lat="43.63578" lon="6.64596">
        <ele>380.34</ele>
        <time>2016-09-28T07:39:43Z</time>
      </trkpt>
      <trkpt lat="43.63578" lon="6.64596">
        <ele>378.9</ele>
        <time>2016-09-28T07:39:45Z</time>
      </trkpt>
      <trkpt lat="43.63581" lon="6.64604">
        <ele>378.9</ele>
        <time>2016-09-28T07:39:55Z</time>
      </trkpt>
      <trkpt lat="43.63591" lon="6.64623">
        <ele>378.9</ele>
        <time>2016-09-28T07:40:10Z</time>
      </trkpt>
      <trkpt lat="43.63597" lon="6.64637">
        <ele>378.42</ele>
        <time>2016-09-28T07:40:24Z</time>
      </trkpt>
      <trkpt lat="43.63599" lon="6.64639">
        <ele>378.42</ele>
        <time>2016-09-28T07:40:43Z</time>
      </trkpt>
      <trkpt lat="43.63597" lon="6.64637">
        <ele>378.42</ele>
        <time>2016-09-28T07:41:03Z</time>
      </trkpt>
      <trkpt lat="43.63598" lon="6.64638">
        <ele>379.38</ele>
        <time>2016-09-28T07:41:23Z</time>
      </trkpt>
      <trkpt lat="43.63598" lon="6.64637">
        <ele>378.42</ele>
        <time>2016-09-28T07:41:50Z</time>
      </trkpt>
      <trkpt lat="43.63599" lon="6.64638">
        <ele>378.42</ele>
        <time>2016-09-28T07:42:20Z</time>
      </trkpt>
      <trkpt lat="43.63599" lon="6.64638">
        <ele>378.42</ele>
        <time>2016-09-28T07:42:47Z</time>
      </trkpt>
      <trkpt lat="43.63599" lon="6.64638">
        <ele>378.42</ele>
        <time>2016-09-28T07:43:10Z</time>
      </trkpt>
      <trkpt lat="43.636" lon="6.64639">
        <ele>378.42</ele>
        <time>2016-09-28T07:43:33Z</time>
      </trkpt>
      <trkpt lat="43.63598" lon="6.64637">
        <ele>378.42</ele>
        <time>2016-09-28T07:43:59Z</time>
      </trkpt>
      <trkpt lat="43.63598" lon="6.64638">
        <ele>378.9</ele>
        <time>2016-09-28T07:44:22Z</time>
      </trkpt>
      <trkpt lat="43.63598" lon="6.64639">
        <ele>378.42</ele>
        <time>2016-09-28T07:44:42Z</time>
      </trkpt>
      <trkpt lat="43.63598" lon="6.64639">
        <ele>378.9</ele>
        <time>2016-09-28T07:45:06Z</time>
      </trkpt>
      <trkpt lat="43.63603" lon="6.64651">
        <ele>377.94</ele>
        <time>2016-09-28T07:45:19Z</time>
      </trkpt>
      <trkpt lat="43.63605" lon="6.64656">
        <ele>377.94</ele>
        <time>2016-09-28T07:45:32Z</time>
      </trkpt>
      <trkpt lat="43.6361" lon="6.64666">
        <ele>377.94</ele>
        <time>2016-09-28T07:45:54Z</time>
      </trkpt>
      <trkpt lat="43.63618" lon="6.64677">
        <ele>377.45</ele>
        <time>2016-09-28T07:46:08Z</time>
      </trkpt>
      <trkpt lat="43.63618" lon="6.64677">
        <ele>377.45</ele>
        <time>2016-09-28T07:46:09Z</time>
      </trkpt>
      <trkpt lat="43.63622" lon="6.64676">
        <ele>377.94</ele>
        <time>2016-09-28T07:46:13Z</time>
      </trkpt>
      <trkpt lat="43.63623" lon="6.64675">
        <ele>377.94</ele>
        <time>2016-09-28T07:46:15Z</time>
      </trkpt>
      <trkpt lat="43.63625" lon="6.64666">
        <ele>378.42</ele>
        <time>2016-09-28T07:46:21Z</time>
      </trkpt>
      <trkpt lat="43.63635" lon="6.64649">
        <ele>379.86</ele>
        <time>2016-09-28T07:46:35Z</time>
      </trkpt>
      <trkpt lat="43.63636" lon="6.64646">
        <ele>379.86</ele>
        <time>2016-09-28T07:46:37Z</time>
      </trkpt>
      <trkpt lat="43.63635" lon="6.64627">
        <ele>381.3</ele>
        <time>2016-09-28T07:46:50Z</time>
      </trkpt>
      <trkpt lat="43.63635" lon="6.64621">
        <ele>381.78</ele>
        <time>2016-09-28T07:46:54Z</time>
      </trkpt>
      <trkpt lat="43.63637" lon="6.64603">
        <ele>383.22</ele>
        <time>2016-09-28T07:47:06Z</time>
      </trkpt>
      <trkpt lat="43.63637" lon="6.64597">
        <ele>383.7</ele>
        <time>2016-09-28T07:47:12Z</time>
      </trkpt>
      <trkpt lat="43.63644" lon="6.64581">
        <ele>384.66</ele>
        <time>2016-09-28T07:47:27Z</time>
      </trkpt>
      <trkpt lat="43.63644" lon="6.64577">
        <ele>385.15</ele>
        <time>2016-09-28T07:47:41Z</time>
      </trkpt>
      <trkpt lat="43.63647" lon="6.64572">
        <ele>386.11</ele>
        <time>2016-09-28T07:47:58Z</time>
      </trkpt>
      <trkpt lat="43.63646" lon="6.64563">
        <ele>386.59</ele>
        <time>2016-09-28T07:48:08Z</time>
      </trkpt>
      <trkpt lat="43.63644" lon="6.64561">
        <ele>386.11</ele>
        <time>2016-09-28T07:48:25Z</time>
      </trkpt>
      <trkpt lat="43.63644" lon="6.64561">
        <ele>386.11</ele>
        <time>2016-09-28T07:48:45Z</time>
      </trkpt>
      <trkpt lat="43.63644" lon="6.6456">
        <ele>386.11</ele>
        <time>2016-09-28T07:49:02Z</time>
      </trkpt>
      <trkpt lat="43.63645" lon="6.64559">
        <ele>386.59</ele>
        <time>2016-09-28T07:49:20Z</time>
      </trkpt>
      <trkpt lat="43.63645" lon="6.64559">
        <ele>386.59</ele>
        <time>2016-09-28T07:49:45Z</time>
      </trkpt>
      <trkpt lat="43.63645" lon="6.64558">
        <ele>386.11</ele>
        <time>2016-09-28T07:50:20Z</time>
      </trkpt>
      <trkpt lat="43.63645" lon="6.64557">
        <ele>386.59</ele>
        <time>2016-09-28T07:50:42Z</time>
      </trkpt>
      <trkpt lat="43.63645" lon="6.64556">
        <ele>386.11</ele>
        <time>2016-09-28T07:51:10Z</time>
      </trkpt>
      <trkpt lat="43.63645" lon="6.64556">
        <ele>386.11</ele>
        <time>2016-09-28T07:51:44Z</time>
      </trkpt>
      <trkpt lat="43.63651" lon="6.64554">
        <ele>386.59</ele>
        <time>2016-09-28T07:52:05Z</time>
      </trkpt>
      <trkpt lat="43.6365" lon="6.6455">
        <ele>387.07</ele>
        <time>2016-09-28T07:52:17Z</time>
      </trkpt>
      <trkpt lat="43.63648" lon="6.64547">
        <ele>386.59</ele>
        <time>2016-09-28T07:52:46Z</time>
      </trkpt>
      <trkpt lat="43.63647" lon="6.64544">
        <ele>387.07</ele>
        <time>2016-09-28T07:53:05Z</time>
      </trkpt>
      <trkpt lat="43.63647" lon="6.64545">
        <ele>387.07</ele>
        <time>2016-09-28T07:53:27Z</time>
      </trkpt>
      <trkpt lat="43.63646" lon="6.64545">
        <ele>386.59</ele>
        <time>2016-09-28T07:53:52Z</time>
      </trkpt>
      <trkpt lat="43.63645" lon="6.64544">
        <ele>386.59</ele>
        <time>2016-09-28T07:54:18Z</time>
      </trkpt>
      <trkpt lat="43.63645" lon="6.64544">
        <ele>386.59</ele>
        <time>2016-09-28T07:54:45Z</time>
      </trkpt>
      <trkpt lat="43.63645" lon="6.64544">
        <ele>386.59</ele>
        <time>2016-09-28T07:55:14Z</time>
      </trkpt>
      <trkpt lat="43.63645" lon="6.64543">
        <ele>386.59</ele>
        <time>2016-09-28T07:55:38Z</time>
      </trkpt>
      <trkpt lat="43.63646" lon="6.64532">
        <ele>387.55</ele>
        <time>2016-09-28T07:55:52Z</time>
      </trkpt>
      <trkpt lat="43.63647" lon="6.64523">
        <ele>387.55</ele>
        <time>2016-09-28T07:55:58Z</time>
      </trkpt>
      <trkpt lat="43.63646" lon="6.6452">
        <ele>387.55</ele>
        <time>2016-09-28T07:56:14Z</time>
      </trkpt>
      <trkpt lat="43.63651" lon="6.64513">
        <ele>388.03</ele>
        <time>2016-09-28T07:56:27Z</time>
      </trkpt>
      <trkpt lat="43.63656" lon="6.64498">
        <ele>388.03</ele>
        <time>2016-09-28T07:56:37Z</time>
      </trkpt>
      <trkpt lat="43.63662" lon="6.6449">
        <ele>388.51</ele>
        <time>2016-09-28T07:56:46Z</time>
      </trkpt>
      <trkpt lat="43.6367" lon="6.64471">
        <ele>389.47</ele>
        <time>2016-09-28T07:57:00Z</time>
      </trkpt>
      <trkpt lat="43.63674" lon="6.64462">
        <ele>389.95</ele>
        <time>2016-09-28T07:57:15Z</time>
      </trkpt>
      <trkpt lat="43.63672" lon="6.64459">
        <ele>389.95</ele>
        <time>2016-09-28T07:57:31Z</time>
      </trkpt>
      <trkpt lat="43.6367" lon="6.64459">
        <ele>389.95</ele>
        <time>2016-09-28T07:58:02Z</time>
      </trkpt>
      <trkpt lat="43.63669" lon="6.64459">
        <ele>389.95</ele>
        <time>2016-09-28T07:58:41Z</time>
      </trkpt>
      <trkpt lat="43.63669" lon="6.64458">
        <ele>389.95</ele>
        <time>2016-09-28T07:59:16Z</time>
      </trkpt>
      <trkpt lat="43.63668" lon="6.64457">
        <ele>389.95</ele>
        <time>2016-09-28T07:59:44Z</time>
      </trkpt>
      <trkpt lat="43.63669" lon="6.64454">
        <ele>389.95</ele>
        <time>2016-09-28T07:59:47Z</time>
      </trkpt>
      <trkpt lat="43.6367" lon="6.64447">
        <ele>389.95</ele>
        <time>2016-09-28T07:59:51Z</time>
      </trkpt>
      <trkpt lat="43.63664" lon="6.64439">
        <ele>390.43</ele>
        <time>2016-09-28T08:00:04Z</time>
      </trkpt>
      <trkpt lat="43.63663" lon="6.64438">
        <ele>389.95</ele>
        <time>2016-09-28T08:00:20Z</time>
      </trkpt>
      <trkpt lat="43.63662" lon="6.64436">
        <ele>389.95</ele>
        <time>2016-09-28T08:00:58Z</time>
      </trkpt>
      <trkpt lat="43.63663" lon="6.64437">
        <ele>389.95</ele>
        <time>2016-09-28T08:01:31Z</time>
      </trkpt>
      <trkpt lat="43.63663" lon="6.64437">
        <ele>389.95</ele>
        <time>2016-09-28T08:02:01Z</time>
      </trkpt>
      <trkpt lat="43.63664" lon="6.64437">
        <ele>390.43</ele>
        <time>2016-09-28T08:02:18Z</time>
      </trkpt>
      <trkpt lat="43.63665" lon="6.64434">
        <ele>390.91</ele>
        <time>2016-09-28T08:02:34Z</time>
      </trkpt>
      <trkpt lat="43.63665" lon="6.64432">
        <ele>390.91</ele>
        <time>2016-09-28T08:02:50Z</time>
      </trkpt>
      <trkpt lat="43.63666" lon="6.64431">
        <ele>390.91</ele>
        <time>2016-09-28T08:03:14Z</time>
      </trkpt>
      <trkpt lat="43.63666" lon="6.64429">
        <ele>390.91</ele>
        <time>2016-09-28T08:03:34Z</time>
      </trkpt>
      <trkpt lat="43.63666" lon="6.64428">
        <ele>390.91</ele>
        <time>2016-09-28T08:03:57Z</time>
      </trkpt>
      <trkpt lat="43.63666" lon="6.64427">
        <ele>390.91</ele>
        <time>2016-09-28T08:04:29Z</time>
      </trkpt>
      <trkpt lat="43.63665" lon="6.64427">
        <ele>390.43</ele>
        <time>2016-09-28T08:04:44Z</time>
      </trkpt>
      <trkpt lat="43.63674" lon="6.64442">
        <ele>390.43</ele>
        <time>2016-09-28T08:04:58Z</time>
      </trkpt>
      <trkpt lat="43.63677" lon="6.64442">
        <ele>391.39</ele>
        <time>2016-09-28T08:05:10Z</time>
      </trkpt>
      <trkpt lat="43.63689" lon="6.64437">
        <ele>393.32</ele>
        <time>2016-09-28T08:05:25Z</time>
      </trkpt>
      <trkpt lat="43.637" lon="6.64435">
        <ele>394.28</ele>
        <time>2016-09-28T08:05:38Z</time>
      </trkpt>
      <trkpt lat="43.63701" lon="6.64433">
        <ele>394.76</ele>
        <time>2016-09-28T08:05:55Z</time>
      </trkpt>
      <trkpt lat="43.63703" lon="6.64434">
        <ele>394.76</ele>
        <time>2016-09-28T08:06:19Z</time>
      </trkpt>
      <trkpt lat="43.63704" lon="6.64433">
        <ele>394.76</ele>
        <time>2016-09-28T08:06:47Z</time>
      </trkpt>
      <trkpt lat="43.63708" lon="6.64429">
        <ele>394.28</ele>
        <time>2016-09-28T08:07:05Z</time>
      </trkpt>
      <trkpt lat="43.6371" lon="6.64425">
        <ele>394.28</ele>
        <time>2016-09-28T08:07:21Z</time>
      </trkpt>
      <trkpt lat="43.63718" lon="6.64413">
        <ele>393.8</ele>
        <time>2016-09-28T08:07:29Z</time>
      </trkpt>
      <trkpt lat="43.63721" lon="6.64407">
        <ele>394.28</ele>
        <time>2016-09-28T08:07:34Z</time>
      </trkpt>
      <trkpt lat="43.63727" lon="6.6439">
        <ele>395.24</ele>
        <time>2016-09-28T08:07:49Z</time>
      </trkpt>
      <trkpt lat="43.63717" lon="6.64377">
        <ele>395.24</ele>
        <time>2016-09-28T08:08:05Z</time>
      </trkpt>
      <trkpt lat="43.63701" lon="6.64377">
        <ele>395.72</ele>
        <time>2016-09-28T08:08:21Z</time>
      </trkpt>
      <trkpt lat="43.63689" lon="6.64379">
        <ele>397.16</ele>
        <time>2016-09-28T08:08:36Z</time>
      </trkpt>
      <trkpt lat="43.63686" lon="6.64379">
        <ele>397.16</ele>
        <time>2016-09-28T08:08:58Z</time>
      </trkpt>
      <trkpt lat="43.63684" lon="6.64379">
        <ele>397.16</ele>
        <time>2016-09-28T08:09:19Z</time>
      </trkpt>
      <trkpt lat="43.63684" lon="6.64379">
        <ele>397.64</ele>
        <time>2016-09-28T08:09:38Z</time>
      </trkpt>
      <trkpt lat="43.63682" lon="6.64384">
        <ele>397.64</ele>
        <time>2016-09-28T08:09:52Z</time>
      </trkpt>
      <trkpt lat="43.63681" lon="6.64385">
        <ele>397.64</ele>
        <time>2016-09-28T08:10:14Z</time>
      </trkpt>
      <trkpt lat="43.63682" lon="6.64383">
        <ele>397.64</ele>
        <time>2016-09-28T08:10:17Z</time>
      </trkpt>
      <trkpt lat="43.63683" lon="6.64379">
        <ele>397.64</ele>
        <time>2016-09-28T08:10:20Z</time>
      </trkpt>
      <trkpt lat="43.63689" lon="6.64373">
        <ele>399.08</ele>
        <time>2016-09-28T08:10:31Z</time>
      </trkpt>
      <trkpt lat="43.63702" lon="6.64354">
        <ele>401.97</ele>
        <time>2016-09-28T08:10:49Z</time>
      </trkpt>
      <trkpt lat="43.63703" lon="6.64352">
        <ele>401.97</ele>
        <time>2016-09-28T08:10:51Z</time>
      </trkpt>
      <trkpt lat="43.63702" lon="6.64336">
        <ele>404.85</ele>
        <time>2016-09-28T08:11:06Z</time>
      </trkpt>
      <trkpt lat="43.63701" lon="6.64333">
        <ele>405.33</ele>
        <time>2016-09-28T08:11:27Z</time>
      </trkpt>
      <trkpt lat="43.63699" lon="6.64334">
        <ele>405.33</ele>
        <time>2016-09-28T08:11:34Z</time>
      </trkpt>
      <trkpt lat="43.63689" lon="6.6435">
        <ele>404.85</ele>
        <time>2016-09-28T08:11:52Z</time>
      </trkpt>
      <trkpt lat="43.63684" lon="6.64348">
        <ele>404.37</ele>
        <time>2016-09-28T08:12:07Z</time>
      </trkpt>
      <trkpt lat="43.63671" lon="6.64347">
        <ele>403.41</ele>
        <time>2016-09-28T08:12:24Z</time>
      </trkpt>
      <trkpt lat="43.63668" lon="6.64358">
        <ele>405.81</ele>
        <time>2016-09-28T08:12:43Z</time>
      </trkpt>
      <trkpt lat="43.63664" lon="6.64359">
        <ele>405.81</ele>
        <time>2016-09-28T08:13:04Z</time>
      </trkpt>
      <trkpt lat="43.63664" lon="6.64359">
        <ele>405.81</ele>
        <time>2016-09-28T08:13:32Z</time>
      </trkpt>
      <trkpt lat="43.63665" lon="6.64359">
        <ele>406.77</ele>
        <time>2016-09-28T08:13:52Z</time>
      </trkpt>
      <trkpt lat="43.63665" lon="6.64347">
        <ele>409.66</ele>
        <time>2016-09-28T08:14:08Z</time>
      </trkpt>
      <trkpt lat="43.63662" lon="6.64342">
        <ele>411.1</ele>
        <time>2016-09-28T08:14:24Z</time>
      </trkpt>
      <trkpt lat="43.6366" lon="6.64341">
        <ele>411.58</ele>
        <time>2016-09-28T08:14:46Z</time>
      </trkpt>
      <trkpt lat="43.63654" lon="6.64342">
        <ele>412.06</ele>
        <time>2016-09-28T08:15:05Z</time>
      </trkpt>
      <trkpt lat="43.63647" lon="6.64343">
        <ele>411.58</ele>
        <time>2016-09-28T08:15:25Z</time>
      </trkpt>
      <trkpt lat="43.63643" lon="6.64343">
        <ele>411.1</ele>
        <time>2016-09-28T08:15:26Z</time>
      </trkpt>
      <trkpt lat="43.63641" lon="6.64354">
        <ele>409.66</ele>
        <time>2016-09-28T08:15:43Z</time>
      </trkpt>
      <trkpt lat="43.63634" lon="6.6436">
        <ele>409.66</ele>
        <time>2016-09-28T08:16:01Z</time>
      </trkpt>
      <trkpt lat="43.63631" lon="6.64361">
        <ele>409.66</ele>
        <time>2016-09-28T08:16:22Z</time>
      </trkpt>
      <trkpt lat="43.63628" lon="6.64362">
        <ele>409.66</ele>
        <time>2016-09-28T08:16:43Z</time>
      </trkpt>
      <trkpt lat="43.63622" lon="6.64362">
        <ele>409.66</ele>
        <time>2016-09-28T08:16:51Z</time>
      </trkpt>
      <trkpt lat="43.6361" lon="6.64359">
        <ele>407.26</ele>
        <time>2016-09-28T08:17:08Z</time>
      </trkpt>
      <trkpt lat="43.6361" lon="6.64358">
        <ele>407.74</ele>
        <time>2016-09-28T08:17:30Z</time>
      </trkpt>
      <trkpt lat="43.63608" lon="6.64357">
        <ele>408.22</ele>
        <time>2016-09-28T08:17:58Z</time>
      </trkpt>
      <trkpt lat="43.63609" lon="6.64359">
        <ele>407.74</ele>
        <time>2016-09-28T08:18:11Z</time>
      </trkpt>
      <trkpt lat="43.6361" lon="6.64356">
        <ele>408.22</ele>
        <time>2016-09-28T08:18:21Z</time>
      </trkpt>
      <trkpt lat="43.6361" lon="6.64351">
        <ele>408.7</ele>
        <time>2016-09-28T08:18:24Z</time>
      </trkpt>
      <trkpt lat="43.63608" lon="6.64332">
        <ele>410.14</ele>
        <time>2016-09-28T08:18:39Z</time>
      </trkpt>
      <trkpt lat="43.63596" lon="6.64313">
        <ele>411.58</ele>
        <time>2016-09-28T08:18:59Z</time>
      </trkpt>
      <trkpt lat="43.63597" lon="6.64311">
        <ele>412.06</ele>
        <time>2016-09-28T08:19:00Z</time>
      </trkpt>
      <trkpt lat="43.63603" lon="6.64297">
        <ele>412.06</ele>
        <time>2016-09-28T08:19:20Z</time>
      </trkpt>
      <trkpt lat="43.63608" lon="6.64296">
        <ele>413.02</ele>
        <time>2016-09-28T08:19:41Z</time>
      </trkpt>
      <trkpt lat="43.6362" lon="6.64314">
        <ele>416.39</ele>
        <time>2016-09-28T08:19:59Z</time>
      </trkpt>
      <trkpt lat="43.6363" lon="6.64317">
        <ele>416.87</ele>
        <time>2016-09-28T08:20:17Z</time>
      </trkpt>
      <trkpt lat="43.63628" lon="6.64319">
        <ele>416.87</ele>
        <time>2016-09-28T08:20:41Z</time>
      </trkpt>
      <trkpt lat="43.6363" lon="6.6432">
        <ele>417.35</ele>
        <time>2016-09-28T08:21:01Z</time>
      </trkpt>
      <trkpt lat="43.63629" lon="6.6432">
        <ele>417.35</ele>
        <time>2016-09-28T08:21:20Z</time>
      </trkpt>
      <trkpt lat="43.63628" lon="6.6432">
        <ele>417.83</ele>
        <time>2016-09-28T08:21:22Z</time>
      </trkpt>
      <trkpt lat="43.63637" lon="6.64314">
        <ele>417.83</ele>
        <time>2016-09-28T08:21:36Z</time>
      </trkpt>
      <trkpt lat="43.63634" lon="6.64317">
        <ele>417.83</ele>
        <time>2016-09-28T08:21:54Z</time>
      </trkpt>
      <trkpt lat="43.63622" lon="6.6432">
        <ele>417.83</ele>
        <time>2016-09-28T08:22:15Z</time>
      </trkpt>
      <trkpt lat="43.63623" lon="6.64312">
        <ele>417.83</ele>
        <time>2016-09-28T08:22:26Z</time>
      </trkpt>
      <trkpt lat="43.63626" lon="6.64328">
        <ele>418.31</ele>
        <time>2016-09-28T08:22:44Z</time>
      </trkpt>
      <trkpt lat="43.63637" lon="6.64324">
        <ele>418.79</ele>
        <time>2016-09-28T08:23:03Z</time>
      </trkpt>
      <trkpt lat="43.6365" lon="6.64313">
        <ele>418.79</ele>
        <time>2016-09-28T08:23:19Z</time>
      </trkpt>
      <trkpt lat="43.63656" lon="6.64304">
        <ele>418.79</ele>
        <time>2016-09-28T08:23:28Z</time>
      </trkpt>
      <trkpt lat="43.63667" lon="6.64308">
        <ele>418.79</ele>
        <time>2016-09-28T08:23:45Z</time>
      </trkpt>
      <trkpt lat="43.63671" lon="6.64309">
        <ele>418.79</ele>
        <time>2016-09-28T08:24:03Z</time>
      </trkpt>
      <trkpt lat="43.63672" lon="6.64309">
        <ele>419.27</ele>
        <time>2016-09-28T08:24:24Z</time>
      </trkpt>
      <trkpt lat="43.63674" lon="6.64304">
        <ele>418.79</ele>
        <time>2016-09-28T08:24:40Z</time>
      </trkpt>
      <trkpt lat="43.63674" lon="6.64298">
        <ele>418.79</ele>
        <time>2016-09-28T08:25:02Z</time>
      </trkpt>
      <trkpt lat="43.63674" lon="6.64299">
        <ele>418.79</ele>
        <time>2016-09-28T08:25:17Z</time>
      </trkpt>
      <trkpt lat="43.63669" lon="6.64302">
        <ele>419.27</ele>
        <time>2016-09-28T08:25:36Z</time>
      </trkpt>
      <trkpt lat="43.63671" lon="6.64308">
        <ele>419.75</ele>
        <time>2016-09-28T08:25:55Z</time>
      </trkpt>
      <trkpt lat="43.63669" lon="6.64312">
        <ele>419.75</ele>
        <time>2016-09-28T08:26:12Z</time>
      </trkpt>
      <trkpt lat="43.63675" lon="6.64307">
        <ele>419.27</ele>
        <time>2016-09-28T08:26:26Z</time>
      </trkpt>
      <trkpt lat="43.63673" lon="6.64299">
        <ele>418.79</ele>
        <time>2016-09-28T08:26:45Z</time>
      </trkpt>
      <trkpt lat="43.63673" lon="6.64296">
        <ele>419.27</ele>
        <time>2016-09-28T08:27:21Z</time>
      </trkpt>
      <trkpt lat="43.63672" lon="6.64296">
        <ele>419.75</ele>
        <time>2016-09-28T08:27:53Z</time>
      </trkpt>
      <trkpt lat="43.63672" lon="6.64294">
        <ele>419.27</ele>
        <time>2016-09-28T08:28:21Z</time>
      </trkpt>
      <trkpt lat="43.63673" lon="6.64293">
        <ele>419.75</ele>
        <time>2016-09-28T08:28:53Z</time>
      </trkpt>
      <trkpt lat="43.63673" lon="6.64293">
        <ele>419.75</ele>
        <time>2016-09-28T08:29:16Z</time>
      </trkpt>
      <trkpt lat="43.63675" lon="6.64293">
        <ele>419.75</ele>
        <time>2016-09-28T08:29:42Z</time>
      </trkpt>
      <trkpt lat="43.63676" lon="6.64293">
        <ele>419.75</ele>
        <time>2016-09-28T08:30:11Z</time>
      </trkpt>
      <trkpt lat="43.63676" lon="6.6429">
        <ele>419.27</ele>
        <time>2016-09-28T08:30:23Z</time>
      </trkpt>
      <trkpt lat="43.63684" lon="6.64293">
        <ele>418.31</ele>
        <time>2016-09-28T08:30:37Z</time>
      </trkpt>
      <trkpt lat="43.63688" lon="6.64283">
        <ele>418.79</ele>
        <time>2016-09-28T08:30:46Z</time>
      </trkpt>
      <trkpt lat="43.63691" lon="6.64277">
        <ele>421.19</ele>
        <time>2016-09-28T08:30:57Z</time>
      </trkpt>
      <trkpt lat="43.63692" lon="6.64274">
        <ele>422.16</ele>
        <time>2016-09-28T08:31:07Z</time>
      </trkpt>
      <trkpt lat="43.63702" lon="6.64268">
        <ele>424.08</ele>
        <time>2016-09-28T08:31:23Z</time>
      </trkpt>
      <trkpt lat="43.63711" lon="6.6426">
        <ele>426.48</ele>
        <time>2016-09-28T08:31:36Z</time>
      </trkpt>
      <trkpt lat="43.63717" lon="6.64255">
        <ele>427.92</ele>
        <time>2016-09-28T08:31:50Z</time>
      </trkpt>
      <trkpt lat="43.63729" lon="6.64248">
        <ele>429.85</ele>
        <time>2016-09-28T08:32:05Z</time>
      </trkpt>
      <trkpt lat="43.63736" lon="6.64244">
        <ele>432.25</ele>
        <time>2016-09-28T08:32:15Z</time>
      </trkpt>
      <trkpt lat="43.63742" lon="6.6424">
        <ele>432.25</ele>
        <time>2016-09-28T08:32:22Z</time>
      </trkpt>
      <trkpt lat="43.63747" lon="6.64237">
        <ele>432.73</ele>
        <time>2016-09-28T08:32:27Z</time>
      </trkpt>
      <trkpt lat="43.6376" lon="6.64235">
        <ele>434.65</ele>
        <time>2016-09-28T08:32:41Z</time>
      </trkpt>
      <trkpt lat="43.63772" lon="6.64233">
        <ele>435.61</ele>
        <time>2016-09-28T08:32:58Z</time>
      </trkpt>
      <trkpt lat="43.63782" lon="6.6423">
        <ele>436.58</ele>
        <time>2016-09-28T08:33:11Z</time>
      </trkpt>
      <trkpt lat="43.63782" lon="6.64229">
        <ele>437.06</ele>
        <time>2016-09-28T08:33:28Z</time>
      </trkpt>
      <trkpt lat="43.63782" lon="6.6423">
        <ele>437.06</ele>
        <time>2016-09-28T08:33:47Z</time>
      </trkpt>
      <trkpt lat="43.63783" lon="6.64229">
        <ele>436.58</ele>
        <time>2016-09-28T08:34:03Z</time>
      </trkpt>
      <trkpt lat="43.63783" lon="6.64228">
        <ele>436.58</ele>
        <time>2016-09-28T08:34:28Z</time>
      </trkpt>
      <trkpt lat="43.63782" lon="6.64227">
        <ele>437.06</ele>
        <time>2016-09-28T08:35:00Z</time>
      </trkpt>
      <trkpt lat="43.63783" lon="6.64226">
        <ele>437.06</ele>
        <time>2016-09-28T08:35:22Z</time>
      </trkpt>
      <trkpt lat="43.63783" lon="6.64225">
        <ele>436.58</ele>
        <time>2016-09-28T08:35:41Z</time>
      </trkpt>
      <trkpt lat="43.63783" lon="6.64224">
        <ele>436.58</ele>
        <time>2016-09-28T08:35:58Z</time>
      </trkpt>
      <trkpt lat="43.63782" lon="6.64224">
        <ele>436.58</ele>
        <time>2016-09-28T08:36:16Z</time>
      </trkpt>
      <trkpt lat="43.63793" lon="6.64216">
        <ele>438.5</ele>
        <time>2016-09-28T08:36:31Z</time>
      </trkpt>
      <trkpt lat="43.63804" lon="6.6421">
        <ele>440.9</ele>
        <time>2016-09-28T08:36:47Z</time>
      </trkpt>
      <trkpt lat="43.63811" lon="6.64213">
        <ele>442.82</ele>
        <time>2016-09-28T08:37:00Z</time>
      </trkpt>
      <trkpt lat="43.63822" lon="6.64208">
        <ele>445.23</ele>
        <time>2016-09-28T08:37:12Z</time>
      </trkpt>
      <trkpt lat="43.6383" lon="6.64207">
        <ele>448.11</ele>
        <time>2016-09-28T08:37:25Z</time>
      </trkpt>
      <trkpt lat="43.63841" lon="6.64205">
        <ele>450.52</ele>
        <time>2016-09-28T08:37:39Z</time>
      </trkpt>
      <trkpt lat="43.63846" lon="6.64197">
        <ele>452.44</ele>
        <time>2016-09-28T08:37:55Z</time>
      </trkpt>
      <trkpt lat="43.63846" lon="6.64186">
        <ele>453.88</ele>
        <time>2016-09-28T08:38:10Z</time>
      </trkpt>
      <trkpt lat="43.63845" lon="6.64175">
        <ele>455.32</ele>
        <time>2016-09-28T08:38:22Z</time>
      </trkpt>
      <trkpt lat="43.63843" lon="6.64162">
        <ele>458.69</ele>
        <time>2016-09-28T08:38:37Z</time>
      </trkpt>
      <trkpt lat="43.63842" lon="6.64157">
        <ele>459.17</ele>
        <time>2016-09-28T08:38:42Z</time>
      </trkpt>
      <trkpt lat="43.63842" lon="6.64153">
        <ele>459.17</ele>
        <time>2016-09-28T08:39:00Z</time>
      </trkpt>
      <trkpt lat="43.6384" lon="6.64154">
        <ele>459.17</ele>
        <time>2016-09-28T08:39:20Z</time>
      </trkpt>
      <trkpt lat="43.63839" lon="6.64152">
        <ele>459.17</ele>
        <time>2016-09-28T08:39:48Z</time>
      </trkpt>
      <trkpt lat="43.63835" lon="6.64159">
        <ele>459.65</ele>
        <time>2016-09-28T08:40:09Z</time>
      </trkpt>
      <trkpt lat="43.63834" lon="6.64166">
        <ele>459.17</ele>
        <time>2016-09-28T08:40:16Z</time>
      </trkpt>
      <trkpt lat="43.63832" lon="6.64174">
        <ele>458.69</ele>
        <time>2016-09-28T08:40:24Z</time>
      </trkpt>
      <trkpt lat="43.63835" lon="6.64189">
        <ele>458.21</ele>
        <time>2016-09-28T08:40:39Z</time>
      </trkpt>
      <trkpt lat="43.63835" lon="6.64186">
        <ele>458.21</ele>
        <time>2016-09-28T08:40:57Z</time>
      </trkpt>
      <trkpt lat="43.63835" lon="6.64183">
        <ele>458.21</ele>
        <time>2016-09-28T08:41:02Z</time>
      </trkpt>
      <trkpt lat="43.63833" lon="6.64177">
        <ele>458.69</ele>
        <time>2016-09-28T08:41:15Z</time>
      </trkpt>
      <trkpt lat="43.63834" lon="6.64177">
        <ele>458.69</ele>
        <time>2016-09-28T08:41:32Z</time>
      </trkpt>
      <trkpt lat="43.63837" lon="6.64168">
        <ele>459.17</ele>
        <time>2016-09-28T08:41:46Z</time>
      </trkpt>
      <trkpt lat="43.63835" lon="6.64168">
        <ele>459.17</ele>
        <time>2016-09-28T08:42:00Z</time>
      </trkpt>
      <trkpt lat="43.63836" lon="6.64167">
        <ele>459.17</ele>
        <time>2016-09-28T08:42:19Z</time>
      </trkpt>
      <trkpt lat="43.63838" lon="6.64157">
        <ele>459.17</ele>
        <time>2016-09-28T08:42:33Z</time>
      </trkpt>
      <trkpt lat="43.63835" lon="6.64157">
        <ele>459.17</ele>
        <time>2016-09-28T08:43:00Z</time>
      </trkpt>
      <trkpt lat="43.63835" lon="6.64157">
        <ele>459.17</ele>
        <time>2016-09-28T08:43:25Z</time>
      </trkpt>
      <trkpt lat="43.63834" lon="6.64151">
        <ele>459.65</ele>
        <time>2016-09-28T08:43:45Z</time>
      </trkpt>
      <trkpt lat="43.63835" lon="6.64133">
        <ele>460.13</ele>
        <time>2016-09-28T08:44:00Z</time>
      </trkpt>
      <trkpt lat="43.63836" lon="6.64128">
        <ele>460.61</ele>
        <time>2016-09-28T08:44:05Z</time>
      </trkpt>
      <trkpt lat="43.63837" lon="6.64107">
        <ele>461.57</ele>
        <time>2016-09-28T08:44:21Z</time>
      </trkpt>
      <trkpt lat="43.63837" lon="6.64106">
        <ele>462.05</ele>
        <time>2016-09-28T08:44:22Z</time>
      </trkpt>
      <trkpt lat="43.63837" lon="6.64097">
        <ele>462.53</ele>
        <time>2016-09-28T08:44:30Z</time>
      </trkpt>
      <trkpt lat="43.6384" lon="6.64078">
        <ele>464.45</ele>
        <time>2016-09-28T08:44:44Z</time>
      </trkpt>
      <trkpt lat="43.6384" lon="6.64078">
        <ele>464.45</ele>
        <time>2016-09-28T08:44:45Z</time>
      </trkpt>
      <trkpt lat="43.63845" lon="6.64062">
        <ele>466.38</ele>
        <time>2016-09-28T08:45:00Z</time>
      </trkpt>
      <trkpt lat="43.63848" lon="6.64055">
        <ele>466.86</ele>
        <time>2016-09-28T08:45:07Z</time>
      </trkpt>
      <trkpt lat="43.63854" lon="6.64041">
        <ele>468.78</ele>
        <time>2016-09-28T08:45:21Z</time>
      </trkpt>
      <trkpt lat="43.63858" lon="6.64031">
        <ele>469.74</ele>
        <time>2016-09-28T08:45:35Z</time>
      </trkpt>
      <trkpt lat="43.6386" lon="6.64026">
        <ele>470.22</ele>
        <time>2016-09-28T08:45:54Z</time>
      </trkpt>
      <trkpt lat="43.63865" lon="6.64011">
        <ele>471.66</ele>
        <time>2016-09-28T08:46:08Z</time>
      </trkpt>
      <trkpt lat="43.63865" lon="6.64011">
        <ele>471.66</ele>
        <time>2016-09-28T08:46:25Z</time>
      </trkpt>
      <trkpt lat="43.63866" lon="6.64011">
        <ele>471.66</ele>
        <time>2016-09-28T08:46:50Z</time>
      </trkpt>
      <trkpt lat="43.63866" lon="6.64012">
        <ele>471.66</ele>
        <time>2016-09-28T08:47:15Z</time>
      </trkpt>
      <trkpt lat="43.63869" lon="6.64012">
        <ele>471.66</ele>
        <time>2016-09-28T08:47:32Z</time>
      </trkpt>
      <trkpt lat="43.63868" lon="6.64012">
        <ele>471.18</ele>
        <time>2016-09-28T08:48:01Z</time>
      </trkpt>
      <trkpt lat="43.63865" lon="6.64013">
        <ele>471.18</ele>
        <time>2016-09-28T08:48:24Z</time>
      </trkpt>
      <trkpt lat="43.63864" lon="6.64013">
        <ele>471.18</ele>
        <time>2016-09-28T08:48:52Z</time>
      </trkpt>
      <trkpt lat="43.63863" lon="6.64013">
        <ele>470.7</ele>
        <time>2016-09-28T08:49:07Z</time>
      </trkpt>
      <trkpt lat="43.63861" lon="6.64016">
        <ele>470.22</ele>
        <time>2016-09-28T08:49:23Z</time>
      </trkpt>
      <trkpt lat="43.63856" lon="6.64024">
        <ele>469.74</ele>
        <time>2016-09-28T08:49:39Z</time>
      </trkpt>
      <trkpt lat="43.63851" lon="6.64036">
        <ele>469.26</ele>
        <time>2016-09-28T08:49:54Z</time>
      </trkpt>
      <trkpt lat="43.63857" lon="6.64033">
        <ele>469.74</ele>
        <time>2016-09-28T08:50:05Z</time>
      </trkpt>
      <trkpt lat="43.63858" lon="6.64033">
        <ele>469.74</ele>
        <time>2016-09-28T08:50:21Z</time>
      </trkpt>
      <trkpt lat="43.63858" lon="6.64034">
        <ele>470.22</ele>
        <time>2016-09-28T08:50:44Z</time>
      </trkpt>
      <trkpt lat="43.63858" lon="6.64033">
        <ele>470.22</ele>
        <time>2016-09-28T08:51:05Z</time>
      </trkpt>
      <trkpt lat="43.6386" lon="6.64028">
        <ele>470.7</ele>
        <time>2016-09-28T08:51:30Z</time>
      </trkpt>
      <trkpt lat="43.63862" lon="6.64022">
        <ele>467.82</ele>
        <time>2016-09-28T08:51:33Z</time>
      </trkpt>
      <trkpt lat="43.63863" lon="6.64019">
        <ele>473.59</ele>
        <time>2016-09-28T08:51:34Z</time>
      </trkpt>
      <trkpt lat="43.63863" lon="6.64018">
        <ele>471.66</ele>
        <time>2016-09-28T08:51:35Z</time>
      </trkpt>
      <trkpt lat="43.63867" lon="6.64018">
        <ele>472.14</ele>
        <time>2016-09-28T08:51:38Z</time>
      </trkpt>
      <trkpt lat="43.63871" lon="6.64025">
        <ele>473.11</ele>
        <time>2016-09-28T08:51:45Z</time>
      </trkpt>
      <trkpt lat="43.63872" lon="6.64031">
        <ele>473.59</ele>
        <time>2016-09-28T08:51:50Z</time>
      </trkpt>
      <trkpt lat="43.63873" lon="6.64035">
        <ele>474.07</ele>
        <time>2016-09-28T08:51:53Z</time>
      </trkpt>
      <trkpt lat="43.63882" lon="6.64052">
        <ele>476.47</ele>
        <time>2016-09-28T08:52:07Z</time>
      </trkpt>
      <trkpt lat="43.63895" lon="6.64066">
        <ele>476.95</ele>
        <time>2016-09-28T08:52:21Z</time>
      </trkpt>
      <trkpt lat="43.63898" lon="6.64068">
        <ele>476.47</ele>
        <time>2016-09-28T08:52:24Z</time>
      </trkpt>
      <trkpt lat="43.63902" lon="6.64068">
        <ele>476.95</ele>
        <time>2016-09-28T08:52:28Z</time>
      </trkpt>
      <trkpt lat="43.6391" lon="6.64058">
        <ele>479.35</ele>
        <time>2016-09-28T08:52:42Z</time>
      </trkpt>
      <trkpt lat="43.63917" lon="6.64046">
        <ele>482.72</ele>
        <time>2016-09-28T08:52:55Z</time>
      </trkpt>
      <trkpt lat="43.63925" lon="6.64042">
        <ele>483.68</ele>
        <time>2016-09-28T08:53:08Z</time>
      </trkpt>
      <trkpt lat="43.63931" lon="6.6404">
        <ele>484.16</ele>
        <time>2016-09-28T08:53:13Z</time>
      </trkpt>
      <trkpt lat="43.63944" lon="6.64038">
        <ele>486.08</ele>
        <time>2016-09-28T08:53:27Z</time>
      </trkpt>
      <trkpt lat="43.63945" lon="6.64038">
        <ele>486.08</ele>
        <time>2016-09-28T08:53:29Z</time>
      </trkpt>
      <trkpt lat="43.63958" lon="6.64041">
        <ele>487.05</ele>
        <time>2016-09-28T08:53:42Z</time>
      </trkpt>
      <trkpt lat="43.63964" lon="6.64033">
        <ele>488.49</ele>
        <time>2016-09-28T08:53:57Z</time>
      </trkpt>
      <trkpt lat="43.63966" lon="6.64032">
        <ele>488.97</ele>
        <time>2016-09-28T08:54:20Z</time>
      </trkpt>
      <trkpt lat="43.63965" lon="6.64031">
        <ele>489.45</ele>
        <time>2016-09-28T08:54:38Z</time>
      </trkpt>
      <trkpt lat="43.63965" lon="6.64029">
        <ele>489.45</ele>
        <time>2016-09-28T08:55:08Z</time>
      </trkpt>
      <trkpt lat="43.63969" lon="6.64027">
        <ele>490.41</ele>
        <time>2016-09-28T08:55:19Z</time>
      </trkpt>
      <trkpt lat="43.63979" lon="6.64028">
        <ele>492.33</ele>
        <time>2016-09-28T08:55:35Z</time>
      </trkpt>
      <trkpt lat="43.63985" lon="6.64028">
        <ele>493.77</ele>
        <time>2016-09-28T08:55:44Z</time>
      </trkpt>
      <trkpt lat="43.63993" lon="6.64031">
        <ele>496.18</ele>
        <time>2016-09-28T08:55:57Z</time>
      </trkpt>
      <trkpt lat="43.63999" lon="6.64029">
        <ele>497.62</ele>
        <time>2016-09-28T08:56:08Z</time>
      </trkpt>
      <trkpt lat="43.63999" lon="6.64036">
        <ele>499.06</ele>
        <time>2016-09-28T08:56:21Z</time>
      </trkpt>
      <trkpt lat="43.64006" lon="6.64043">
        <ele>501.46</ele>
        <time>2016-09-28T08:56:35Z</time>
      </trkpt>
      <trkpt lat="43.64014" lon="6.64051">
        <ele>502.91</ele>
        <time>2016-09-28T08:56:48Z</time>
      </trkpt>
      <trkpt lat="43.64021" lon="6.64061">
        <ele>504.83</ele>
        <time>2016-09-28T08:57:03Z</time>
      </trkpt>
      <trkpt lat="43.64025" lon="6.6407">
        <ele>506.27</ele>
        <time>2016-09-28T08:57:14Z</time>
      </trkpt>
      <trkpt lat="43.64031" lon="6.64078">
        <ele>507.71</ele>
        <time>2016-09-28T08:57:27Z</time>
      </trkpt>
      <trkpt lat="43.6404" lon="6.64083">
        <ele>510.6</ele>
        <time>2016-09-28T08:57:44Z</time>
      </trkpt>
      <trkpt lat="43.64047" lon="6.64087">
        <ele>512.52</ele>
        <time>2016-09-28T08:57:58Z</time>
      </trkpt>
      <trkpt lat="43.64054" lon="6.64095">
        <ele>514.44</ele>
        <time>2016-09-28T08:58:13Z</time>
      </trkpt>
      <trkpt lat="43.6406" lon="6.64102">
        <ele>516.37</ele>
        <time>2016-09-28T08:58:26Z</time>
      </trkpt>
      <trkpt lat="43.64065" lon="6.64107">
        <ele>516.85</ele>
        <time>2016-09-28T08:58:37Z</time>
      </trkpt>
      <trkpt lat="43.64076" lon="6.64113">
        <ele>519.25</ele>
        <time>2016-09-28T08:58:52Z</time>
      </trkpt>
      <trkpt lat="43.64083" lon="6.64111">
        <ele>522.13</ele>
        <time>2016-09-28T08:59:10Z</time>
      </trkpt>
      <trkpt lat="43.64089" lon="6.64104">
        <ele>524.54</ele>
        <time>2016-09-28T08:59:27Z</time>
      </trkpt>
      <trkpt lat="43.6409" lon="6.64102">
        <ele>525.02</ele>
        <time>2016-09-28T08:59:42Z</time>
      </trkpt>
      <trkpt lat="43.6409" lon="6.641">
        <ele>525.98</ele>
        <time>2016-09-28T08:59:57Z</time>
      </trkpt>
      <trkpt lat="43.64092" lon="6.64095">
        <ele>527.9</ele>
        <time>2016-09-28T09:00:13Z</time>
      </trkpt>
      <trkpt lat="43.64091" lon="6.64095">
        <ele>528.38</ele>
        <time>2016-09-28T09:00:28Z</time>
      </trkpt>
      <trkpt lat="43.64095" lon="6.64096">
        <ele>529.82</ele>
        <time>2016-09-28T09:00:34Z</time>
      </trkpt>
      <trkpt lat="43.641" lon="6.641">
        <ele>530.79</ele>
        <time>2016-09-28T09:00:40Z</time>
      </trkpt>
      <trkpt lat="43.64106" lon="6.64101">
        <ele>531.75</ele>
        <time>2016-09-28T09:00:44Z</time>
      </trkpt>
      <trkpt lat="43.64108" lon="6.64103">
        <ele>532.71</ele>
        <time>2016-09-28T09:00:48Z</time>
      </trkpt>
      <trkpt lat="43.64115" lon="6.64105">
        <ele>535.59</ele>
        <time>2016-09-28T09:01:01Z</time>
      </trkpt>
      <trkpt lat="43.64117" lon="6.64104">
        <ele>535.59</ele>
        <time>2016-09-28T09:01:16Z</time>
      </trkpt>
      <trkpt lat="43.64117" lon="6.64101">
        <ele>535.11</ele>
        <time>2016-09-28T09:01:38Z</time>
      </trkpt>
      <trkpt lat="43.64116" lon="6.64101">
        <ele>535.11</ele>
        <time>2016-09-28T09:01:56Z</time>
      </trkpt>
      <trkpt lat="43.64117" lon="6.64102">
        <ele>535.11</ele>
        <time>2016-09-28T09:02:07Z</time>
      </trkpt>
      <trkpt lat="43.64116" lon="6.641">
        <ele>535.59</ele>
        <time>2016-09-28T09:02:30Z</time>
      </trkpt>
      <trkpt lat="43.64117" lon="6.641">
        <ele>535.59</ele>
        <time>2016-09-28T09:02:50Z</time>
      </trkpt>
      <trkpt lat="43.64117" lon="6.64101">
        <ele>536.07</ele>
        <time>2016-09-28T09:03:21Z</time>
      </trkpt>
      <trkpt lat="43.64117" lon="6.64102">
        <ele>535.59</ele>
        <time>2016-09-28T09:03:41Z</time>
      </trkpt>
      <trkpt lat="43.64116" lon="6.64103">
        <ele>535.11</ele>
        <time>2016-09-28T09:04:08Z</time>
      </trkpt>
      <trkpt lat="43.64116" lon="6.64103">
        <ele>535.59</ele>
        <time>2016-09-28T09:04:35Z</time>
      </trkpt>
      <trkpt lat="43.64116" lon="6.64102">
        <ele>535.59</ele>
        <time>2016-09-28T09:04:47Z</time>
      </trkpt>
      <trkpt lat="43.64117" lon="6.64099">
        <ele>535.11</ele>
        <time>2016-09-28T09:05:01Z</time>
      </trkpt>
      <trkpt lat="43.64117" lon="6.64099">
        <ele>535.11</ele>
        <time>2016-09-28T09:05:03Z</time>
      </trkpt>
      <trkpt lat="43.64124" lon="6.64104">
        <ele>535.59</ele>
        <time>2016-09-28T09:05:16Z</time>
      </trkpt>
      <trkpt lat="43.64125" lon="6.64105">
        <ele>535.59</ele>
        <time>2016-09-28T09:05:28Z</time>
      </trkpt>
      <trkpt lat="43.64125" lon="6.64106">
        <ele>535.59</ele>
        <time>2016-09-28T09:05:53Z</time>
      </trkpt>
      <trkpt lat="43.64125" lon="6.64105">
        <ele>535.59</ele>
        <time>2016-09-28T09:06:21Z</time>
      </trkpt>
      <trkpt lat="43.64125" lon="6.64101">
        <ele>535.59</ele>
        <time>2016-09-28T09:06:34Z</time>
      </trkpt>
      <trkpt lat="43.64124" lon="6.64102">
        <ele>535.59</ele>
        <time>2016-09-28T09:06:53Z</time>
      </trkpt>
      <trkpt lat="43.64124" lon="6.64102">
        <ele>535.59</ele>
        <time>2016-09-28T09:07:13Z</time>
      </trkpt>
      <trkpt lat="43.64122" lon="6.64102">
        <ele>535.59</ele>
        <time>2016-09-28T09:07:32Z</time>
      </trkpt>
      <trkpt lat="43.64123" lon="6.64102">
        <ele>535.59</ele>
        <time>2016-09-28T09:07:50Z</time>
      </trkpt>
      <trkpt lat="43.64125" lon="6.64102">
        <ele>535.59</ele>
        <time>2016-09-28T09:08:06Z</time>
      </trkpt>
      <trkpt lat="43.64122" lon="6.64102">
        <ele>535.59</ele>
        <time>2016-09-28T09:08:21Z</time>
      </trkpt>
      <trkpt lat="43.64122" lon="6.64102">
        <ele>535.59</ele>
        <time>2016-09-28T09:08:45Z</time>
      </trkpt>
      <trkpt lat="43.64122" lon="6.64101">
        <ele>535.11</ele>
        <time>2016-09-28T09:09:08Z</time>
      </trkpt>
      <trkpt lat="43.64121" lon="6.64101">
        <ele>535.59</ele>
        <time>2016-09-28T09:09:32Z</time>
      </trkpt>
      <trkpt lat="43.6412" lon="6.64101">
        <ele>535.59</ele>
        <time>2016-09-28T09:09:59Z</time>
      </trkpt>
      <trkpt lat="43.64121" lon="6.64101">
        <ele>535.59</ele>
        <time>2016-09-28T09:10:19Z</time>
      </trkpt>
      <trkpt lat="43.64121" lon="6.64101">
        <ele>536.07</ele>
        <time>2016-09-28T09:10:46Z</time>
      </trkpt>
      <trkpt lat="43.64122" lon="6.64102">
        <ele>535.11</ele>
        <time>2016-09-28T09:10:59Z</time>
      </trkpt>
      <trkpt lat="43.64122" lon="6.64102">
        <ele>535.11</ele>
        <time>2016-09-28T09:11:29Z</time>
      </trkpt>
      <trkpt lat="43.64123" lon="6.64103">
        <ele>535.11</ele>
        <time>2016-09-28T09:12:01Z</time>
      </trkpt>
      <trkpt lat="43.64122" lon="6.64101">
        <ele>535.59</ele>
        <time>2016-09-28T09:12:19Z</time>
      </trkpt>
      <trkpt lat="43.64122" lon="6.641">
        <ele>535.11</ele>
        <time>2016-09-28T09:12:37Z</time>
      </trkpt>
      <trkpt lat="43.64122" lon="6.64099">
        <ele>535.11</ele>
        <time>2016-09-28T09:12:55Z</time>
      </trkpt>
      <trkpt lat="43.64121" lon="6.64098">
        <ele>535.59</ele>
        <time>2016-09-28T09:13:13Z</time>
      </trkpt>
      <trkpt lat="43.6412" lon="6.64098">
        <ele>535.59</ele>
        <time>2016-09-28T09:13:35Z</time>
      </trkpt>
      <trkpt lat="43.64119" lon="6.64098">
        <ele>535.59</ele>
        <time>2016-09-28T09:14:03Z</time>
      </trkpt>
      <trkpt lat="43.64124" lon="6.64097">
        <ele>537.51</ele>
        <time>2016-09-28T09:14:19Z</time>
      </trkpt>
      <trkpt lat="43.64123" lon="6.64097">
        <ele>537.99</ele>
        <time>2016-09-28T09:14:46Z</time>
      </trkpt>
      <trkpt lat="43.64131" lon="6.64085">
        <ele>541.36</ele>
        <time>2016-09-28T09:15:00Z</time>
      </trkpt>
      <trkpt lat="43.64135" lon="6.64074">
        <ele>544.24</ele>
        <time>2016-09-28T09:15:14Z</time>
      </trkpt>
      <trkpt lat="43.64141" lon="6.64072">
        <ele>547.13</ele>
        <time>2016-09-28T09:15:27Z</time>
      </trkpt>
      <trkpt lat="43.64149" lon="6.6407">
        <ele>550.01</ele>
        <time>2016-09-28T09:15:42Z</time>
      </trkpt>
      <trkpt lat="43.64157" lon="6.64068">
        <ele>552.41</ele>
        <time>2016-09-28T09:15:56Z</time>
      </trkpt>
      <trkpt lat="43.64165" lon="6.64066">
        <ele>554.34</ele>
        <time>2016-09-28T09:16:09Z</time>
      </trkpt>
      <trkpt lat="43.64172" lon="6.6406">
        <ele>556.26</ele>
        <time>2016-09-28T09:16:28Z</time>
      </trkpt>
      <trkpt lat="43.64176" lon="6.64056">
        <ele>559.62</ele>
        <time>2016-09-28T09:16:43Z</time>
      </trkpt>
      <trkpt lat="43.64184" lon="6.64057">
        <ele>561.07</ele>
        <time>2016-09-28T09:16:55Z</time>
      </trkpt>
      <trkpt lat="43.6419" lon="6.64054">
        <ele>563.95</ele>
        <time>2016-09-28T09:17:11Z</time>
      </trkpt>
      <trkpt lat="43.64196" lon="6.64044">
        <ele>566.83</ele>
        <time>2016-09-28T09:17:23Z</time>
      </trkpt>
      <trkpt lat="43.64199" lon="6.6404">
        <ele>568.76</ele>
        <time>2016-09-28T09:17:36Z</time>
      </trkpt>
      <trkpt lat="43.64201" lon="6.64036">
        <ele>571.16</ele>
        <time>2016-09-28T09:17:49Z</time>
      </trkpt>
      <trkpt lat="43.6421" lon="6.64022">
        <ele>574.53</ele>
        <time>2016-09-28T09:18:04Z</time>
      </trkpt>
      <trkpt lat="43.64214" lon="6.64021">
        <ele>575.01</ele>
        <time>2016-09-28T09:18:19Z</time>
      </trkpt>
      <trkpt lat="43.64217" lon="6.64014">
        <ele>575.49</ele>
        <time>2016-09-28T09:18:38Z</time>
      </trkpt>
      <trkpt lat="43.64218" lon="6.64012">
        <ele>572.12</ele>
        <time>2016-09-28T09:18:54Z</time>
      </trkpt>
      <trkpt lat="43.64218" lon="6.64012">
        <ele>577.41</ele>
        <time>2016-09-28T09:18:55Z</time>
      </trkpt>
      <trkpt lat="43.64218" lon="6.64012">
        <ele>575.49</ele>
        <time>2016-09-28T09:19:15Z</time>
      </trkpt>
      <trkpt lat="43.64217" lon="6.64011">
        <ele>575.49</ele>
        <time>2016-09-28T09:19:40Z</time>
      </trkpt>
      <trkpt lat="43.64217" lon="6.64011">
        <ele>575.49</ele>
        <time>2016-09-28T09:20:14Z</time>
      </trkpt>
      <trkpt lat="43.64224" lon="6.64008">
        <ele>577.89</ele>
        <time>2016-09-28T09:20:31Z</time>
      </trkpt>
      <trkpt lat="43.64234" lon="6.64001">
        <ele>580.29</ele>
        <time>2016-09-28T09:20:47Z</time>
      </trkpt>
      <trkpt lat="43.64246" lon="6.63994">
        <ele>582.22</ele>
        <time>2016-09-28T09:21:03Z</time>
      </trkpt>
      <trkpt lat="43.64252" lon="6.63984">
        <ele>585.1</ele>
        <time>2016-09-28T09:21:18Z</time>
      </trkpt>
      <trkpt lat="43.64256" lon="6.6398">
        <ele>587.98</ele>
        <time>2016-09-28T09:21:35Z</time>
      </trkpt>
      <trkpt lat="43.64265" lon="6.63972">
        <ele>590.39</ele>
        <time>2016-09-28T09:21:50Z</time>
      </trkpt>
      <trkpt lat="43.64276" lon="6.63954">
        <ele>593.27</ele>
        <time>2016-09-28T09:22:06Z</time>
      </trkpt>
      <trkpt lat="43.64275" lon="6.63942">
        <ele>594.23</ele>
        <time>2016-09-28T09:22:23Z</time>
      </trkpt>
      <trkpt lat="43.64267" lon="6.63919">
        <ele>595.19</ele>
        <time>2016-09-28T09:22:37Z</time>
      </trkpt>
      <trkpt lat="43.64267" lon="6.63908">
        <ele>598.08</ele>
        <time>2016-09-28T09:22:50Z</time>
      </trkpt>
      <trkpt lat="43.64271" lon="6.63915">
        <ele>599.04</ele>
        <time>2016-09-28T09:23:02Z</time>
      </trkpt>
      <trkpt lat="43.64279" lon="6.6392">
        <ele>600</ele>
        <time>2016-09-28T09:23:15Z</time>
      </trkpt>
      <trkpt lat="43.64287" lon="6.63915">
        <ele>602.4</ele>
        <time>2016-09-28T09:23:28Z</time>
      </trkpt>
      <trkpt lat="43.64289" lon="6.63898">
        <ele>603.36</ele>
        <time>2016-09-28T09:23:43Z</time>
      </trkpt>
      <trkpt lat="43.64288" lon="6.63895">
        <ele>604.33</ele>
        <time>2016-09-28T09:24:00Z</time>
      </trkpt>
      <trkpt lat="43.64289" lon="6.63886">
        <ele>606.73</ele>
        <time>2016-09-28T09:24:13Z</time>
      </trkpt>
      <trkpt lat="43.6429" lon="6.63886">
        <ele>606.73</ele>
        <time>2016-09-28T09:24:14Z</time>
      </trkpt>
      <trkpt lat="43.64291" lon="6.63895">
        <ele>607.69</ele>
        <time>2016-09-28T09:24:26Z</time>
      </trkpt>
      <trkpt lat="43.64291" lon="6.63897">
        <ele>607.69</ele>
        <time>2016-09-28T09:24:27Z</time>
      </trkpt>
      <trkpt lat="43.64295" lon="6.63911">
        <ele>609.13</ele>
        <time>2016-09-28T09:24:41Z</time>
      </trkpt>
      <trkpt lat="43.64296" lon="6.63918">
        <ele>609.61</ele>
        <time>2016-09-28T09:24:57Z</time>
      </trkpt>
      <trkpt lat="43.64303" lon="6.63927">
        <ele>610.57</ele>
        <time>2016-09-28T09:25:12Z</time>
      </trkpt>
      <trkpt lat="43.64314" lon="6.63939">
        <ele>612.02</ele>
        <time>2016-09-28T09:25:25Z</time>
      </trkpt>
      <trkpt lat="43.64327" lon="6.63954">
        <ele>613.46</ele>
        <time>2016-09-28T09:25:40Z</time>
      </trkpt>
      <trkpt lat="43.64335" lon="6.63959">
        <ele>614.9</ele>
        <time>2016-09-28T09:25:53Z</time>
      </trkpt>
      <trkpt lat="43.64333" lon="6.63953">
        <ele>615.38</ele>
        <time>2016-09-28T09:25:59Z</time>
      </trkpt>
      <trkpt lat="43.64331" lon="6.6395">
        <ele>615.38</ele>
        <time>2016-09-28T09:26:03Z</time>
      </trkpt>
      <trkpt lat="43.64327" lon="6.63938">
        <ele>615.86</ele>
        <time>2016-09-28T09:26:12Z</time>
      </trkpt>
      <trkpt lat="43.64322" lon="6.63922">
        <ele>616.82</ele>
        <time>2016-09-28T09:26:30Z</time>
      </trkpt>
      <trkpt lat="43.64321" lon="6.6392">
        <ele>617.3</ele>
        <time>2016-09-28T09:26:51Z</time>
      </trkpt>
      <trkpt lat="43.64319" lon="6.63916">
        <ele>616.82</ele>
        <time>2016-09-28T09:27:08Z</time>
      </trkpt>
      <trkpt lat="43.64313" lon="6.63906">
        <ele>616.34</ele>
        <time>2016-09-28T09:27:26Z</time>
      </trkpt>
      <trkpt lat="43.64311" lon="6.63903">
        <ele>616.34</ele>
        <time>2016-09-28T09:27:46Z</time>
      </trkpt>
      <trkpt lat="43.64307" lon="6.63902">
        <ele>616.34</ele>
        <time>2016-09-28T09:28:09Z</time>
      </trkpt>
      <trkpt lat="43.64308" lon="6.63907">
        <ele>616.34</ele>
        <time>2016-09-28T09:28:25Z</time>
      </trkpt>
      <trkpt lat="43.64305" lon="6.63913">
        <ele>616.82</ele>
        <time>2016-09-28T09:28:50Z</time>
      </trkpt>
      <trkpt lat="43.64305" lon="6.63913">
        <ele>616.82</ele>
        <time>2016-09-28T09:29:11Z</time>
      </trkpt>
      <trkpt lat="43.64305" lon="6.63911">
        <ele>617.3</ele>
        <time>2016-09-28T09:29:25Z</time>
      </trkpt>
      <trkpt lat="43.64305" lon="6.63911">
        <ele>613.94</ele>
        <time>2016-09-28T09:29:49Z</time>
      </trkpt>
      <trkpt lat="43.64305" lon="6.63911">
        <ele>619.71</ele>
        <time>2016-09-28T09:29:50Z</time>
      </trkpt>
      <trkpt lat="43.64305" lon="6.6391">
        <ele>617.3</ele>
        <time>2016-09-28T09:29:51Z</time>
      </trkpt>
      <trkpt lat="43.64308" lon="6.63909">
        <ele>616.82</ele>
        <time>2016-09-28T09:30:07Z</time>
      </trkpt>
      <trkpt lat="43.64308" lon="6.6389">
        <ele>616.82</ele>
        <time>2016-09-28T09:30:21Z</time>
      </trkpt>
      <trkpt lat="43.64302" lon="6.63872">
        <ele>616.34</ele>
        <time>2016-09-28T09:30:39Z</time>
      </trkpt>
      <trkpt lat="43.64295" lon="6.63858">
        <ele>616.82</ele>
        <time>2016-09-28T09:30:52Z</time>
      </trkpt>
      <trkpt lat="43.64292" lon="6.63851">
        <ele>617.3</ele>
        <time>2016-09-28T09:30:58Z</time>
      </trkpt>
      <trkpt lat="43.64288" lon="6.6384">
        <ele>618.26</ele>
        <time>2016-09-28T09:31:07Z</time>
      </trkpt>
      <trkpt lat="43.64279" lon="6.63821">
        <ele>619.71</ele>
        <time>2016-09-28T09:31:22Z</time>
      </trkpt>
      <trkpt lat="43.64268" lon="6.63801">
        <ele>621.15</ele>
        <time>2016-09-28T09:31:38Z</time>
      </trkpt>
      <trkpt lat="43.64256" lon="6.63785">
        <ele>622.11</ele>
        <time>2016-09-28T09:31:53Z</time>
      </trkpt>
      <trkpt lat="43.64246" lon="6.63766">
        <ele>621.15</ele>
        <time>2016-09-28T09:32:10Z</time>
      </trkpt>
      <trkpt lat="43.64243" lon="6.63762">
        <ele>621.15</ele>
        <time>2016-09-28T09:32:28Z</time>
      </trkpt>
      <trkpt lat="43.64242" lon="6.63756">
        <ele>621.15</ele>
        <time>2016-09-28T09:32:34Z</time>
      </trkpt>
      <trkpt lat="43.64235" lon="6.63733">
        <ele>621.63</ele>
        <time>2016-09-28T09:32:53Z</time>
      </trkpt>
      <trkpt lat="43.64229" lon="6.63706">
        <ele>621.63</ele>
        <time>2016-09-28T09:33:12Z</time>
      </trkpt>
      <trkpt lat="43.6422" lon="6.63683">
        <ele>620.67</ele>
        <time>2016-09-28T09:33:30Z</time>
      </trkpt>
      <trkpt lat="43.64215" lon="6.63671">
        <ele>619.71</ele>
        <time>2016-09-28T09:33:38Z</time>
      </trkpt>
      <trkpt lat="43.64213" lon="6.63666">
        <ele>619.71</ele>
        <time>2016-09-28T09:33:41Z</time>
      </trkpt>
      <trkpt lat="43.64209" lon="6.63652">
        <ele>619.71</ele>
        <time>2016-09-28T09:33:52Z</time>
      </trkpt>
      <trkpt lat="43.64207" lon="6.63646">
        <ele>619.71</ele>
        <time>2016-09-28T09:33:56Z</time>
      </trkpt>
      <trkpt lat="43.64205" lon="6.63643">
        <ele>619.71</ele>
        <time>2016-09-28T09:33:58Z</time>
      </trkpt>
      <trkpt lat="43.64195" lon="6.63623">
        <ele>619.71</ele>
        <time>2016-09-28T09:34:13Z</time>
      </trkpt>
      <trkpt lat="43.64194" lon="6.63619">
        <ele>619.71</ele>
        <time>2016-09-28T09:34:15Z</time>
      </trkpt>
      <trkpt lat="43.64191" lon="6.63597">
        <ele>619.71</ele>
        <time>2016-09-28T09:34:29Z</time>
      </trkpt>
      <trkpt lat="43.64188" lon="6.63575">
        <ele>619.71</ele>
        <time>2016-09-28T09:34:44Z</time>
      </trkpt>
      <trkpt lat="43.64184" lon="6.63555">
        <ele>619.71</ele>
        <time>2016-09-28T09:34:59Z</time>
      </trkpt>
      <trkpt lat="43.64184" lon="6.63551">
        <ele>619.71</ele>
        <time>2016-09-28T09:35:02Z</time>
      </trkpt>
      <trkpt lat="43.64183" lon="6.63547">
        <ele>619.71</ele>
        <time>2016-09-28T09:35:06Z</time>
      </trkpt>
      <trkpt lat="43.64175" lon="6.63527">
        <ele>620.19</ele>
        <time>2016-09-28T09:35:21Z</time>
      </trkpt>
      <trkpt lat="43.64167" lon="6.63505">
        <ele>620.67</ele>
        <time>2016-09-28T09:35:37Z</time>
      </trkpt>
      <trkpt lat="43.64164" lon="6.63488">
        <ele>620.19</ele>
        <time>2016-09-28T09:35:50Z</time>
      </trkpt>
      <trkpt lat="43.64163" lon="6.63487">
        <ele>620.19</ele>
        <time>2016-09-28T09:35:51Z</time>
      </trkpt>
      <trkpt lat="43.64161" lon="6.63466">
        <ele>619.71</ele>
        <time>2016-09-28T09:36:05Z</time>
      </trkpt>
      <trkpt lat="43.64155" lon="6.63448">
        <ele>619.71</ele>
        <time>2016-09-28T09:36:17Z</time>
      </trkpt>
      <trkpt lat="43.64142" lon="6.63429">
        <ele>618.26</ele>
        <time>2016-09-28T09:36:33Z</time>
      </trkpt>
      <trkpt lat="43.64129" lon="6.63418">
        <ele>618.26</ele>
        <time>2016-09-28T09:36:48Z</time>
      </trkpt>
      <trkpt lat="43.64121" lon="6.63411">
        <ele>618.26</ele>
        <time>2016-09-28T09:36:57Z</time>
      </trkpt>
      <trkpt lat="43.64108" lon="6.63391">
        <ele>617.3</ele>
        <time>2016-09-28T09:37:15Z</time>
      </trkpt>
      <trkpt lat="43.64104" lon="6.63376">
        <ele>616.34</ele>
        <time>2016-09-28T09:37:27Z</time>
      </trkpt>
      <trkpt lat="43.64093" lon="6.63374">
        <ele>617.3</ele>
        <time>2016-09-28T09:37:35Z</time>
      </trkpt>
      <trkpt lat="43.64087" lon="6.63376">
        <ele>617.3</ele>
        <time>2016-09-28T09:37:41Z</time>
      </trkpt>
      <trkpt lat="43.64072" lon="6.63385">
        <ele>616.34</ele>
        <time>2016-09-28T09:37:56Z</time>
      </trkpt>
      <trkpt lat="43.64067" lon="6.63396">
        <ele>615.86</ele>
        <time>2016-09-28T09:38:06Z</time>
      </trkpt>
      <trkpt lat="43.64065" lon="6.63399">
        <ele>615.86</ele>
        <time>2016-09-28T09:38:08Z</time>
      </trkpt>
      <trkpt lat="43.64056" lon="6.63417">
        <ele>615.86</ele>
        <time>2016-09-28T09:38:23Z</time>
      </trkpt>
      <trkpt lat="43.64047" lon="6.63428">
        <ele>616.34</ele>
        <time>2016-09-28T09:38:35Z</time>
      </trkpt>
      <trkpt lat="43.64046" lon="6.63428">
        <ele>616.34</ele>
        <time>2016-09-28T09:38:36Z</time>
      </trkpt>
      <trkpt lat="43.64033" lon="6.63429">
        <ele>616.34</ele>
        <time>2016-09-28T09:38:50Z</time>
      </trkpt>
      <trkpt lat="43.6403" lon="6.63428">
        <ele>616.34</ele>
        <time>2016-09-28T09:38:55Z</time>
      </trkpt>
      <trkpt lat="43.64009" lon="6.63428">
        <ele>616.34</ele>
        <time>2016-09-28T09:39:11Z</time>
      </trkpt>
      <trkpt lat="43.64" lon="6.63441">
        <ele>618.26</ele>
        <time>2016-09-28T09:39:25Z</time>
      </trkpt>
      <trkpt lat="43.63988" lon="6.63444">
        <ele>618.26</ele>
        <time>2016-09-28T09:39:39Z</time>
      </trkpt>
      <trkpt lat="43.6398" lon="6.63443">
        <ele>619.23</ele>
        <time>2016-09-28T09:39:51Z</time>
      </trkpt>
      <trkpt lat="43.63963" lon="6.63435">
        <ele>620.19</ele>
        <time>2016-09-28T09:40:07Z</time>
      </trkpt>
      <trkpt lat="43.63951" lon="6.63431">
        <ele>620.19</ele>
        <time>2016-09-28T09:40:20Z</time>
      </trkpt>
      <trkpt lat="43.63938" lon="6.63428">
        <ele>619.23</ele>
        <time>2016-09-28T09:40:33Z</time>
      </trkpt>
      <trkpt lat="43.63923" lon="6.63422">
        <ele>618.26</ele>
        <time>2016-09-28T09:40:48Z</time>
      </trkpt>
      <trkpt lat="43.63909" lon="6.63418">
        <ele>618.26</ele>
        <time>2016-09-28T09:41:02Z</time>
      </trkpt>
      <trkpt lat="43.63902" lon="6.63413">
        <ele>618.26</ele>
        <time>2016-09-28T09:41:10Z</time>
      </trkpt>
      <trkpt lat="43.63897" lon="6.6341">
        <ele>618.26</ele>
        <time>2016-09-28T09:41:15Z</time>
      </trkpt>
      <trkpt lat="43.63894" lon="6.63409">
        <ele>618.26</ele>
        <time>2016-09-28T09:41:18Z</time>
      </trkpt>
      <trkpt lat="43.63891" lon="6.6341">
        <ele>617.78</ele>
        <time>2016-09-28T09:41:21Z</time>
      </trkpt>
      <trkpt lat="43.63884" lon="6.63409">
        <ele>617.3</ele>
        <time>2016-09-28T09:41:26Z</time>
      </trkpt>
      <trkpt lat="43.63878" lon="6.63409">
        <ele>616.82</ele>
        <time>2016-09-28T09:41:33Z</time>
      </trkpt>
      <trkpt lat="43.63871" lon="6.63408">
        <ele>616.34</ele>
        <time>2016-09-28T09:41:39Z</time>
      </trkpt>
      <trkpt lat="43.63865" lon="6.6341">
        <ele>616.34</ele>
        <time>2016-09-28T09:41:44Z</time>
      </trkpt>
      <trkpt lat="43.63858" lon="6.63409">
        <ele>616.34</ele>
        <time>2016-09-28T09:41:50Z</time>
      </trkpt>
      <trkpt lat="43.63852" lon="6.6341">
        <ele>616.34</ele>
        <time>2016-09-28T09:41:56Z</time>
      </trkpt>
      <trkpt lat="43.63834" lon="6.6341">
        <ele>615.86</ele>
        <time>2016-09-28T09:42:12Z</time>
      </trkpt>
      <trkpt lat="43.63828" lon="6.63411">
        <ele>615.86</ele>
        <time>2016-09-28T09:42:17Z</time>
      </trkpt>
      <trkpt lat="43.63814" lon="6.63416">
        <ele>614.42</ele>
        <time>2016-09-28T09:42:29Z</time>
      </trkpt>
      <trkpt lat="43.63812" lon="6.63418">
        <ele>614.42</ele>
        <time>2016-09-28T09:42:31Z</time>
      </trkpt>
      <trkpt lat="43.638" lon="6.63432">
        <ele>613.94</ele>
        <time>2016-09-28T09:42:46Z</time>
      </trkpt>
      <trkpt lat="43.63791" lon="6.63454">
        <ele>613.94</ele>
        <time>2016-09-28T09:43:00Z</time>
      </trkpt>
      <trkpt lat="43.63787" lon="6.63465">
        <ele>613.94</ele>
        <time>2016-09-28T09:43:15Z</time>
      </trkpt>
      <trkpt lat="43.63784" lon="6.63475">
        <ele>613.94</ele>
        <time>2016-09-28T09:43:28Z</time>
      </trkpt>
      <trkpt lat="43.63785" lon="6.63475">
        <ele>613.94</ele>
        <time>2016-09-28T09:43:55Z</time>
      </trkpt>
      <trkpt lat="43.63786" lon="6.63476">
        <ele>613.94</ele>
        <time>2016-09-28T09:44:24Z</time>
      </trkpt>
      <trkpt lat="43.63788" lon="6.63476">
        <ele>613.94</ele>
        <time>2016-09-28T09:44:52Z</time>
      </trkpt>
      <trkpt lat="43.63788" lon="6.63475">
        <ele>613.46</ele>
        <time>2016-09-28T09:45:21Z</time>
      </trkpt>
      <trkpt lat="43.63786" lon="6.63477">
        <ele>613.46</ele>
        <time>2016-09-28T09:45:53Z</time>
      </trkpt>
      <trkpt lat="43.63782" lon="6.6348">
        <ele>613.46</ele>
        <time>2016-09-28T09:45:57Z</time>
      </trkpt>
      <trkpt lat="43.63772" lon="6.63483">
        <ele>613.46</ele>
        <time>2016-09-28T09:46:06Z</time>
      </trkpt>
      <trkpt lat="43.63747" lon="6.63488">
        <ele>613.46</ele>
        <time>2016-09-28T09:46:26Z</time>
      </trkpt>
      <trkpt lat="43.6373" lon="6.63491">
        <ele>613.46</ele>
        <time>2016-09-28T09:46:41Z</time>
      </trkpt>
      <trkpt lat="43.63723" lon="6.6349">
        <ele>613.46</ele>
        <time>2016-09-28T09:46:49Z</time>
      </trkpt>
      <trkpt lat="43.63721" lon="6.63489">
        <ele>613.46</ele>
        <time>2016-09-28T09:46:51Z</time>
      </trkpt>
      <trkpt lat="43.63715" lon="6.63482">
        <ele>613.46</ele>
        <time>2016-09-28T09:47:00Z</time>
      </trkpt>
      <trkpt lat="43.63713" lon="6.63477">
        <ele>613.46</ele>
        <time>2016-09-28T09:47:04Z</time>
      </trkpt>
      <trkpt lat="43.63706" lon="6.63458">
        <ele>613.46</ele>
        <time>2016-09-28T09:47:19Z</time>
      </trkpt>
      <trkpt lat="43.63705" lon="6.63451">
        <ele>613.46</ele>
        <time>2016-09-28T09:47:35Z</time>
      </trkpt>
      <trkpt lat="43.63703" lon="6.63451">
        <ele>613.46</ele>
        <time>2016-09-28T09:48:05Z</time>
      </trkpt>
      <trkpt lat="43.63703" lon="6.6345">
        <ele>613.46</ele>
        <time>2016-09-28T09:48:31Z</time>
      </trkpt>
      <trkpt lat="43.63701" lon="6.63441">
        <ele>612.98</ele>
        <time>2016-09-28T09:48:49Z</time>
      </trkpt>
      <trkpt lat="43.63697" lon="6.63425">
        <ele>612.02</ele>
        <time>2016-09-28T09:49:02Z</time>
      </trkpt>
      <trkpt lat="43.6369" lon="6.6341">
        <ele>611.06</ele>
        <time>2016-09-28T09:49:15Z</time>
      </trkpt>
      <trkpt lat="43.63687" lon="6.63403">
        <ele>610.57</ele>
        <time>2016-09-28T09:49:19Z</time>
      </trkpt>
      <trkpt lat="43.63676" lon="6.63389">
        <ele>609.13</ele>
        <time>2016-09-28T09:49:34Z</time>
      </trkpt>
      <trkpt lat="43.63664" lon="6.63392">
        <ele>607.69</ele>
        <time>2016-09-28T09:49:45Z</time>
      </trkpt>
      <trkpt lat="43.63652" lon="6.63398">
        <ele>606.25</ele>
        <time>2016-09-28T09:49:58Z</time>
      </trkpt>
      <trkpt lat="43.63648" lon="6.63399">
        <ele>606.25</ele>
        <time>2016-09-28T09:50:01Z</time>
      </trkpt>
      <trkpt lat="43.63632" lon="6.63393">
        <ele>604.33</ele>
        <time>2016-09-28T09:50:16Z</time>
      </trkpt>
      <trkpt lat="43.63618" lon="6.63382">
        <ele>604.33</ele>
        <time>2016-09-28T09:50:29Z</time>
      </trkpt>
      <trkpt lat="43.63611" lon="6.63376">
        <ele>605.77</ele>
        <time>2016-09-28T09:50:40Z</time>
      </trkpt>
      <trkpt lat="43.63609" lon="6.63369">
        <ele>605.29</ele>
        <time>2016-09-28T09:50:47Z</time>
      </trkpt>
      <trkpt lat="43.63604" lon="6.6335">
        <ele>606.73</ele>
        <time>2016-09-28T09:51:00Z</time>
      </trkpt>
      <trkpt lat="43.63598" lon="6.63327">
        <ele>608.65</ele>
        <time>2016-09-28T09:51:16Z</time>
      </trkpt>
      <trkpt lat="43.63593" lon="6.63306">
        <ele>610.09</ele>
        <time>2016-09-28T09:51:31Z</time>
      </trkpt>
      <trkpt lat="43.63591" lon="6.63305">
        <ele>610.09</ele>
        <time>2016-09-28T09:51:50Z</time>
      </trkpt>
      <trkpt lat="43.63591" lon="6.63304">
        <ele>610.09</ele>
        <time>2016-09-28T09:52:19Z</time>
      </trkpt>
      <trkpt lat="43.63589" lon="6.63288">
        <ele>611.54</ele>
        <time>2016-09-28T09:52:33Z</time>
      </trkpt>
      <trkpt lat="43.63586" lon="6.63276">
        <ele>612.02</ele>
        <time>2016-09-28T09:52:41Z</time>
      </trkpt>
      <trkpt lat="43.63582" lon="6.63259">
        <ele>613.94</ele>
        <time>2016-09-28T09:52:56Z</time>
      </trkpt>
      <trkpt lat="43.6358" lon="6.63257">
        <ele>615.38</ele>
        <time>2016-09-28T09:53:18Z</time>
      </trkpt>
      <trkpt lat="43.63579" lon="6.63257">
        <ele>615.38</ele>
        <time>2016-09-28T09:53:46Z</time>
      </trkpt>
      <trkpt lat="43.63579" lon="6.63257">
        <ele>615.38</ele>
        <time>2016-09-28T09:54:13Z</time>
      </trkpt>
      <trkpt lat="43.63578" lon="6.63256">
        <ele>615.86</ele>
        <time>2016-09-28T09:54:43Z</time>
      </trkpt>
      <trkpt lat="43.63578" lon="6.63256">
        <ele>616.34</ele>
        <time>2016-09-28T09:55:06Z</time>
      </trkpt>
      <trkpt lat="43.63576" lon="6.6326">
        <ele>615.86</ele>
        <time>2016-09-28T09:55:21Z</time>
      </trkpt>
      <trkpt lat="43.63577" lon="6.63262">
        <ele>616.34</ele>
        <time>2016-09-28T09:55:29Z</time>
      </trkpt>
      <trkpt lat="43.63585" lon="6.63265">
        <ele>618.26</ele>
        <time>2016-09-28T09:55:43Z</time>
      </trkpt>
      <trkpt lat="43.6359" lon="6.63246">
        <ele>621.15</ele>
        <time>2016-09-28T09:55:58Z</time>
      </trkpt>
      <trkpt lat="43.6359" lon="6.63243">
        <ele>624.03</ele>
        <time>2016-09-28T09:56:14Z</time>
      </trkpt>
      <trkpt lat="43.63593" lon="6.63249">
        <ele>625.47</ele>
        <time>2016-09-28T09:56:27Z</time>
      </trkpt>
      <trkpt lat="43.63602" lon="6.63242">
        <ele>627.88</ele>
        <time>2016-09-28T09:56:42Z</time>
      </trkpt>
      <trkpt lat="43.63598" lon="6.63227">
        <ele>629.8</ele>
        <time>2016-09-28T09:56:56Z</time>
      </trkpt>
      <trkpt lat="43.63598" lon="6.63217">
        <ele>632.2</ele>
        <time>2016-09-28T09:57:11Z</time>
      </trkpt>
      <trkpt lat="43.63599" lon="6.6322">
        <ele>634.13</ele>
        <time>2016-09-28T09:57:27Z</time>
      </trkpt>
      <trkpt lat="43.63607" lon="6.6322">
        <ele>636.05</ele>
        <time>2016-09-28T09:57:43Z</time>
      </trkpt>
      <trkpt lat="43.63614" lon="6.63222">
        <ele>637.97</ele>
        <time>2016-09-28T09:57:56Z</time>
      </trkpt>
      <trkpt lat="43.63617" lon="6.63206">
        <ele>639.41</ele>
        <time>2016-09-28T09:58:10Z</time>
      </trkpt>
      <trkpt lat="43.63614" lon="6.6319">
        <ele>641.34</ele>
        <time>2016-09-28T09:58:25Z</time>
      </trkpt>
      <trkpt lat="43.63614" lon="6.63188">
        <ele>643.74</ele>
        <time>2016-09-28T09:58:39Z</time>
      </trkpt>
      <trkpt lat="43.63618" lon="6.63193">
        <ele>645.18</ele>
        <time>2016-09-28T09:58:50Z</time>
      </trkpt>
      <trkpt lat="43.63626" lon="6.63182">
        <ele>646.14</ele>
        <time>2016-09-28T09:59:02Z</time>
      </trkpt>
      <trkpt lat="43.63627" lon="6.63171">
        <ele>648.55</ele>
        <time>2016-09-28T09:59:15Z</time>
      </trkpt>
      <trkpt lat="43.63623" lon="6.63164">
        <ele>650.95</ele>
        <time>2016-09-28T09:59:33Z</time>
      </trkpt>
      <trkpt lat="43.63625" lon="6.63154">
        <ele>652.39</ele>
        <time>2016-09-28T09:59:46Z</time>
      </trkpt>
      <trkpt lat="43.63628" lon="6.63139">
        <ele>654.31</ele>
        <time>2016-09-28T10:00:03Z</time>
      </trkpt>
      <trkpt lat="43.63624" lon="6.63126">
        <ele>656.24</ele>
        <time>2016-09-28T10:00:21Z</time>
      </trkpt>
      <trkpt lat="43.63623" lon="6.63119">
        <ele>657.68</ele>
        <time>2016-09-28T10:00:33Z</time>
      </trkpt>
      <trkpt lat="43.6362" lon="6.63109">
        <ele>658.64</ele>
        <time>2016-09-28T10:00:44Z</time>
      </trkpt>
      <trkpt lat="43.63614" lon="6.63101">
        <ele>659.6</ele>
        <time>2016-09-28T10:00:58Z</time>
      </trkpt>
      <trkpt lat="43.63609" lon="6.63085">
        <ele>661.04</ele>
        <time>2016-09-28T10:01:13Z</time>
      </trkpt>
      <trkpt lat="43.63605" lon="6.63073">
        <ele>662.49</ele>
        <time>2016-09-28T10:01:30Z</time>
      </trkpt>
      <trkpt lat="43.63602" lon="6.6306">
        <ele>664.41</ele>
        <time>2016-09-28T10:01:46Z</time>
      </trkpt>
      <trkpt lat="43.63598" lon="6.63051">
        <ele>665.37</ele>
        <time>2016-09-28T10:02:01Z</time>
      </trkpt>
      <trkpt lat="43.63597" lon="6.63041">
        <ele>667.29</ele>
        <time>2016-09-28T10:02:16Z</time>
      </trkpt>
      <trkpt lat="43.636" lon="6.63032">
        <ele>668.73</ele>
        <time>2016-09-28T10:02:30Z</time>
      </trkpt>
      <trkpt lat="43.63601" lon="6.63018">
        <ele>670.66</ele>
        <time>2016-09-28T10:02:45Z</time>
      </trkpt>
      <trkpt lat="43.63602" lon="6.63005">
        <ele>672.58</ele>
        <time>2016-09-28T10:02:58Z</time>
      </trkpt>
      <trkpt lat="43.63604" lon="6.62996">
        <ele>674.98</ele>
        <time>2016-09-28T10:03:11Z</time>
      </trkpt>
      <trkpt lat="43.63601" lon="6.62987">
        <ele>677.39</ele>
        <time>2016-09-28T10:03:24Z</time>
      </trkpt>
      <trkpt lat="43.63595" lon="6.62973">
        <ele>678.83</ele>
        <time>2016-09-28T10:03:38Z</time>
      </trkpt>
      <trkpt lat="43.63589" lon="6.62969">
        <ele>680.75</ele>
        <time>2016-09-28T10:03:50Z</time>
      </trkpt>
      <trkpt lat="43.63584" lon="6.62959">
        <ele>682.19</ele>
        <time>2016-09-28T10:04:05Z</time>
      </trkpt>
      <trkpt lat="43.63576" lon="6.62949">
        <ele>683.63</ele>
        <time>2016-09-28T10:04:20Z</time>
      </trkpt>
      <trkpt lat="43.63568" lon="6.62937">
        <ele>685.56</ele>
        <time>2016-09-28T10:04:35Z</time>
      </trkpt>
      <trkpt lat="43.6356" lon="6.62929">
        <ele>687</ele>
        <time>2016-09-28T10:04:50Z</time>
      </trkpt>
      <trkpt lat="43.63552" lon="6.62921">
        <ele>688.44</ele>
        <time>2016-09-28T10:05:03Z</time>
      </trkpt>
      <trkpt lat="43.63548" lon="6.62913">
        <ele>689.88</ele>
        <time>2016-09-28T10:05:19Z</time>
      </trkpt>
      <trkpt lat="43.63547" lon="6.62908">
        <ele>691.81</ele>
        <time>2016-09-28T10:05:34Z</time>
      </trkpt>
      <trkpt lat="43.63544" lon="6.62904">
        <ele>692.29</ele>
        <time>2016-09-28T10:06:02Z</time>
      </trkpt>
      <trkpt lat="43.63532" lon="6.62893">
        <ele>694.21</ele>
        <time>2016-09-28T10:06:17Z</time>
      </trkpt>
      <trkpt lat="43.63526" lon="6.62881">
        <ele>695.17</ele>
        <time>2016-09-28T10:06:34Z</time>
      </trkpt>
      <trkpt lat="43.63519" lon="6.62872">
        <ele>697.09</ele>
        <time>2016-09-28T10:06:50Z</time>
      </trkpt>
      <trkpt lat="43.63515" lon="6.62863">
        <ele>698.53</ele>
        <time>2016-09-28T10:07:05Z</time>
      </trkpt>
      <trkpt lat="43.63509" lon="6.62851">
        <ele>699.98</ele>
        <time>2016-09-28T10:07:19Z</time>
      </trkpt>
      <trkpt lat="43.63502" lon="6.62843">
        <ele>701.9</ele>
        <time>2016-09-28T10:07:34Z</time>
      </trkpt>
      <trkpt lat="43.63495" lon="6.62832">
        <ele>703.82</ele>
        <time>2016-09-28T10:07:51Z</time>
      </trkpt>
      <trkpt lat="43.63488" lon="6.62822">
        <ele>705.75</ele>
        <time>2016-09-28T10:08:07Z</time>
      </trkpt>
      <trkpt lat="43.63485" lon="6.62818">
        <ele>706.71</ele>
        <time>2016-09-28T10:08:25Z</time>
      </trkpt>
      <trkpt lat="43.63484" lon="6.62817">
        <ele>706.71</ele>
        <time>2016-09-28T10:08:48Z</time>
      </trkpt>
      <trkpt lat="43.63484" lon="6.62817">
        <ele>706.71</ele>
        <time>2016-09-28T10:09:21Z</time>
      </trkpt>
      <trkpt lat="43.63484" lon="6.62816">
        <ele>706.71</ele>
        <time>2016-09-28T10:09:54Z</time>
      </trkpt>
      <trkpt lat="43.63483" lon="6.62817">
        <ele>706.71</ele>
        <time>2016-09-28T10:10:25Z</time>
      </trkpt>
      <trkpt lat="43.63482" lon="6.62811">
        <ele>707.19</ele>
        <time>2016-09-28T10:10:52Z</time>
      </trkpt>
      <trkpt lat="43.63483" lon="6.62806">
        <ele>709.59</ele>
        <time>2016-09-28T10:11:05Z</time>
      </trkpt>
      <trkpt lat="43.63492" lon="6.6279">
        <ele>711.99</ele>
        <time>2016-09-28T10:11:21Z</time>
      </trkpt>
      <trkpt lat="43.63495" lon="6.62784">
        <ele>713.44</ele>
        <time>2016-09-28T10:11:32Z</time>
      </trkpt>
      <trkpt lat="43.63499" lon="6.62781">
        <ele>715.36</ele>
        <time>2016-09-28T10:11:45Z</time>
      </trkpt>
      <trkpt lat="43.63503" lon="6.62771">
        <ele>717.28</ele>
        <time>2016-09-28T10:11:59Z</time>
      </trkpt>
      <trkpt lat="43.63506" lon="6.62765">
        <ele>719.68</ele>
        <time>2016-09-28T10:12:15Z</time>
      </trkpt>
      <trkpt lat="43.63509" lon="6.62757">
        <ele>721.13</ele>
        <time>2016-09-28T10:12:32Z</time>
      </trkpt>
      <trkpt lat="43.63512" lon="6.62757">
        <ele>721.61</ele>
        <time>2016-09-28T10:13:01Z</time>
      </trkpt>
      <trkpt lat="43.63512" lon="6.62755">
        <ele>722.09</ele>
        <time>2016-09-28T10:13:27Z</time>
      </trkpt>
      <trkpt lat="43.63515" lon="6.6275">
        <ele>722.09</ele>
        <time>2016-09-28T10:14:00Z</time>
      </trkpt>
      <trkpt lat="43.63515" lon="6.62749">
        <ele>722.09</ele>
        <time>2016-09-28T10:14:36Z</time>
      </trkpt>
      <trkpt lat="43.63514" lon="6.62748">
        <ele>722.09</ele>
        <time>2016-09-28T10:15:17Z</time>
      </trkpt>
      <trkpt lat="43.63514" lon="6.62747">
        <ele>722.09</ele>
        <time>2016-09-28T10:15:53Z</time>
      </trkpt>
      <trkpt lat="43.63514" lon="6.62746">
        <ele>722.57</ele>
        <time>2016-09-28T10:16:28Z</time>
      </trkpt>
      <trkpt lat="43.63516" lon="6.62746">
        <ele>722.57</ele>
        <time>2016-09-28T10:17:03Z</time>
      </trkpt>
      <trkpt lat="43.63516" lon="6.62745">
        <ele>723.05</ele>
        <time>2016-09-28T10:17:32Z</time>
      </trkpt>
      <trkpt lat="43.6352" lon="6.62736">
        <ele>724.49</ele>
        <time>2016-09-28T10:17:44Z</time>
      </trkpt>
      <trkpt lat="43.63524" lon="6.62723">
        <ele>726.41</ele>
        <time>2016-09-28T10:17:59Z</time>
      </trkpt>
      <trkpt lat="43.63531" lon="6.62714">
        <ele>728.82</ele>
        <time>2016-09-28T10:18:15Z</time>
      </trkpt>
      <trkpt lat="43.63536" lon="6.62712">
        <ele>731.22</ele>
        <time>2016-09-28T10:18:30Z</time>
      </trkpt>
      <trkpt lat="43.63541" lon="6.62717">
        <ele>733.14</ele>
        <time>2016-09-28T10:18:45Z</time>
      </trkpt>
      <trkpt lat="43.63547" lon="6.62727">
        <ele>734.58</ele>
        <time>2016-09-28T10:18:57Z</time>
      </trkpt>
      <trkpt lat="43.63555" lon="6.62738">
        <ele>736.51</ele>
        <time>2016-09-28T10:19:11Z</time>
      </trkpt>
      <trkpt lat="43.63565" lon="6.62733">
        <ele>737.95</ele>
        <time>2016-09-28T10:19:23Z</time>
      </trkpt>
      <trkpt lat="43.63573" lon="6.6273">
        <ele>739.39</ele>
        <time>2016-09-28T10:19:36Z</time>
      </trkpt>
      <trkpt lat="43.6358" lon="6.6273">
        <ele>740.83</ele>
        <time>2016-09-28T10:19:49Z</time>
      </trkpt>
      <trkpt lat="43.6359" lon="6.62726">
        <ele>742.28</ele>
        <time>2016-09-28T10:20:02Z</time>
      </trkpt>
      <trkpt lat="43.63595" lon="6.62728">
        <ele>743.72</ele>
        <time>2016-09-28T10:20:12Z</time>
      </trkpt>
      <trkpt lat="43.63603" lon="6.62732">
        <ele>744.68</ele>
        <time>2016-09-28T10:20:24Z</time>
      </trkpt>
      <trkpt lat="43.6361" lon="6.62741">
        <ele>747.08</ele>
        <time>2016-09-28T10:20:36Z</time>
      </trkpt>
      <trkpt lat="43.63616" lon="6.62743">
        <ele>748.52</ele>
        <time>2016-09-28T10:20:48Z</time>
      </trkpt>
      <trkpt lat="43.63619" lon="6.62752">
        <ele>750.45</ele>
        <time>2016-09-28T10:21:01Z</time>
      </trkpt>
      <trkpt lat="43.63629" lon="6.62759">
        <ele>752.37</ele>
        <time>2016-09-28T10:21:17Z</time>
      </trkpt>
      <trkpt lat="43.63638" lon="6.62756">
        <ele>754.77</ele>
        <time>2016-09-28T10:21:32Z</time>
      </trkpt>
      <trkpt lat="43.63646" lon="6.62754">
        <ele>756.21</ele>
        <time>2016-09-28T10:21:45Z</time>
      </trkpt>
      <trkpt lat="43.6365" lon="6.62739">
        <ele>759.1</ele>
        <time>2016-09-28T10:22:03Z</time>
      </trkpt>
      <trkpt lat="43.63647" lon="6.62728">
        <ele>761.02</ele>
        <time>2016-09-28T10:22:20Z</time>
      </trkpt>
      <trkpt lat="43.63647" lon="6.62718">
        <ele>762.94</ele>
        <time>2016-09-28T10:22:37Z</time>
      </trkpt>
      <trkpt lat="43.63648" lon="6.62711">
        <ele>764.87</ele>
        <time>2016-09-28T10:22:52Z</time>
      </trkpt>
      <trkpt lat="43.63648" lon="6.62701">
        <ele>767.27</ele>
        <time>2016-09-28T10:23:07Z</time>
      </trkpt>
      <trkpt lat="43.63652" lon="6.62699">
        <ele>769.19</ele>
        <time>2016-09-28T10:23:21Z</time>
      </trkpt>
      <trkpt lat="43.63658" lon="6.62685">
        <ele>772.08</ele>
        <time>2016-09-28T10:23:37Z</time>
      </trkpt>
      <trkpt lat="43.6366" lon="6.6267">
        <ele>774</ele>
        <time>2016-09-28T10:23:51Z</time>
      </trkpt>
      <trkpt lat="43.6366" lon="6.62669">
        <ele>774.96</ele>
        <time>2016-09-28T10:24:02Z</time>
      </trkpt>
      <trkpt lat="43.63658" lon="6.62659">
        <ele>775.44</ele>
        <time>2016-09-28T10:24:16Z</time>
      </trkpt>
      <trkpt lat="43.63656" lon="6.62659">
        <ele>775.92</ele>
        <time>2016-09-28T10:24:43Z</time>
      </trkpt>
      <trkpt lat="43.63654" lon="6.6266">
        <ele>775.92</ele>
        <time>2016-09-28T10:25:14Z</time>
      </trkpt>
      <trkpt lat="43.63653" lon="6.62661">
        <ele>775.92</ele>
        <time>2016-09-28T10:25:44Z</time>
      </trkpt>
      <trkpt lat="43.63652" lon="6.62662">
        <ele>775.92</ele>
        <time>2016-09-28T10:26:14Z</time>
      </trkpt>
      <trkpt lat="43.63652" lon="6.62662">
        <ele>776.4</ele>
        <time>2016-09-28T10:26:45Z</time>
      </trkpt>
      <trkpt lat="43.63651" lon="6.62665">
        <ele>776.4</ele>
        <time>2016-09-28T10:27:19Z</time>
      </trkpt>
      <trkpt lat="43.63651" lon="6.62665">
        <ele>776.4</ele>
        <time>2016-09-28T10:27:50Z</time>
      </trkpt>
      <trkpt lat="43.63652" lon="6.62666">
        <ele>776.88</ele>
        <time>2016-09-28T10:28:21Z</time>
      </trkpt>
      <trkpt lat="43.63653" lon="6.62666">
        <ele>776.88</ele>
        <time>2016-09-28T10:28:54Z</time>
      </trkpt>
      <trkpt lat="43.63654" lon="6.62667">
        <ele>777.84</ele>
        <time>2016-09-28T10:29:20Z</time>
      </trkpt>
      <trkpt lat="43.63654" lon="6.62667">
        <ele>777.36</ele>
        <time>2016-09-28T10:29:52Z</time>
      </trkpt>
      <trkpt lat="43.63654" lon="6.62667">
        <ele>781.69</ele>
        <time>2016-09-28T10:29:54Z</time>
      </trkpt>
      <trkpt lat="43.63654" lon="6.62667">
        <ele>777.36</ele>
        <time>2016-09-28T10:29:55Z</time>
      </trkpt>
      <trkpt lat="43.63654" lon="6.62665">
        <ele>777.36</ele>
        <time>2016-09-28T10:30:20Z</time>
      </trkpt>
      <trkpt lat="43.63655" lon="6.62664">
        <ele>776.88</ele>
        <time>2016-09-28T10:30:48Z</time>
      </trkpt>
      <trkpt lat="43.63652" lon="6.62663">
        <ele>776.88</ele>
        <time>2016-09-28T10:31:15Z</time>
      </trkpt>
      <trkpt lat="43.63652" lon="6.62665">
        <ele>777.36</ele>
        <time>2016-09-28T10:31:49Z</time>
      </trkpt>
      <trkpt lat="43.63651" lon="6.62665">
        <ele>777.84</ele>
        <time>2016-09-28T10:32:28Z</time>
      </trkpt>
      <trkpt lat="43.63652" lon="6.62665">
        <ele>777.84</ele>
        <time>2016-09-28T10:33:05Z</time>
      </trkpt>
      <trkpt lat="43.63652" lon="6.62666">
        <ele>777.84</ele>
        <time>2016-09-28T10:33:39Z</time>
      </trkpt>
      <trkpt lat="43.63652" lon="6.62666">
        <ele>777.84</ele>
        <time>2016-09-28T10:34:08Z</time>
      </trkpt>
      <trkpt lat="43.63652" lon="6.62665">
        <ele>777.84</ele>
        <time>2016-09-28T10:34:44Z</time>
      </trkpt>
      <trkpt lat="43.63653" lon="6.62666">
        <ele>777.84</ele>
        <time>2016-09-28T10:35:20Z</time>
      </trkpt>
      <trkpt lat="43.63653" lon="6.62665">
        <ele>778.32</ele>
        <time>2016-09-28T10:35:42Z</time>
      </trkpt>
      <trkpt lat="43.63653" lon="6.62665">
        <ele>778.81</ele>
        <time>2016-09-28T10:36:05Z</time>
      </trkpt>
      <trkpt lat="43.63656" lon="6.62655">
        <ele>780.73</ele>
        <time>2016-09-28T10:36:21Z</time>
      </trkpt>
      <trkpt lat="43.63658" lon="6.62641">
        <ele>783.13</ele>
        <time>2016-09-28T10:36:36Z</time>
      </trkpt>
      <trkpt lat="43.63659" lon="6.62618">
        <ele>786.02</ele>
        <time>2016-09-28T10:36:50Z</time>
      </trkpt>
      <trkpt lat="43.63662" lon="6.6259">
        <ele>788.9</ele>
        <time>2016-09-28T10:37:09Z</time>
      </trkpt>
      <trkpt lat="43.63661" lon="6.62583">
        <ele>790.34</ele>
        <time>2016-09-28T10:37:27Z</time>
      </trkpt>
      <trkpt lat="43.6366" lon="6.62581">
        <ele>790.34</ele>
        <time>2016-09-28T10:37:49Z</time>
      </trkpt>
      <trkpt lat="43.63661" lon="6.62581">
        <ele>790.34</ele>
        <time>2016-09-28T10:38:10Z</time>
      </trkpt>
      <trkpt lat="43.63661" lon="6.62578">
        <ele>790.34</ele>
        <time>2016-09-28T10:38:38Z</time>
      </trkpt>
      <trkpt lat="43.63658" lon="6.62564">
        <ele>788.42</ele>
        <time>2016-09-28T10:38:55Z</time>
      </trkpt>
      <trkpt lat="43.63659" lon="6.62552">
        <ele>786.98</ele>
        <time>2016-09-28T10:39:11Z</time>
      </trkpt>
      <trkpt lat="43.6365" lon="6.62534">
        <ele>784.57</ele>
        <time>2016-09-28T10:39:27Z</time>
      </trkpt>
      <trkpt lat="43.63639" lon="6.62529">
        <ele>782.65</ele>
        <time>2016-09-28T10:39:40Z</time>
      </trkpt>
      <trkpt lat="43.63626" lon="6.6253">
        <ele>779.29</ele>
        <time>2016-09-28T10:39:55Z</time>
      </trkpt>
      <trkpt lat="43.63624" lon="6.62524">
        <ele>777.36</ele>
        <time>2016-09-28T10:40:06Z</time>
      </trkpt>
      <trkpt lat="43.63623" lon="6.6252">
        <ele>775.92</ele>
        <time>2016-09-28T10:40:18Z</time>
      </trkpt>
      <trkpt lat="43.63621" lon="6.6252">
        <ele>775.92</ele>
        <time>2016-09-28T10:40:36Z</time>
      </trkpt>
      <trkpt lat="43.6362" lon="6.6251">
        <ele>774.48</ele>
        <time>2016-09-28T10:40:53Z</time>
      </trkpt>
      <trkpt lat="43.63618" lon="6.62495">
        <ele>773.04</ele>
        <time>2016-09-28T10:41:07Z</time>
      </trkpt>
      <trkpt lat="43.63619" lon="6.62482">
        <ele>771.11</ele>
        <time>2016-09-28T10:41:21Z</time>
      </trkpt>
      <trkpt lat="43.63617" lon="6.62472">
        <ele>768.71</ele>
        <time>2016-09-28T10:41:35Z</time>
      </trkpt>
      <trkpt lat="43.63618" lon="6.62462">
        <ele>767.27</ele>
        <time>2016-09-28T10:41:52Z</time>
      </trkpt>
      <trkpt lat="43.63617" lon="6.62459">
        <ele>766.31</ele>
        <time>2016-09-28T10:42:07Z</time>
      </trkpt>
      <trkpt lat="43.63616" lon="6.62445">
        <ele>764.39</ele>
        <time>2016-09-28T10:42:21Z</time>
      </trkpt>
      <trkpt lat="43.63614" lon="6.62436">
        <ele>763.42</ele>
        <time>2016-09-28T10:42:38Z</time>
      </trkpt>
      <trkpt lat="43.63612" lon="6.62425">
        <ele>761.5</ele>
        <time>2016-09-28T10:42:50Z</time>
      </trkpt>
      <trkpt lat="43.63608" lon="6.62416">
        <ele>760.06</ele>
        <time>2016-09-28T10:43:03Z</time>
      </trkpt>
      <trkpt lat="43.6361" lon="6.62401">
        <ele>757.66</ele>
        <time>2016-09-28T10:43:23Z</time>
      </trkpt>
      <trkpt lat="43.6361" lon="6.62385">
        <ele>756.69</ele>
        <time>2016-09-28T10:43:40Z</time>
      </trkpt>
      <trkpt lat="43.6361" lon="6.62371">
        <ele>755.73</ele>
        <time>2016-09-28T10:43:54Z</time>
      </trkpt>
      <trkpt lat="43.63608" lon="6.62359">
        <ele>754.29</ele>
        <time>2016-09-28T10:44:07Z</time>
      </trkpt>
      <trkpt lat="43.636" lon="6.62349">
        <ele>751.89</ele>
        <time>2016-09-28T10:44:21Z</time>
      </trkpt>
      <trkpt lat="43.63599" lon="6.62348">
        <ele>751.89</ele>
        <time>2016-09-28T10:44:41Z</time>
      </trkpt>
      <trkpt lat="43.63597" lon="6.62345">
        <ele>751.89</ele>
        <time>2016-09-28T10:45:18Z</time>
      </trkpt>
      <trkpt lat="43.63596" lon="6.62346">
        <ele>751.89</ele>
        <time>2016-09-28T10:45:54Z</time>
      </trkpt>
      <trkpt lat="43.63595" lon="6.62346">
        <ele>751.89</ele>
        <time>2016-09-28T10:46:29Z</time>
      </trkpt>
      <trkpt lat="43.63594" lon="6.62344">
        <ele>751.89</ele>
        <time>2016-09-28T10:46:57Z</time>
      </trkpt>
      <trkpt lat="43.63593" lon="6.62344">
        <ele>751.89</ele>
        <time>2016-09-28T10:47:27Z</time>
      </trkpt>
      <trkpt lat="43.63589" lon="6.62335">
        <ele>749</ele>
        <time>2016-09-28T10:47:42Z</time>
      </trkpt>
      <trkpt lat="43.63582" lon="6.62322">
        <ele>745.64</ele>
        <time>2016-09-28T10:47:53Z</time>
      </trkpt>
      <trkpt lat="43.63577" lon="6.62307">
        <ele>743.24</ele>
        <time>2016-09-28T10:48:03Z</time>
      </trkpt>
      <trkpt lat="43.63569" lon="6.62296">
        <ele>739.39</ele>
        <time>2016-09-28T10:48:13Z</time>
      </trkpt>
      <trkpt lat="43.63568" lon="6.62295">
        <ele>739.39</ele>
        <time>2016-09-28T10:48:14Z</time>
      </trkpt>
      <trkpt lat="43.63564" lon="6.62287">
        <ele>737.95</ele>
        <time>2016-09-28T10:48:20Z</time>
      </trkpt>
      <trkpt lat="43.63554" lon="6.62274">
        <ele>734.1</ele>
        <time>2016-09-28T10:48:34Z</time>
      </trkpt>
      <trkpt lat="43.63549" lon="6.62256">
        <ele>730.74</ele>
        <time>2016-09-28T10:48:48Z</time>
      </trkpt>
      <trkpt lat="43.6354" lon="6.62236">
        <ele>727.86</ele>
        <time>2016-09-28T10:49:02Z</time>
      </trkpt>
      <trkpt lat="43.63534" lon="6.62225">
        <ele>724.97</ele>
        <time>2016-09-28T10:49:13Z</time>
      </trkpt>
      <trkpt lat="43.63533" lon="6.62216">
        <ele>723.53</ele>
        <time>2016-09-28T10:49:19Z</time>
      </trkpt>
      <trkpt lat="43.6353" lon="6.62201">
        <ele>720.65</ele>
        <time>2016-09-28T10:49:33Z</time>
      </trkpt>
      <trkpt lat="43.63521" lon="6.6217">
        <ele>718.24</ele>
        <time>2016-09-28T10:49:50Z</time>
      </trkpt>
      <trkpt lat="43.63515" lon="6.62149">
        <ele>716.8</ele>
        <time>2016-09-28T10:50:07Z</time>
      </trkpt>
      <trkpt lat="43.63513" lon="6.62135">
        <ele>717.28</ele>
        <time>2016-09-28T10:50:17Z</time>
      </trkpt>
      <trkpt lat="43.63511" lon="6.62114">
        <ele>717.28</ele>
        <time>2016-09-28T10:50:35Z</time>
      </trkpt>
      <trkpt lat="43.63508" lon="6.62093">
        <ele>716.8</ele>
        <time>2016-09-28T10:50:51Z</time>
      </trkpt>
      <trkpt lat="43.63503" lon="6.62085">
        <ele>715.84</ele>
        <time>2016-09-28T10:51:08Z</time>
      </trkpt>
      <trkpt lat="43.635" lon="6.62082">
        <ele>715.36</ele>
        <time>2016-09-28T10:51:20Z</time>
      </trkpt>
      <trkpt lat="43.63486" lon="6.62075">
        <ele>712.47</ele>
        <time>2016-09-28T10:51:35Z</time>
      </trkpt>
      <trkpt lat="43.63481" lon="6.62087">
        <ele>710.07</ele>
        <time>2016-09-28T10:51:46Z</time>
      </trkpt>
      <trkpt lat="43.63477" lon="6.62097">
        <ele>708.15</ele>
        <time>2016-09-28T10:51:54Z</time>
      </trkpt>
      <trkpt lat="43.63474" lon="6.6211">
        <ele>705.75</ele>
        <time>2016-09-28T10:52:03Z</time>
      </trkpt>
      <trkpt lat="43.63465" lon="6.62124">
        <ele>702.86</ele>
        <time>2016-09-28T10:52:17Z</time>
      </trkpt>
      <trkpt lat="43.63463" lon="6.62134">
        <ele>702.38</ele>
        <time>2016-09-28T10:52:33Z</time>
      </trkpt>
      <trkpt lat="43.63463" lon="6.62135">
        <ele>701.9</ele>
        <time>2016-09-28T10:52:55Z</time>
      </trkpt>
      <trkpt lat="43.63464" lon="6.62135">
        <ele>701.9</ele>
        <time>2016-09-28T10:53:18Z</time>
      </trkpt>
      <trkpt lat="43.63464" lon="6.62135">
        <ele>701.9</ele>
        <time>2016-09-28T10:53:53Z</time>
      </trkpt>
      <trkpt lat="43.63463" lon="6.62136">
        <ele>701.9</ele>
        <time>2016-09-28T10:54:20Z</time>
      </trkpt>
      <trkpt lat="43.63458" lon="6.62136">
        <ele>700.46</ele>
        <time>2016-09-28T10:54:34Z</time>
      </trkpt>
      <trkpt lat="43.63454" lon="6.62131">
        <ele>698.53</ele>
        <time>2016-09-28T10:54:41Z</time>
      </trkpt>
      <trkpt lat="43.63452" lon="6.62127">
        <ele>698.05</ele>
        <time>2016-09-28T10:54:49Z</time>
      </trkpt>
      <trkpt lat="43.63451" lon="6.62123">
        <ele>697.57</ele>
        <time>2016-09-28T10:54:52Z</time>
      </trkpt>
      <trkpt lat="43.63448" lon="6.6211">
        <ele>696.13</ele>
        <time>2016-09-28T10:55:05Z</time>
      </trkpt>
      <trkpt lat="43.63444" lon="6.6209">
        <ele>695.65</ele>
        <time>2016-09-28T10:55:21Z</time>
      </trkpt>
      <trkpt lat="43.63443" lon="6.62085">
        <ele>696.13</ele>
        <time>2016-09-28T10:55:25Z</time>
      </trkpt>
      <trkpt lat="43.63443" lon="6.62077">
        <ele>696.61</ele>
        <time>2016-09-28T10:55:30Z</time>
      </trkpt>
      <trkpt lat="43.63442" lon="6.62068">
        <ele>696.61</ele>
        <time>2016-09-28T10:55:35Z</time>
      </trkpt>
      <trkpt lat="43.63438" lon="6.62057">
        <ele>696.61</ele>
        <time>2016-09-28T10:55:44Z</time>
      </trkpt>
      <trkpt lat="43.63426" lon="6.62036">
        <ele>695.17</ele>
        <time>2016-09-28T10:55:59Z</time>
      </trkpt>
      <trkpt lat="43.63416" lon="6.62022">
        <ele>693.73</ele>
        <time>2016-09-28T10:56:12Z</time>
      </trkpt>
      <trkpt lat="43.63411" lon="6.62017">
        <ele>692.29</ele>
        <time>2016-09-28T10:56:29Z</time>
      </trkpt>
      <trkpt lat="43.63411" lon="6.62008">
        <ele>692.29</ele>
        <time>2016-09-28T10:56:37Z</time>
      </trkpt>
      <trkpt lat="43.63414" lon="6.61998">
        <ele>692.77</ele>
        <time>2016-09-28T10:56:45Z</time>
      </trkpt>
      <trkpt lat="43.63418" lon="6.61987">
        <ele>692.77</ele>
        <time>2016-09-28T10:56:56Z</time>
      </trkpt>
      <trkpt lat="43.63424" lon="6.6197">
        <ele>693.25</ele>
        <time>2016-09-28T10:57:09Z</time>
      </trkpt>
      <trkpt lat="43.63426" lon="6.61956">
        <ele>693.73</ele>
        <time>2016-09-28T10:57:20Z</time>
      </trkpt>
      <trkpt lat="43.63426" lon="6.61945">
        <ele>695.17</ele>
        <time>2016-09-28T10:57:35Z</time>
      </trkpt>
      <trkpt lat="43.63427" lon="6.61939">
        <ele>695.17</ele>
        <time>2016-09-28T10:57:40Z</time>
      </trkpt>
      <trkpt lat="43.63422" lon="6.61921">
        <ele>697.09</ele>
        <time>2016-09-28T10:57:55Z</time>
      </trkpt>
      <trkpt lat="43.63419" lon="6.61906">
        <ele>699.5</ele>
        <time>2016-09-28T10:58:12Z</time>
      </trkpt>
      <trkpt lat="43.63421" lon="6.61902">
        <ele>699.98</ele>
        <time>2016-09-28T10:58:18Z</time>
      </trkpt>
      <trkpt lat="43.63427" lon="6.6189">
        <ele>701.42</ele>
        <time>2016-09-28T10:58:30Z</time>
      </trkpt>
      <trkpt lat="43.63433" lon="6.61883">
        <ele>701.9</ele>
        <time>2016-09-28T10:58:44Z</time>
      </trkpt>
      <trkpt lat="43.63439" lon="6.61882">
        <ele>702.86</ele>
        <time>2016-09-28T10:58:58Z</time>
      </trkpt>
      <trkpt lat="43.6344" lon="6.61882">
        <ele>702.86</ele>
        <time>2016-09-28T10:59:20Z</time>
      </trkpt>
      <trkpt lat="43.63441" lon="6.61881">
        <ele>703.34</ele>
        <time>2016-09-28T10:59:52Z</time>
      </trkpt>
      <trkpt lat="43.63446" lon="6.61878">
        <ele>703.82</ele>
        <time>2016-09-28T11:00:17Z</time>
      </trkpt>
      <trkpt lat="43.63453" lon="6.61875">
        <ele>704.3</ele>
        <time>2016-09-28T11:00:24Z</time>
      </trkpt>
      <trkpt lat="43.63467" lon="6.61855">
        <ele>705.75</ele>
        <time>2016-09-28T11:00:41Z</time>
      </trkpt>
      <trkpt lat="43.63475" lon="6.61835">
        <ele>707.67</ele>
        <time>2016-09-28T11:00:56Z</time>
      </trkpt>
      <trkpt lat="43.63477" lon="6.61824">
        <ele>710.07</ele>
        <time>2016-09-28T11:01:09Z</time>
      </trkpt>
      <trkpt lat="43.63481" lon="6.61803">
        <ele>712.47</ele>
        <time>2016-09-28T11:01:26Z</time>
      </trkpt>
      <trkpt lat="43.63486" lon="6.61777">
        <ele>715.36</ele>
        <time>2016-09-28T11:01:45Z</time>
      </trkpt>
      <trkpt lat="43.63485" lon="6.61757">
        <ele>716.8</ele>
        <time>2016-09-28T11:01:59Z</time>
      </trkpt>
      <trkpt lat="43.63467" lon="6.61739">
        <ele>717.76</ele>
        <time>2016-09-28T11:02:17Z</time>
      </trkpt>
      <trkpt lat="43.63458" lon="6.61734">
        <ele>717.76</ele>
        <time>2016-09-28T11:02:25Z</time>
      </trkpt>
      <trkpt lat="43.63444" lon="6.61726">
        <ele>717.76</ele>
        <time>2016-09-28T11:02:43Z</time>
      </trkpt>
      <trkpt lat="43.63442" lon="6.61724">
        <ele>718.24</ele>
        <time>2016-09-28T11:02:46Z</time>
      </trkpt>
      <trkpt lat="43.63433" lon="6.61708">
        <ele>720.16</ele>
        <time>2016-09-28T11:03:04Z</time>
      </trkpt>
      <trkpt lat="43.63422" lon="6.61691">
        <ele>720.65</ele>
        <time>2016-09-28T11:03:21Z</time>
      </trkpt>
      <trkpt lat="43.6341" lon="6.61677">
        <ele>722.57</ele>
        <time>2016-09-28T11:03:38Z</time>
      </trkpt>
      <trkpt lat="43.63404" lon="6.61663">
        <ele>724.01</ele>
        <time>2016-09-28T11:03:54Z</time>
      </trkpt>
      <trkpt lat="43.63408" lon="6.6165">
        <ele>725.45</ele>
        <time>2016-09-28T11:04:05Z</time>
      </trkpt>
      <trkpt lat="43.63412" lon="6.61635">
        <ele>725.93</ele>
        <time>2016-09-28T11:04:19Z</time>
      </trkpt>
      <trkpt lat="43.63412" lon="6.61609">
        <ele>726.41</ele>
        <time>2016-09-28T11:04:36Z</time>
      </trkpt>
      <trkpt lat="43.63408" lon="6.61578">
        <ele>727.37</ele>
        <time>2016-09-28T11:04:54Z</time>
      </trkpt>
      <trkpt lat="43.63394" lon="6.61558">
        <ele>728.34</ele>
        <time>2016-09-28T11:05:11Z</time>
      </trkpt>
      <trkpt lat="43.63392" lon="6.61555">
        <ele>728.34</ele>
        <time>2016-09-28T11:05:15Z</time>
      </trkpt>
      <trkpt lat="43.63388" lon="6.61549">
        <ele>728.82</ele>
        <time>2016-09-28T11:05:20Z</time>
      </trkpt>
      <trkpt lat="43.63378" lon="6.61535">
        <ele>729.3</ele>
        <time>2016-09-28T11:05:35Z</time>
      </trkpt>
      <trkpt lat="43.6337" lon="6.61529">
        <ele>729.78</ele>
        <time>2016-09-28T11:05:42Z</time>
      </trkpt>
      <trkpt lat="43.63359" lon="6.61516">
        <ele>731.7</ele>
        <time>2016-09-28T11:05:58Z</time>
      </trkpt>
      <trkpt lat="43.63352" lon="6.61497">
        <ele>734.58</ele>
        <time>2016-09-28T11:06:16Z</time>
      </trkpt>
      <trkpt lat="43.63351" lon="6.61477">
        <ele>736.03</ele>
        <time>2016-09-28T11:06:31Z</time>
      </trkpt>
      <trkpt lat="43.63348" lon="6.6146">
        <ele>736.99</ele>
        <time>2016-09-28T11:06:46Z</time>
      </trkpt>
      <trkpt lat="43.63345" lon="6.61453">
        <ele>736.99</ele>
        <time>2016-09-28T11:06:52Z</time>
      </trkpt>
      <trkpt lat="43.63334" lon="6.61431">
        <ele>737.95</ele>
        <time>2016-09-28T11:07:09Z</time>
      </trkpt>
      <trkpt lat="43.63337" lon="6.61408">
        <ele>738.91</ele>
        <time>2016-09-28T11:07:26Z</time>
      </trkpt>
      <trkpt lat="43.63342" lon="6.61389">
        <ele>741.31</ele>
        <time>2016-09-28T11:07:42Z</time>
      </trkpt>
      <trkpt lat="43.63349" lon="6.61373">
        <ele>742.76</ele>
        <time>2016-09-28T11:07:57Z</time>
      </trkpt>
      <trkpt lat="43.6335" lon="6.61365">
        <ele>742.76</ele>
        <time>2016-09-28T11:08:03Z</time>
      </trkpt>
      <trkpt lat="43.63353" lon="6.61342">
        <ele>742.76</ele>
        <time>2016-09-28T11:08:17Z</time>
      </trkpt>
      <trkpt lat="43.63351" lon="6.61322">
        <ele>742.28</ele>
        <time>2016-09-28T11:08:32Z</time>
      </trkpt>
      <trkpt lat="43.63355" lon="6.61299">
        <ele>742.28</ele>
        <time>2016-09-28T11:08:46Z</time>
      </trkpt>
      <trkpt lat="43.63351" lon="6.61281">
        <ele>742.76</ele>
        <time>2016-09-28T11:09:00Z</time>
      </trkpt>
      <trkpt lat="43.63349" lon="6.61258">
        <ele>743.24</ele>
        <time>2016-09-28T11:09:15Z</time>
      </trkpt>
      <trkpt lat="43.63349" lon="6.61252">
        <ele>743.24</ele>
        <time>2016-09-28T11:09:21Z</time>
      </trkpt>
      <trkpt lat="43.63349" lon="6.61249">
        <ele>743.72</ele>
        <time>2016-09-28T11:09:23Z</time>
      </trkpt>
      <trkpt lat="43.63348" lon="6.61244">
        <ele>744.68</ele>
        <time>2016-09-28T11:09:29Z</time>
      </trkpt>
      <trkpt lat="43.63346" lon="6.6122">
        <ele>745.64</ele>
        <time>2016-09-28T11:09:44Z</time>
      </trkpt>
      <trkpt lat="43.63346" lon="6.61217">
        <ele>745.64</ele>
        <time>2016-09-28T11:10:02Z</time>
      </trkpt>
      <trkpt lat="43.63344" lon="6.61215">
        <ele>745.64</ele>
        <time>2016-09-28T11:10:32Z</time>
      </trkpt>
      <trkpt lat="43.63343" lon="6.61216">
        <ele>745.64</ele>
        <time>2016-09-28T11:10:59Z</time>
      </trkpt>
      <trkpt lat="43.63345" lon="6.61208">
        <ele>745.64</ele>
        <time>2016-09-28T11:11:17Z</time>
      </trkpt>
      <trkpt lat="43.63339" lon="6.61189">
        <ele>745.64</ele>
        <time>2016-09-28T11:11:32Z</time>
      </trkpt>
      <trkpt lat="43.63335" lon="6.61183">
        <ele>745.64</ele>
        <time>2016-09-28T11:11:49Z</time>
      </trkpt>
      <trkpt lat="43.63335" lon="6.61181">
        <ele>745.64</ele>
        <time>2016-09-28T11:12:08Z</time>
      </trkpt>
      <trkpt lat="43.63328" lon="6.61167">
        <ele>746.12</ele>
        <time>2016-09-28T11:12:22Z</time>
      </trkpt>
      <trkpt lat="43.63325" lon="6.61152">
        <ele>746.12</ele>
        <time>2016-09-28T11:12:31Z</time>
      </trkpt>
      <trkpt lat="43.63325" lon="6.61133">
        <ele>746.12</ele>
        <time>2016-09-28T11:12:42Z</time>
      </trkpt>
      <trkpt lat="43.6332" lon="6.61119">
        <ele>746.12</ele>
        <time>2016-09-28T11:12:51Z</time>
      </trkpt>
      <trkpt lat="43.63316" lon="6.61113">
        <ele>746.12</ele>
        <time>2016-09-28T11:12:56Z</time>
      </trkpt>
      <trkpt lat="43.63314" lon="6.61111">
        <ele>746.6</ele>
        <time>2016-09-28T11:12:58Z</time>
      </trkpt>
      <trkpt lat="43.63305" lon="6.61091">
        <ele>747.56</ele>
        <time>2016-09-28T11:13:13Z</time>
      </trkpt>
      <trkpt lat="43.63299" lon="6.61089">
        <ele>747.56</ele>
        <time>2016-09-28T11:13:17Z</time>
      </trkpt>
      <trkpt lat="43.63296" lon="6.61088">
        <ele>747.56</ele>
        <time>2016-09-28T11:13:20Z</time>
      </trkpt>
      <trkpt lat="43.63288" lon="6.61088">
        <ele>747.08</ele>
        <time>2016-09-28T11:13:26Z</time>
      </trkpt>
      <trkpt lat="43.63278" lon="6.61077">
        <ele>746.6</ele>
        <time>2016-09-28T11:13:40Z</time>
      </trkpt>
      <trkpt lat="43.63275" lon="6.61065">
        <ele>746.6</ele>
        <time>2016-09-28T11:13:51Z</time>
      </trkpt>
      <trkpt lat="43.6327" lon="6.6105">
        <ele>746.6</ele>
        <time>2016-09-28T11:14:02Z</time>
      </trkpt>
      <trkpt lat="43.63263" lon="6.61029">
        <ele>747.08</ele>
        <time>2016-09-28T11:14:16Z</time>
      </trkpt>
      <trkpt lat="43.63253" lon="6.61008">
        <ele>747.08</ele>
        <time>2016-09-28T11:14:31Z</time>
      </trkpt>
      <trkpt lat="43.63247" lon="6.60991">
        <ele>747.56</ele>
        <time>2016-09-28T11:14:45Z</time>
      </trkpt>
      <trkpt lat="43.63232" lon="6.60968">
        <ele>748.04</ele>
        <time>2016-09-28T11:15:02Z</time>
      </trkpt>
      <trkpt lat="43.63229" lon="6.60961">
        <ele>748.04</ele>
        <time>2016-09-28T11:15:07Z</time>
      </trkpt>
      <trkpt lat="43.63219" lon="6.60953">
        <ele>748.04</ele>
        <time>2016-09-28T11:15:17Z</time>
      </trkpt>
      <trkpt lat="43.63211" lon="6.60948">
        <ele>746.6</ele>
        <time>2016-09-28T11:15:25Z</time>
      </trkpt>
      <trkpt lat="43.63195" lon="6.60942">
        <ele>744.68</ele>
        <time>2016-09-28T11:15:41Z</time>
      </trkpt>
      <trkpt lat="43.63182" lon="6.60942">
        <ele>742.76</ele>
        <time>2016-09-28T11:15:55Z</time>
      </trkpt>
      <trkpt lat="43.63166" lon="6.60937">
        <ele>740.83</ele>
        <time>2016-09-28T11:16:12Z</time>
      </trkpt>
      <trkpt lat="43.63153" lon="6.60935">
        <ele>738.91</ele>
        <time>2016-09-28T11:16:25Z</time>
      </trkpt>
      <trkpt lat="43.6314" lon="6.60947">
        <ele>735.55</ele>
        <time>2016-09-28T11:16:39Z</time>
      </trkpt>
      <trkpt lat="43.63138" lon="6.6095">
        <ele>735.07</ele>
        <time>2016-09-28T11:16:43Z</time>
      </trkpt>
      <trkpt lat="43.63131" lon="6.60958">
        <ele>732.66</ele>
        <time>2016-09-28T11:16:52Z</time>
      </trkpt>
      <trkpt lat="43.63124" lon="6.60973">
        <ele>729.3</ele>
        <time>2016-09-28T11:17:06Z</time>
      </trkpt>
      <trkpt lat="43.63116" lon="6.60986">
        <ele>726.41</ele>
        <time>2016-09-28T11:17:21Z</time>
      </trkpt>
      <trkpt lat="43.63109" lon="6.61002">
        <ele>724.01</ele>
        <time>2016-09-28T11:17:35Z</time>
      </trkpt>
      <trkpt lat="43.63096" lon="6.61018">
        <ele>720.65</ele>
        <time>2016-09-28T11:17:49Z</time>
      </trkpt>
      <trkpt lat="43.63084" lon="6.61028">
        <ele>718.72</ele>
        <time>2016-09-28T11:18:02Z</time>
      </trkpt>
      <trkpt lat="43.63082" lon="6.61029">
        <ele>718.24</ele>
        <time>2016-09-28T11:18:04Z</time>
      </trkpt>
      <trkpt lat="43.63079" lon="6.61031">
        <ele>717.76</ele>
        <time>2016-09-28T11:18:07Z</time>
      </trkpt>
      <trkpt lat="43.63065" lon="6.61042">
        <ele>714.88</ele>
        <time>2016-09-28T11:18:22Z</time>
      </trkpt>
      <trkpt lat="43.6306" lon="6.61043">
        <ele>713.92</ele>
        <time>2016-09-28T11:18:36Z</time>
      </trkpt>
      <trkpt lat="43.6306" lon="6.61048">
        <ele>713.92</ele>
        <time>2016-09-28T11:19:01Z</time>
      </trkpt>
      <trkpt lat="43.63061" lon="6.61047">
        <ele>713.92</ele>
        <time>2016-09-28T11:19:27Z</time>
      </trkpt>
      <trkpt lat="43.63059" lon="6.61041">
        <ele>712.47</ele>
        <time>2016-09-28T11:19:51Z</time>
      </trkpt>
      <trkpt lat="43.63059" lon="6.6104">
        <ele>712.47</ele>
        <time>2016-09-28T11:19:52Z</time>
      </trkpt>
      <trkpt lat="43.63051" lon="6.6102">
        <ele>711.03</ele>
        <time>2016-09-28T11:20:05Z</time>
      </trkpt>
      <trkpt lat="43.63049" lon="6.61014">
        <ele>710.55</ele>
        <time>2016-09-28T11:20:08Z</time>
      </trkpt>
      <trkpt lat="43.63041" lon="6.60991">
        <ele>709.11</ele>
        <time>2016-09-28T11:20:24Z</time>
      </trkpt>
      <trkpt lat="43.63035" lon="6.60965">
        <ele>707.67</ele>
        <time>2016-09-28T11:20:39Z</time>
      </trkpt>
      <trkpt lat="43.63033" lon="6.60942">
        <ele>706.71</ele>
        <time>2016-09-28T11:20:53Z</time>
      </trkpt>
      <trkpt lat="43.63036" lon="6.6092">
        <ele>706.23</ele>
        <time>2016-09-28T11:21:08Z</time>
      </trkpt>
      <trkpt lat="43.63035" lon="6.60905">
        <ele>705.75</ele>
        <time>2016-09-28T11:21:19Z</time>
      </trkpt>
      <trkpt lat="43.63035" lon="6.60896">
        <ele>705.75</ele>
        <time>2016-09-28T11:21:24Z</time>
      </trkpt>
      <trkpt lat="43.63035" lon="6.60891">
        <ele>705.75</ele>
        <time>2016-09-28T11:21:27Z</time>
      </trkpt>
      <trkpt lat="43.63024" lon="6.60861">
        <ele>705.26</ele>
        <time>2016-09-28T11:21:44Z</time>
      </trkpt>
      <trkpt lat="43.63005" lon="6.60848">
        <ele>704.78</ele>
        <time>2016-09-28T11:22:00Z</time>
      </trkpt>
      <trkpt lat="43.6299" lon="6.60831">
        <ele>704.78</ele>
        <time>2016-09-28T11:22:14Z</time>
      </trkpt>
      <trkpt lat="43.62982" lon="6.60825">
        <ele>704.78</ele>
        <time>2016-09-28T11:22:21Z</time>
      </trkpt>
      <trkpt lat="43.62967" lon="6.60827">
        <ele>702.38</ele>
        <time>2016-09-28T11:22:37Z</time>
      </trkpt>
      <trkpt lat="43.62953" lon="6.60837">
        <ele>699.98</ele>
        <time>2016-09-28T11:22:51Z</time>
      </trkpt>
      <trkpt lat="43.6295" lon="6.60838">
        <ele>699.5</ele>
        <time>2016-09-28T11:22:53Z</time>
      </trkpt>
      <trkpt lat="43.62943" lon="6.60839">
        <ele>699.02</ele>
        <time>2016-09-28T11:22:59Z</time>
      </trkpt>
      <trkpt lat="43.62938" lon="6.60845">
        <ele>699.02</ele>
        <time>2016-09-28T11:23:04Z</time>
      </trkpt>
      <trkpt lat="43.62932" lon="6.6085">
        <ele>696.61</ele>
        <time>2016-09-28T11:23:16Z</time>
      </trkpt>
      <trkpt lat="43.62927" lon="6.60855">
        <ele>693.73</ele>
        <time>2016-09-28T11:23:30Z</time>
      </trkpt>
      <trkpt lat="43.62923" lon="6.60868">
        <ele>690.36</ele>
        <time>2016-09-28T11:23:45Z</time>
      </trkpt>
      <trkpt lat="43.62918" lon="6.60889">
        <ele>687.96</ele>
        <time>2016-09-28T11:23:57Z</time>
      </trkpt>
      <trkpt lat="43.62914" lon="6.60894">
        <ele>684.6</ele>
        <time>2016-09-28T11:24:12Z</time>
      </trkpt>
      <trkpt lat="43.62909" lon="6.60899">
        <ele>683.15</ele>
        <time>2016-09-28T11:24:26Z</time>
      </trkpt>
      <trkpt lat="43.62908" lon="6.60901">
        <ele>683.15</ele>
        <time>2016-09-28T11:24:46Z</time>
      </trkpt>
      <trkpt lat="43.62906" lon="6.60903">
        <ele>682.67</ele>
        <time>2016-09-28T11:25:05Z</time>
      </trkpt>
      <trkpt lat="43.629" lon="6.6091">
        <ele>680.75</ele>
        <time>2016-09-28T11:25:19Z</time>
      </trkpt>
      <trkpt lat="43.62902" lon="6.6091">
        <ele>680.75</ele>
        <time>2016-09-28T11:25:37Z</time>
      </trkpt>
      <trkpt lat="43.62902" lon="6.6091">
        <ele>680.27</ele>
        <time>2016-09-28T11:25:52Z</time>
      </trkpt>
      <trkpt lat="43.62889" lon="6.60899">
        <ele>679.79</ele>
        <time>2016-09-28T11:26:06Z</time>
      </trkpt>
      <trkpt lat="43.62876" lon="6.60887">
        <ele>678.83</ele>
        <time>2016-09-28T11:26:21Z</time>
      </trkpt>
      <trkpt lat="43.62864" lon="6.60871">
        <ele>677.87</ele>
        <time>2016-09-28T11:26:34Z</time>
      </trkpt>
      <trkpt lat="43.62855" lon="6.60853">
        <ele>675.94</ele>
        <time>2016-09-28T11:26:48Z</time>
      </trkpt>
      <trkpt lat="43.62855" lon="6.60852">
        <ele>675.46</ele>
        <time>2016-09-28T11:26:49Z</time>
      </trkpt>
      <trkpt lat="43.62852" lon="6.60838">
        <ele>674.5</ele>
        <time>2016-09-28T11:27:02Z</time>
      </trkpt>
      <trkpt lat="43.62851" lon="6.60821">
        <ele>674.02</ele>
        <time>2016-09-28T11:27:11Z</time>
      </trkpt>
      <trkpt lat="43.62849" lon="6.60818">
        <ele>673.54</ele>
        <time>2016-09-28T11:27:14Z</time>
      </trkpt>
      <trkpt lat="43.62829" lon="6.60828">
        <ele>670.66</ele>
        <time>2016-09-28T11:27:30Z</time>
      </trkpt>
      <trkpt lat="43.62828" lon="6.60844">
        <ele>669.7</ele>
        <time>2016-09-28T11:27:40Z</time>
      </trkpt>
      <trkpt lat="43.62828" lon="6.60851">
        <ele>670.18</ele>
        <time>2016-09-28T11:27:44Z</time>
      </trkpt>
      <trkpt lat="43.62827" lon="6.60856">
        <ele>669.7</ele>
        <time>2016-09-28T11:27:47Z</time>
      </trkpt>
      <trkpt lat="43.62824" lon="6.60876">
        <ele>669.22</ele>
        <time>2016-09-28T11:28:01Z</time>
      </trkpt>
      <trkpt lat="43.62822" lon="6.60888">
        <ele>669.22</ele>
        <time>2016-09-28T11:28:13Z</time>
      </trkpt>
      <trkpt lat="43.62819" lon="6.60898">
        <ele>668.73</ele>
        <time>2016-09-28T11:28:32Z</time>
      </trkpt>
      <trkpt lat="43.6282" lon="6.60901">
        <ele>668.25</ele>
        <time>2016-09-28T11:28:48Z</time>
      </trkpt>
      <trkpt lat="43.6282" lon="6.60901">
        <ele>668.25</ele>
        <time>2016-09-28T11:29:08Z</time>
      </trkpt>
      <trkpt lat="43.62821" lon="6.60901">
        <ele>668.25</ele>
        <time>2016-09-28T11:29:41Z</time>
      </trkpt>
      <trkpt lat="43.62821" lon="6.60901">
        <ele>668.25</ele>
        <time>2016-09-28T11:30:12Z</time>
      </trkpt>
      <trkpt lat="43.62821" lon="6.60901">
        <ele>669.22</ele>
        <time>2016-09-28T11:30:27Z</time>
      </trkpt>
      <trkpt lat="43.62821" lon="6.60901">
        <ele>672.58</ele>
        <time>2016-09-28T11:30:29Z</time>
      </trkpt>
      <trkpt lat="43.62821" lon="6.60901">
        <ele>667.77</ele>
        <time>2016-09-28T11:30:30Z</time>
      </trkpt>
      <trkpt lat="43.62821" lon="6.60902">
        <ele>668.25</ele>
        <time>2016-09-28T11:30:48Z</time>
      </trkpt>
      <trkpt lat="43.62822" lon="6.60901">
        <ele>668.25</ele>
        <time>2016-09-28T11:31:12Z</time>
      </trkpt>
      <trkpt lat="43.62822" lon="6.60902">
        <ele>668.73</ele>
        <time>2016-09-28T11:31:45Z</time>
      </trkpt>
      <trkpt lat="43.62822" lon="6.60901">
        <ele>668.25</ele>
        <time>2016-09-28T11:32:14Z</time>
      </trkpt>
      <trkpt lat="43.62822" lon="6.60901">
        <ele>667.77</ele>
        <time>2016-09-28T11:32:50Z</time>
      </trkpt>
      <trkpt lat="43.62822" lon="6.60901">
        <ele>667.77</ele>
        <time>2016-09-28T11:33:23Z</time>
      </trkpt>
      <trkpt lat="43.62822" lon="6.60901">
        <ele>667.77</ele>
        <time>2016-09-28T11:34:01Z</time>
      </trkpt>
      <trkpt lat="43.62822" lon="6.60901">
        <ele>667.77</ele>
        <time>2016-09-28T11:34:33Z</time>
      </trkpt>
      <trkpt lat="43.62822" lon="6.60901">
        <ele>668.25</ele>
        <time>2016-09-28T11:35:04Z</time>
      </trkpt>
      <trkpt lat="43.62822" lon="6.60901">
        <ele>668.25</ele>
        <time>2016-09-28T11:35:38Z</time>
      </trkpt>
      <trkpt lat="43.62822" lon="6.60901">
        <ele>668.25</ele>
        <time>2016-09-28T11:36:12Z</time>
      </trkpt>
      <trkpt lat="43.62822" lon="6.60901">
        <ele>668.25</ele>
        <time>2016-09-28T11:36:46Z</time>
      </trkpt>
      <trkpt lat="43.62823" lon="6.609">
        <ele>668.25</ele>
        <time>2016-09-28T11:37:18Z</time>
      </trkpt>
      <trkpt lat="43.62823" lon="6.609">
        <ele>668.25</ele>
        <time>2016-09-28T11:37:48Z</time>
      </trkpt>
      <trkpt lat="43.62823" lon="6.609">
        <ele>668.25</ele>
        <time>2016-09-28T11:38:15Z</time>
      </trkpt>
      <trkpt lat="43.62823" lon="6.60899">
        <ele>668.25</ele>
        <time>2016-09-28T11:38:45Z</time>
      </trkpt>
      <trkpt lat="43.62823" lon="6.60899">
        <ele>668.73</ele>
        <time>2016-09-28T11:39:27Z</time>
      </trkpt>
      <trkpt lat="43.62823" lon="6.60899">
        <ele>668.73</ele>
        <time>2016-09-28T11:40:06Z</time>
      </trkpt>
      <trkpt lat="43.62823" lon="6.60899">
        <ele>668.73</ele>
        <time>2016-09-28T11:40:41Z</time>
      </trkpt>
      <trkpt lat="43.62822" lon="6.609">
        <ele>668.25</ele>
        <time>2016-09-28T11:41:18Z</time>
      </trkpt>
      <trkpt lat="43.62823" lon="6.609">
        <ele>668.73</ele>
        <time>2016-09-28T11:41:56Z</time>
      </trkpt>
      <trkpt lat="43.62823" lon="6.60899">
        <ele>668.73</ele>
        <time>2016-09-28T11:42:36Z</time>
      </trkpt>
      <trkpt lat="43.62823" lon="6.609">
        <ele>668.25</ele>
        <time>2016-09-28T11:43:12Z</time>
      </trkpt>
      <trkpt lat="43.62823" lon="6.609">
        <ele>667.77</ele>
        <time>2016-09-28T11:43:49Z</time>
      </trkpt>
      <trkpt lat="43.62823" lon="6.609">
        <ele>667.77</ele>
        <time>2016-09-28T11:44:18Z</time>
      </trkpt>
      <trkpt lat="43.62823" lon="6.60901">
        <ele>667.77</ele>
        <time>2016-09-28T11:44:48Z</time>
      </trkpt>
      <trkpt lat="43.62822" lon="6.60901">
        <ele>667.77</ele>
        <time>2016-09-28T11:45:21Z</time>
      </trkpt>
      <trkpt lat="43.62822" lon="6.60901">
        <ele>668.25</ele>
        <time>2016-09-28T11:45:57Z</time>
      </trkpt>
      <trkpt lat="43.62822" lon="6.60902">
        <ele>667.77</ele>
        <time>2016-09-28T11:46:40Z</time>
      </trkpt>
      <trkpt lat="43.62821" lon="6.60903">
        <ele>667.29</ele>
        <time>2016-09-28T11:47:21Z</time>
      </trkpt>
      <trkpt lat="43.62821" lon="6.60903">
        <ele>667.77</ele>
        <time>2016-09-28T11:48:03Z</time>
      </trkpt>
      <trkpt lat="43.62822" lon="6.60902">
        <ele>667.77</ele>
        <time>2016-09-28T11:48:40Z</time>
      </trkpt>
      <trkpt lat="43.62822" lon="6.60901">
        <ele>667.77</ele>
        <time>2016-09-28T11:49:19Z</time>
      </trkpt>
      <trkpt lat="43.62822" lon="6.60901">
        <ele>671.62</ele>
        <time>2016-09-28T11:49:40Z</time>
      </trkpt>
      <trkpt lat="43.62822" lon="6.60901">
        <ele>668.25</ele>
        <time>2016-09-28T11:49:41Z</time>
      </trkpt>
      <trkpt lat="43.6282" lon="6.60902">
        <ele>668.25</ele>
        <time>2016-09-28T11:50:01Z</time>
      </trkpt>
      <trkpt lat="43.62822" lon="6.60906">
        <ele>667.77</ele>
        <time>2016-09-28T11:50:24Z</time>
      </trkpt>
      <trkpt lat="43.62822" lon="6.60905">
        <ele>667.29</ele>
        <time>2016-09-28T11:50:41Z</time>
      </trkpt>
      <trkpt lat="43.62823" lon="6.60905">
        <ele>667.77</ele>
        <time>2016-09-28T11:51:10Z</time>
      </trkpt>
      <trkpt lat="43.62822" lon="6.60905">
        <ele>667.77</ele>
        <time>2016-09-28T11:51:36Z</time>
      </trkpt>
      <trkpt lat="43.62823" lon="6.60903">
        <ele>667.77</ele>
        <time>2016-09-28T11:52:13Z</time>
      </trkpt>
      <trkpt lat="43.62823" lon="6.60903">
        <ele>667.77</ele>
        <time>2016-09-28T11:52:45Z</time>
      </trkpt>
      <trkpt lat="43.62822" lon="6.60903">
        <ele>667.77</ele>
        <time>2016-09-28T11:53:21Z</time>
      </trkpt>
      <trkpt lat="43.62822" lon="6.60903">
        <ele>667.77</ele>
        <time>2016-09-28T11:53:54Z</time>
      </trkpt>
      <trkpt lat="43.62822" lon="6.60903">
        <ele>667.77</ele>
        <time>2016-09-28T11:54:28Z</time>
      </trkpt>
      <trkpt lat="43.62822" lon="6.60902">
        <ele>667.77</ele>
        <time>2016-09-28T11:55:06Z</time>
      </trkpt>
      <trkpt lat="43.62822" lon="6.60902">
        <ele>667.29</ele>
        <time>2016-09-28T11:55:43Z</time>
      </trkpt>
      <trkpt lat="43.62822" lon="6.60902">
        <ele>667.77</ele>
        <time>2016-09-28T11:56:25Z</time>
      </trkpt>
      <trkpt lat="43.62822" lon="6.60902">
        <ele>667.29</ele>
        <time>2016-09-28T11:56:55Z</time>
      </trkpt>
      <trkpt lat="43.62822" lon="6.60902">
        <ele>667.77</ele>
        <time>2016-09-28T11:57:28Z</time>
      </trkpt>
      <trkpt lat="43.62822" lon="6.60902">
        <ele>667.29</ele>
        <time>2016-09-28T11:58:07Z</time>
      </trkpt>
      <trkpt lat="43.62822" lon="6.60902">
        <ele>667.77</ele>
        <time>2016-09-28T11:58:44Z</time>
      </trkpt>
      <trkpt lat="43.62822" lon="6.60902">
        <ele>667.77</ele>
        <time>2016-09-28T11:59:13Z</time>
      </trkpt>
      <trkpt lat="43.62822" lon="6.60902">
        <ele>667.77</ele>
        <time>2016-09-28T11:59:35Z</time>
      </trkpt>
      <trkpt lat="43.6282" lon="6.60901">
        <ele>667.77</ele>
        <time>2016-09-28T11:59:58Z</time>
      </trkpt>
      <trkpt lat="43.62822" lon="6.60898">
        <ele>667.77</ele>
        <time>2016-09-28T12:00:17Z</time>
      </trkpt>
      <trkpt lat="43.62821" lon="6.60901">
        <ele>667.77</ele>
        <time>2016-09-28T12:00:38Z</time>
      </trkpt>
      <trkpt lat="43.62821" lon="6.60901">
        <ele>667.77</ele>
        <time>2016-09-28T12:01:05Z</time>
      </trkpt>
      <trkpt lat="43.62822" lon="6.60902">
        <ele>668.25</ele>
        <time>2016-09-28T12:01:41Z</time>
      </trkpt>
      <trkpt lat="43.62821" lon="6.60902">
        <ele>668.25</ele>
        <time>2016-09-28T12:02:20Z</time>
      </trkpt>
      <trkpt lat="43.62821" lon="6.60903">
        <ele>668.25</ele>
        <time>2016-09-28T12:02:51Z</time>
      </trkpt>
      <trkpt lat="43.62822" lon="6.60903">
        <ele>667.77</ele>
        <time>2016-09-28T12:03:21Z</time>
      </trkpt>
      <trkpt lat="43.62821" lon="6.60903">
        <ele>668.25</ele>
        <time>2016-09-28T12:03:50Z</time>
      </trkpt>
      <trkpt lat="43.62821" lon="6.60903">
        <ele>668.25</ele>
        <time>2016-09-28T12:04:18Z</time>
      </trkpt>
      <trkpt lat="43.62819" lon="6.60903">
        <ele>668.25</ele>
        <time>2016-09-28T12:04:32Z</time>
      </trkpt>
      <trkpt lat="43.62814" lon="6.60905">
        <ele>666.81</ele>
        <time>2016-09-28T12:04:38Z</time>
      </trkpt>
      <trkpt lat="43.62811" lon="6.60904">
        <ele>666.81</ele>
        <time>2016-09-28T12:04:41Z</time>
      </trkpt>
      <trkpt lat="43.6281" lon="6.60894">
        <ele>667.29</ele>
        <time>2016-09-28T12:04:53Z</time>
      </trkpt>
      <trkpt lat="43.62807" lon="6.6089">
        <ele>667.29</ele>
        <time>2016-09-28T12:05:08Z</time>
      </trkpt>
      <trkpt lat="43.62805" lon="6.6089">
        <ele>667.29</ele>
        <time>2016-09-28T12:05:22Z</time>
      </trkpt>
      <trkpt lat="43.62805" lon="6.60893">
        <ele>667.29</ele>
        <time>2016-09-28T12:05:36Z</time>
      </trkpt>
      <trkpt lat="43.62803" lon="6.60893">
        <ele>667.29</ele>
        <time>2016-09-28T12:05:53Z</time>
      </trkpt>
      <trkpt lat="43.62802" lon="6.60899">
        <ele>665.85</ele>
        <time>2016-09-28T12:06:05Z</time>
      </trkpt>
      <trkpt lat="43.62803" lon="6.60899">
        <ele>665.85</ele>
        <time>2016-09-28T12:06:20Z</time>
      </trkpt>
      <trkpt lat="43.62807" lon="6.60892">
        <ele>665.85</ele>
        <time>2016-09-28T12:06:35Z</time>
      </trkpt>
      <trkpt lat="43.62808" lon="6.60893">
        <ele>667.29</ele>
        <time>2016-09-28T12:06:50Z</time>
      </trkpt>
      <trkpt lat="43.62806" lon="6.60895">
        <ele>666.81</ele>
        <time>2016-09-28T12:07:03Z</time>
      </trkpt>
      <trkpt lat="43.62806" lon="6.60894">
        <ele>666.81</ele>
        <time>2016-09-28T12:07:11Z</time>
      </trkpt>
      <trkpt lat="43.62804" lon="6.60901">
        <ele>665.37</ele>
        <time>2016-09-28T12:07:18Z</time>
      </trkpt>
      <trkpt lat="43.62805" lon="6.60907">
        <ele>664.89</ele>
        <time>2016-09-28T12:07:21Z</time>
      </trkpt>
      <trkpt lat="43.62814" lon="6.6091">
        <ele>665.37</ele>
        <time>2016-09-28T12:07:27Z</time>
      </trkpt>
      <trkpt lat="43.62824" lon="6.60907">
        <ele>667.29</ele>
        <time>2016-09-28T12:07:40Z</time>
      </trkpt>
      <trkpt lat="43.62824" lon="6.60904">
        <ele>667.29</ele>
        <time>2016-09-28T12:08:17Z</time>
      </trkpt>
      <trkpt lat="43.62825" lon="6.60904">
        <ele>667.29</ele>
        <time>2016-09-28T12:08:51Z</time>
      </trkpt>
      <trkpt lat="43.62825" lon="6.60903">
        <ele>666.81</ele>
        <time>2016-09-28T12:09:23Z</time>
      </trkpt>
      <trkpt lat="43.62826" lon="6.60902">
        <ele>666.81</ele>
        <time>2016-09-28T12:09:52Z</time>
      </trkpt>
      <trkpt lat="43.62825" lon="6.60902">
        <ele>666.81</ele>
        <time>2016-09-28T12:10:20Z</time>
      </trkpt>
      <trkpt lat="43.62825" lon="6.609">
        <ele>666.81</ele>
        <time>2016-09-28T12:10:43Z</time>
      </trkpt>
      <trkpt lat="43.62825" lon="6.60901">
        <ele>666.33</ele>
        <time>2016-09-28T12:11:12Z</time>
      </trkpt>
      <trkpt lat="43.62825" lon="6.60904">
        <ele>666.33</ele>
        <time>2016-09-28T12:11:41Z</time>
      </trkpt>
      <trkpt lat="43.62825" lon="6.60905">
        <ele>666.81</ele>
        <time>2016-09-28T12:12:11Z</time>
      </trkpt>
      <trkpt lat="43.62825" lon="6.60905">
        <ele>666.33</ele>
        <time>2016-09-28T12:12:49Z</time>
      </trkpt>
      <trkpt lat="43.62826" lon="6.60905">
        <ele>666.33</ele>
        <time>2016-09-28T12:13:19Z</time>
      </trkpt>
      <trkpt lat="43.62826" lon="6.60905">
        <ele>666.33</ele>
        <time>2016-09-28T12:13:51Z</time>
      </trkpt>
      <trkpt lat="43.62826" lon="6.60905">
        <ele>666.33</ele>
        <time>2016-09-28T12:14:20Z</time>
      </trkpt>
      <trkpt lat="43.62826" lon="6.60906">
        <ele>666.33</ele>
        <time>2016-09-28T12:14:47Z</time>
      </trkpt>
      <trkpt lat="43.62826" lon="6.60905">
        <ele>666.33</ele>
        <time>2016-09-28T12:15:15Z</time>
      </trkpt>
      <trkpt lat="43.62824" lon="6.60903">
        <ele>666.81</ele>
        <time>2016-09-28T12:15:49Z</time>
      </trkpt>
      <trkpt lat="43.62823" lon="6.60901">
        <ele>666.33</ele>
        <time>2016-09-28T12:16:32Z</time>
      </trkpt>
      <trkpt lat="43.62824" lon="6.60901">
        <ele>666.33</ele>
        <time>2016-09-28T12:17:08Z</time>
      </trkpt>
      <trkpt lat="43.62823" lon="6.60903">
        <ele>666.33</ele>
        <time>2016-09-28T12:17:51Z</time>
      </trkpt>
      <trkpt lat="43.62823" lon="6.60905">
        <ele>666.81</ele>
        <time>2016-09-28T12:18:11Z</time>
      </trkpt>
      <trkpt lat="43.62824" lon="6.60906">
        <ele>666.81</ele>
        <time>2016-09-28T12:18:33Z</time>
      </trkpt>
      <trkpt lat="43.62824" lon="6.60905">
        <ele>666.81</ele>
        <time>2016-09-28T12:18:55Z</time>
      </trkpt>
      <trkpt lat="43.62823" lon="6.60902">
        <ele>667.29</ele>
        <time>2016-09-28T12:19:10Z</time>
      </trkpt>
      <trkpt lat="43.62823" lon="6.60901">
        <ele>666.81</ele>
        <time>2016-09-28T12:19:30Z</time>
      </trkpt>
      <trkpt lat="43.62822" lon="6.60899">
        <ele>667.29</ele>
        <time>2016-09-28T12:19:46Z</time>
      </trkpt>
      <trkpt lat="43.6282" lon="6.60897">
        <ele>667.29</ele>
        <time>2016-09-28T12:19:57Z</time>
      </trkpt>
      <trkpt lat="43.6282" lon="6.60897">
        <ele>667.29</ele>
        <time>2016-09-28T12:20:24Z</time>
      </trkpt>
      <trkpt lat="43.6282" lon="6.60901">
        <ele>666.81</ele>
        <time>2016-09-28T12:20:37Z</time>
      </trkpt>
      <trkpt lat="43.62816" lon="6.60908">
        <ele>665.85</ele>
        <time>2016-09-28T12:20:52Z</time>
      </trkpt>
      <trkpt lat="43.62813" lon="6.6091">
        <ele>664.89</ele>
        <time>2016-09-28T12:20:58Z</time>
      </trkpt>
      <trkpt lat="43.62808" lon="6.60909">
        <ele>664.89</ele>
        <time>2016-09-28T12:21:04Z</time>
      </trkpt>
      <trkpt lat="43.62803" lon="6.60897">
        <ele>663.45</ele>
        <time>2016-09-28T12:21:18Z</time>
      </trkpt>
      <trkpt lat="43.6279" lon="6.60889">
        <ele>661.52</ele>
        <time>2016-09-28T12:21:33Z</time>
      </trkpt>
      <trkpt lat="43.62794" lon="6.60896">
        <ele>661.04</ele>
        <time>2016-09-28T12:21:38Z</time>
      </trkpt>
      <trkpt lat="43.62796" lon="6.60898">
        <ele>661.52</ele>
        <time>2016-09-28T12:21:42Z</time>
      </trkpt>
      <trkpt lat="43.62806" lon="6.60913">
        <ele>663.45</ele>
        <time>2016-09-28T12:21:54Z</time>
      </trkpt>
      <trkpt lat="43.62808" lon="6.60914">
        <ele>663.45</ele>
        <time>2016-09-28T12:21:56Z</time>
      </trkpt>
      <trkpt lat="43.6282" lon="6.6092">
        <ele>664.41</ele>
        <time>2016-09-28T12:22:07Z</time>
      </trkpt>
      <trkpt lat="43.62825" lon="6.60922">
        <ele>664.41</ele>
        <time>2016-09-28T12:22:12Z</time>
      </trkpt>
      <trkpt lat="43.62836" lon="6.6093">
        <ele>664.89</ele>
        <time>2016-09-28T12:22:26Z</time>
      </trkpt>
      <trkpt lat="43.62845" lon="6.60947">
        <ele>665.37</ele>
        <time>2016-09-28T12:22:41Z</time>
      </trkpt>
      <trkpt lat="43.62847" lon="6.6095">
        <ele>664.89</ele>
        <time>2016-09-28T12:22:44Z</time>
      </trkpt>
      <trkpt lat="43.62848" lon="6.60953">
        <ele>664.89</ele>
        <time>2016-09-28T12:22:46Z</time>
      </trkpt>
      <trkpt lat="43.6285" lon="6.60956">
        <ele>664.89</ele>
        <time>2016-09-28T12:22:50Z</time>
      </trkpt>
      <trkpt lat="43.62854" lon="6.60964">
        <ele>664.41</ele>
        <time>2016-09-28T12:22:57Z</time>
      </trkpt>
      <trkpt lat="43.62861" lon="6.60978">
        <ele>663.45</ele>
        <time>2016-09-28T12:23:10Z</time>
      </trkpt>
      <trkpt lat="43.6287" lon="6.6099">
        <ele>662.49</ele>
        <time>2016-09-28T12:23:24Z</time>
      </trkpt>
      <trkpt lat="43.62876" lon="6.60996">
        <ele>662.01</ele>
        <time>2016-09-28T12:23:31Z</time>
      </trkpt>
      <trkpt lat="43.62887" lon="6.61009">
        <ele>661.52</ele>
        <time>2016-09-28T12:23:46Z</time>
      </trkpt>
      <trkpt lat="43.62898" lon="6.61025">
        <ele>661.04</ele>
        <time>2016-09-28T12:24:02Z</time>
      </trkpt>
      <trkpt lat="43.62899" lon="6.61042">
        <ele>661.04</ele>
        <time>2016-09-28T12:24:14Z</time>
      </trkpt>
      <trkpt lat="43.62899" lon="6.61054">
        <ele>661.04</ele>
        <time>2016-09-28T12:24:22Z</time>
      </trkpt>
      <trkpt lat="43.62899" lon="6.61071">
        <ele>660.56</ele>
        <time>2016-09-28T12:24:36Z</time>
      </trkpt>
      <trkpt lat="43.62907" lon="6.61092">
        <ele>660.56</ele>
        <time>2016-09-28T12:24:51Z</time>
      </trkpt>
      <trkpt lat="43.62912" lon="6.61106">
        <ele>660.56</ele>
        <time>2016-09-28T12:25:02Z</time>
      </trkpt>
      <trkpt lat="43.62914" lon="6.61113">
        <ele>661.04</ele>
        <time>2016-09-28T12:25:08Z</time>
      </trkpt>
      <trkpt lat="43.62918" lon="6.61125">
        <ele>661.04</ele>
        <time>2016-09-28T12:25:16Z</time>
      </trkpt>
      <trkpt lat="43.62922" lon="6.61136">
        <ele>661.52</ele>
        <time>2016-09-28T12:25:24Z</time>
      </trkpt>
      <trkpt lat="43.62932" lon="6.61155">
        <ele>661.04</ele>
        <time>2016-09-28T12:25:40Z</time>
      </trkpt>
      <trkpt lat="43.62936" lon="6.61165">
        <ele>661.04</ele>
        <time>2016-09-28T12:25:50Z</time>
      </trkpt>
      <trkpt lat="43.62938" lon="6.61169">
        <ele>661.04</ele>
        <time>2016-09-28T12:25:53Z</time>
      </trkpt>
      <trkpt lat="43.62943" lon="6.61173">
        <ele>661.52</ele>
        <time>2016-09-28T12:25:58Z</time>
      </trkpt>
      <trkpt lat="43.62948" lon="6.61177">
        <ele>661.52</ele>
        <time>2016-09-28T12:26:03Z</time>
      </trkpt>
      <trkpt lat="43.62963" lon="6.61188">
        <ele>661.04</ele>
        <time>2016-09-28T12:26:14Z</time>
      </trkpt>
      <trkpt lat="43.62967" lon="6.6119">
        <ele>661.04</ele>
        <time>2016-09-28T12:26:17Z</time>
      </trkpt>
      <trkpt lat="43.62971" lon="6.61194">
        <ele>660.56</ele>
        <time>2016-09-28T12:26:22Z</time>
      </trkpt>
      <trkpt lat="43.62982" lon="6.61203">
        <ele>659.12</ele>
        <time>2016-09-28T12:26:35Z</time>
      </trkpt>
      <trkpt lat="43.62986" lon="6.61212">
        <ele>658.16</ele>
        <time>2016-09-28T12:26:50Z</time>
      </trkpt>
      <trkpt lat="43.62985" lon="6.61214">
        <ele>658.16</ele>
        <time>2016-09-28T12:26:52Z</time>
      </trkpt>
      <trkpt lat="43.62984" lon="6.61223">
        <ele>657.2</ele>
        <time>2016-09-28T12:27:00Z</time>
      </trkpt>
      <trkpt lat="43.62986" lon="6.61235">
        <ele>657.2</ele>
        <time>2016-09-28T12:27:08Z</time>
      </trkpt>
      <trkpt lat="43.62992" lon="6.61251">
        <ele>657.2</ele>
        <time>2016-09-28T12:27:20Z</time>
      </trkpt>
      <trkpt lat="43.62992" lon="6.61268">
        <ele>657.2</ele>
        <time>2016-09-28T12:27:33Z</time>
      </trkpt>
      <trkpt lat="43.62992" lon="6.6127">
        <ele>657.2</ele>
        <time>2016-09-28T12:27:34Z</time>
      </trkpt>
      <trkpt lat="43.62991" lon="6.61278">
        <ele>656.72</ele>
        <time>2016-09-28T12:27:38Z</time>
      </trkpt>
      <trkpt lat="43.62991" lon="6.61298">
        <ele>657.2</ele>
        <time>2016-09-28T12:27:53Z</time>
      </trkpt>
      <trkpt lat="43.62992" lon="6.613">
        <ele>656.72</ele>
        <time>2016-09-28T12:27:55Z</time>
      </trkpt>
      <trkpt lat="43.62995" lon="6.61312">
        <ele>656.24</ele>
        <time>2016-09-28T12:28:02Z</time>
      </trkpt>
      <trkpt lat="43.62996" lon="6.61315">
        <ele>656.24</ele>
        <time>2016-09-28T12:28:04Z</time>
      </trkpt>
      <trkpt lat="43.62997" lon="6.61321">
        <ele>655.76</ele>
        <time>2016-09-28T12:28:08Z</time>
      </trkpt>
      <trkpt lat="43.63" lon="6.61331">
        <ele>655.28</ele>
        <time>2016-09-28T12:28:15Z</time>
      </trkpt>
      <trkpt lat="43.63002" lon="6.61343">
        <ele>654.31</ele>
        <time>2016-09-28T12:28:24Z</time>
      </trkpt>
      <trkpt lat="43.63001" lon="6.61345">
        <ele>654.31</ele>
        <time>2016-09-28T12:28:26Z</time>
      </trkpt>
      <trkpt lat="43.63001" lon="6.61352">
        <ele>653.35</ele>
        <time>2016-09-28T12:28:32Z</time>
      </trkpt>
      <trkpt lat="43.62998" lon="6.61371">
        <ele>653.35</ele>
        <time>2016-09-28T12:28:46Z</time>
      </trkpt>
      <trkpt lat="43.62998" lon="6.61373">
        <ele>653.35</ele>
        <time>2016-09-28T12:28:47Z</time>
      </trkpt>
      <trkpt lat="43.62996" lon="6.61382">
        <ele>653.35</ele>
        <time>2016-09-28T12:28:54Z</time>
      </trkpt>
      <trkpt lat="43.62994" lon="6.61408">
        <ele>653.35</ele>
        <time>2016-09-28T12:29:10Z</time>
      </trkpt>
      <trkpt lat="43.62993" lon="6.61423">
        <ele>653.83</ele>
        <time>2016-09-28T12:29:24Z</time>
      </trkpt>
      <trkpt lat="43.62993" lon="6.61432">
        <ele>653.35</ele>
        <time>2016-09-28T12:29:37Z</time>
      </trkpt>
      <trkpt lat="43.62994" lon="6.61436">
        <ele>653.35</ele>
        <time>2016-09-28T12:29:57Z</time>
      </trkpt>
      <trkpt lat="43.62996" lon="6.61436">
        <ele>653.35</ele>
        <time>2016-09-28T12:30:21Z</time>
      </trkpt>
      <trkpt lat="43.62997" lon="6.61436">
        <ele>653.35</ele>
        <time>2016-09-28T12:30:54Z</time>
      </trkpt>
      <trkpt lat="43.62997" lon="6.61436">
        <ele>653.83</ele>
        <time>2016-09-28T12:31:31Z</time>
      </trkpt>
      <trkpt lat="43.62997" lon="6.61436">
        <ele>653.83</ele>
        <time>2016-09-28T12:31:32Z</time>
      </trkpt>
      <trkpt lat="43.62998" lon="6.61441">
        <ele>653.83</ele>
        <time>2016-09-28T12:31:35Z</time>
      </trkpt>
      <trkpt lat="43.62998" lon="6.61452">
        <ele>653.35</ele>
        <time>2016-09-28T12:31:51Z</time>
      </trkpt>
      <trkpt lat="43.62998" lon="6.61455">
        <ele>653.35</ele>
        <time>2016-09-28T12:31:57Z</time>
      </trkpt>
      <trkpt lat="43.62999" lon="6.61462">
        <ele>653.35</ele>
        <time>2016-09-28T12:32:02Z</time>
      </trkpt>
      <trkpt lat="43.62999" lon="6.61467">
        <ele>652.87</ele>
        <time>2016-09-28T12:32:06Z</time>
      </trkpt>
      <trkpt lat="43.62998" lon="6.61475">
        <ele>653.35</ele>
        <time>2016-09-28T12:32:11Z</time>
      </trkpt>
      <trkpt lat="43.63001" lon="6.61493">
        <ele>652.39</ele>
        <time>2016-09-28T12:32:24Z</time>
      </trkpt>
      <trkpt lat="43.63002" lon="6.61497">
        <ele>652.39</ele>
        <time>2016-09-28T12:32:40Z</time>
      </trkpt>
      <trkpt lat="43.63007" lon="6.61504">
        <ele>651.43</ele>
        <time>2016-09-28T12:32:51Z</time>
      </trkpt>
      <trkpt lat="43.63009" lon="6.6151">
        <ele>650.95</ele>
        <time>2016-09-28T12:33:06Z</time>
      </trkpt>
      <trkpt lat="43.63014" lon="6.6152">
        <ele>650.47</ele>
        <time>2016-09-28T12:33:14Z</time>
      </trkpt>
      <trkpt lat="43.6302" lon="6.61544">
        <ele>650.47</ele>
        <time>2016-09-28T12:33:30Z</time>
      </trkpt>
      <trkpt lat="43.63022" lon="6.6156">
        <ele>650.95</ele>
        <time>2016-09-28T12:33:40Z</time>
      </trkpt>
      <trkpt lat="43.63022" lon="6.61566">
        <ele>650.95</ele>
        <time>2016-09-28T12:33:44Z</time>
      </trkpt>
      <trkpt lat="43.63026" lon="6.61582">
        <ele>650.95</ele>
        <time>2016-09-28T12:33:57Z</time>
      </trkpt>
      <trkpt lat="43.63028" lon="6.61589">
        <ele>651.43</ele>
        <time>2016-09-28T12:34:02Z</time>
      </trkpt>
      <trkpt lat="43.63031" lon="6.61603">
        <ele>652.39</ele>
        <time>2016-09-28T12:34:17Z</time>
      </trkpt>
      <trkpt lat="43.63032" lon="6.61604">
        <ele>652.87</ele>
        <time>2016-09-28T12:34:32Z</time>
      </trkpt>
      <trkpt lat="43.63035" lon="6.61618">
        <ele>653.83</ele>
        <time>2016-09-28T12:34:45Z</time>
      </trkpt>
      <trkpt lat="43.63035" lon="6.61628">
        <ele>654.8</ele>
        <time>2016-09-28T12:34:52Z</time>
      </trkpt>
      <trkpt lat="43.63042" lon="6.61643">
        <ele>655.28</ele>
        <time>2016-09-28T12:35:05Z</time>
      </trkpt>
      <trkpt lat="43.63045" lon="6.6165">
        <ele>655.76</ele>
        <time>2016-09-28T12:35:17Z</time>
      </trkpt>
      <trkpt lat="43.63048" lon="6.61654">
        <ele>655.28</ele>
        <time>2016-09-28T12:35:21Z</time>
      </trkpt>
      <trkpt lat="43.63058" lon="6.61672">
        <ele>656.24</ele>
        <time>2016-09-28T12:35:35Z</time>
      </trkpt>
      <trkpt lat="43.63065" lon="6.6168">
        <ele>656.72</ele>
        <time>2016-09-28T12:35:45Z</time>
      </trkpt>
      <trkpt lat="43.63075" lon="6.61697">
        <ele>658.64</ele>
        <time>2016-09-28T12:36:02Z</time>
      </trkpt>
      <trkpt lat="43.63084" lon="6.61703">
        <ele>659.6</ele>
        <time>2016-09-28T12:36:15Z</time>
      </trkpt>
      <trkpt lat="43.63089" lon="6.61707">
        <ele>660.08</ele>
        <time>2016-09-28T12:36:21Z</time>
      </trkpt>
      <trkpt lat="43.63096" lon="6.61709">
        <ele>660.56</ele>
        <time>2016-09-28T12:36:26Z</time>
      </trkpt>
      <trkpt lat="43.63107" lon="6.61718">
        <ele>661.52</ele>
        <time>2016-09-28T12:36:38Z</time>
      </trkpt>
      <trkpt lat="43.63111" lon="6.61722">
        <ele>662.49</ele>
        <time>2016-09-28T12:36:44Z</time>
      </trkpt>
      <trkpt lat="43.63117" lon="6.61727">
        <ele>661.52</ele>
        <time>2016-09-28T12:36:50Z</time>
      </trkpt>
      <trkpt lat="43.63121" lon="6.61733">
        <ele>661.04</ele>
        <time>2016-09-28T12:36:54Z</time>
      </trkpt>
      <trkpt lat="43.63129" lon="6.61745">
        <ele>660.56</ele>
        <time>2016-09-28T12:37:05Z</time>
      </trkpt>
      <trkpt lat="43.63131" lon="6.61748">
        <ele>660.56</ele>
        <time>2016-09-28T12:37:10Z</time>
      </trkpt>
      <trkpt lat="43.63135" lon="6.61762">
        <ele>659.6</ele>
        <time>2016-09-28T12:37:22Z</time>
      </trkpt>
      <trkpt lat="43.63138" lon="6.61775">
        <ele>659.12</ele>
        <time>2016-09-28T12:37:35Z</time>
      </trkpt>
      <trkpt lat="43.63142" lon="6.61794">
        <ele>658.16</ele>
        <time>2016-09-28T12:37:48Z</time>
      </trkpt>
      <trkpt lat="43.63148" lon="6.61809">
        <ele>656.72</ele>
        <time>2016-09-28T12:38:00Z</time>
      </trkpt>
      <trkpt lat="43.6315" lon="6.61816">
        <ele>656.24</ele>
        <time>2016-09-28T12:38:04Z</time>
      </trkpt>
      <trkpt lat="43.63152" lon="6.61819">
        <ele>655.76</ele>
        <time>2016-09-28T12:38:07Z</time>
      </trkpt>
      <trkpt lat="43.63161" lon="6.61837">
        <ele>653.83</ele>
        <time>2016-09-28T12:38:22Z</time>
      </trkpt>
      <trkpt lat="43.63161" lon="6.6184">
        <ele>653.83</ele>
        <time>2016-09-28T12:38:24Z</time>
      </trkpt>
      <trkpt lat="43.63163" lon="6.61848">
        <ele>653.35</ele>
        <time>2016-09-28T12:38:28Z</time>
      </trkpt>
      <trkpt lat="43.63165" lon="6.61856">
        <ele>652.39</ele>
        <time>2016-09-28T12:38:33Z</time>
      </trkpt>
      <trkpt lat="43.63171" lon="6.61877">
        <ele>651.43</ele>
        <time>2016-09-28T12:38:48Z</time>
      </trkpt>
      <trkpt lat="43.63177" lon="6.61895">
        <ele>650.95</ele>
        <time>2016-09-28T12:39:03Z</time>
      </trkpt>
      <trkpt lat="43.6318" lon="6.61899">
        <ele>650.95</ele>
        <time>2016-09-28T12:39:23Z</time>
      </trkpt>
      <trkpt lat="43.63182" lon="6.61902">
        <ele>650.47</ele>
        <time>2016-09-28T12:39:48Z</time>
      </trkpt>
      <trkpt lat="43.63187" lon="6.6192">
        <ele>650.47</ele>
        <time>2016-09-28T12:40:03Z</time>
      </trkpt>
      <trkpt lat="43.63192" lon="6.61933">
        <ele>650.47</ele>
        <time>2016-09-28T12:40:16Z</time>
      </trkpt>
      <trkpt lat="43.63199" lon="6.61954">
        <ele>651.43</ele>
        <time>2016-09-28T12:40:32Z</time>
      </trkpt>
      <trkpt lat="43.63201" lon="6.61964">
        <ele>651.91</ele>
        <time>2016-09-28T12:40:39Z</time>
      </trkpt>
      <trkpt lat="43.63203" lon="6.61973">
        <ele>651.91</ele>
        <time>2016-09-28T12:40:45Z</time>
      </trkpt>
      <trkpt lat="43.63204" lon="6.61977">
        <ele>651.43</ele>
        <time>2016-09-28T12:40:48Z</time>
      </trkpt>
      <trkpt lat="43.63208" lon="6.62001">
        <ele>651.43</ele>
        <time>2016-09-28T12:41:03Z</time>
      </trkpt>
      <trkpt lat="43.63212" lon="6.62021">
        <ele>651.43</ele>
        <time>2016-09-28T12:41:17Z</time>
      </trkpt>
      <trkpt lat="43.63216" lon="6.62039">
        <ele>652.39</ele>
        <time>2016-09-28T12:41:30Z</time>
      </trkpt>
      <trkpt lat="43.63219" lon="6.6205">
        <ele>652.87</ele>
        <time>2016-09-28T12:41:39Z</time>
      </trkpt>
      <trkpt lat="43.63226" lon="6.62063">
        <ele>654.31</ele>
        <time>2016-09-28T12:41:50Z</time>
      </trkpt>
      <trkpt lat="43.63233" lon="6.62079">
        <ele>655.28</ele>
        <time>2016-09-28T12:42:04Z</time>
      </trkpt>
      <trkpt lat="43.63241" lon="6.62094">
        <ele>656.72</ele>
        <time>2016-09-28T12:42:18Z</time>
      </trkpt>
      <trkpt lat="43.63243" lon="6.62098">
        <ele>657.2</ele>
        <time>2016-09-28T12:42:21Z</time>
      </trkpt>
      <trkpt lat="43.63251" lon="6.62113">
        <ele>658.64</ele>
        <time>2016-09-28T12:42:35Z</time>
      </trkpt>
      <trkpt lat="43.63255" lon="6.62117">
        <ele>658.64</ele>
        <time>2016-09-28T12:42:39Z</time>
      </trkpt>
      <trkpt lat="43.6326" lon="6.6212">
        <ele>659.12</ele>
        <time>2016-09-28T12:42:43Z</time>
      </trkpt>
      <trkpt lat="43.63265" lon="6.62127">
        <ele>659.12</ele>
        <time>2016-09-28T12:42:56Z</time>
      </trkpt>
      <trkpt lat="43.63274" lon="6.62131">
        <ele>659.6</ele>
        <time>2016-09-28T12:43:08Z</time>
      </trkpt>
      <trkpt lat="43.63287" lon="6.62138">
        <ele>660.08</ele>
        <time>2016-09-28T12:43:22Z</time>
      </trkpt>
      <trkpt lat="43.63289" lon="6.62141">
        <ele>660.08</ele>
        <time>2016-09-28T12:43:26Z</time>
      </trkpt>
      <trkpt lat="43.63302" lon="6.62148">
        <ele>659.6</ele>
        <time>2016-09-28T12:43:39Z</time>
      </trkpt>
      <trkpt lat="43.63306" lon="6.62151">
        <ele>659.6</ele>
        <time>2016-09-28T12:43:44Z</time>
      </trkpt>
      <trkpt lat="43.63313" lon="6.62154">
        <ele>659.6</ele>
        <time>2016-09-28T12:43:50Z</time>
      </trkpt>
      <trkpt lat="43.63326" lon="6.62164">
        <ele>659.12</ele>
        <time>2016-09-28T12:44:04Z</time>
      </trkpt>
      <trkpt lat="43.63335" lon="6.62177">
        <ele>658.64</ele>
        <time>2016-09-28T12:44:16Z</time>
      </trkpt>
      <trkpt lat="43.63345" lon="6.62191">
        <ele>658.64</ele>
        <time>2016-09-28T12:44:28Z</time>
      </trkpt>
      <trkpt lat="43.63346" lon="6.62197">
        <ele>658.16</ele>
        <time>2016-09-28T12:44:32Z</time>
      </trkpt>
      <trkpt lat="43.63347" lon="6.62202">
        <ele>658.16</ele>
        <time>2016-09-28T12:44:36Z</time>
      </trkpt>
      <trkpt lat="43.63347" lon="6.62217">
        <ele>656.72</ele>
        <time>2016-09-28T12:44:47Z</time>
      </trkpt>
      <trkpt lat="43.63349" lon="6.62221">
        <ele>656.72</ele>
        <time>2016-09-28T12:45:01Z</time>
      </trkpt>
      <trkpt lat="43.63349" lon="6.62224">
        <ele>656.72</ele>
        <time>2016-09-28T12:45:03Z</time>
      </trkpt>
      <trkpt lat="43.63346" lon="6.62246">
        <ele>655.76</ele>
        <time>2016-09-28T12:45:16Z</time>
      </trkpt>
      <trkpt lat="43.63344" lon="6.62261">
        <ele>655.28</ele>
        <time>2016-09-28T12:45:25Z</time>
      </trkpt>
      <trkpt lat="43.63344" lon="6.62268">
        <ele>655.28</ele>
        <time>2016-09-28T12:45:29Z</time>
      </trkpt>
      <trkpt lat="43.63342" lon="6.62288">
        <ele>655.28</ele>
        <time>2016-09-28T12:45:41Z</time>
      </trkpt>
      <trkpt lat="43.63343" lon="6.623">
        <ele>655.28</ele>
        <time>2016-09-28T12:45:48Z</time>
      </trkpt>
      <trkpt lat="43.63339" lon="6.62322">
        <ele>653.83</ele>
        <time>2016-09-28T12:46:02Z</time>
      </trkpt>
      <trkpt lat="43.63335" lon="6.62328">
        <ele>652.87</ele>
        <time>2016-09-28T12:46:08Z</time>
      </trkpt>
      <trkpt lat="43.63321" lon="6.62347">
        <ele>650.95</ele>
        <time>2016-09-28T12:46:24Z</time>
      </trkpt>
      <trkpt lat="43.63316" lon="6.62365">
        <ele>649.03</ele>
        <time>2016-09-28T12:46:36Z</time>
      </trkpt>
      <trkpt lat="43.63312" lon="6.62382">
        <ele>647.1</ele>
        <time>2016-09-28T12:46:48Z</time>
      </trkpt>
      <trkpt lat="43.63303" lon="6.62404">
        <ele>646.14</ele>
        <time>2016-09-28T12:47:03Z</time>
      </trkpt>
      <trkpt lat="43.63302" lon="6.62408">
        <ele>646.14</ele>
        <time>2016-09-28T12:47:05Z</time>
      </trkpt>
      <trkpt lat="43.63301" lon="6.62413">
        <ele>645.66</ele>
        <time>2016-09-28T12:47:09Z</time>
      </trkpt>
      <trkpt lat="43.63301" lon="6.62418">
        <ele>645.66</ele>
        <time>2016-09-28T12:47:12Z</time>
      </trkpt>
      <trkpt lat="43.63299" lon="6.62438">
        <ele>645.18</ele>
        <time>2016-09-28T12:47:25Z</time>
      </trkpt>
      <trkpt lat="43.63299" lon="6.62441">
        <ele>645.18</ele>
        <time>2016-09-28T12:47:27Z</time>
      </trkpt>
      <trkpt lat="43.63296" lon="6.62456">
        <ele>644.7</ele>
        <time>2016-09-28T12:47:36Z</time>
      </trkpt>
      <trkpt lat="43.63295" lon="6.62459">
        <ele>644.22</ele>
        <time>2016-09-28T12:47:38Z</time>
      </trkpt>
      <trkpt lat="43.63294" lon="6.62461">
        <ele>643.74</ele>
        <time>2016-09-28T12:47:41Z</time>
      </trkpt>
      <trkpt lat="43.63284" lon="6.62474">
        <ele>641.82</ele>
        <time>2016-09-28T12:47:55Z</time>
      </trkpt>
      <trkpt lat="43.63276" lon="6.62491">
        <ele>639.89</ele>
        <time>2016-09-28T12:48:08Z</time>
      </trkpt>
      <trkpt lat="43.63275" lon="6.62498">
        <ele>639.41</ele>
        <time>2016-09-28T12:48:12Z</time>
      </trkpt>
      <trkpt lat="43.63266" lon="6.62515">
        <ele>637.49</ele>
        <time>2016-09-28T12:48:26Z</time>
      </trkpt>
      <trkpt lat="43.63264" lon="6.62517">
        <ele>637.01</ele>
        <time>2016-09-28T12:48:29Z</time>
      </trkpt>
      <trkpt lat="43.63252" lon="6.62535">
        <ele>635.09</ele>
        <time>2016-09-28T12:48:43Z</time>
      </trkpt>
      <trkpt lat="43.63251" lon="6.62539">
        <ele>635.57</ele>
        <time>2016-09-28T12:48:45Z</time>
      </trkpt>
      <trkpt lat="43.6325" lon="6.62543">
        <ele>634.61</ele>
        <time>2016-09-28T12:48:47Z</time>
      </trkpt>
      <trkpt lat="43.63249" lon="6.62556">
        <ele>634.61</ele>
        <time>2016-09-28T12:48:53Z</time>
      </trkpt>
      <trkpt lat="43.63252" lon="6.62575">
        <ele>633.65</ele>
        <time>2016-09-28T12:49:05Z</time>
      </trkpt>
      <trkpt lat="43.63248" lon="6.62584">
        <ele>632.68</ele>
        <time>2016-09-28T12:49:17Z</time>
      </trkpt>
      <trkpt lat="43.63245" lon="6.62588">
        <ele>632.68</ele>
        <time>2016-09-28T12:49:20Z</time>
      </trkpt>
      <trkpt lat="43.63235" lon="6.62598">
        <ele>630.76</ele>
        <time>2016-09-28T12:49:34Z</time>
      </trkpt>
      <trkpt lat="43.63224" lon="6.62607">
        <ele>629.32</ele>
        <time>2016-09-28T12:49:46Z</time>
      </trkpt>
      <trkpt lat="43.63211" lon="6.62613">
        <ele>626.92</ele>
        <time>2016-09-28T12:50:00Z</time>
      </trkpt>
      <trkpt lat="43.63199" lon="6.62619">
        <ele>624.99</ele>
        <time>2016-09-28T12:50:13Z</time>
      </trkpt>
      <trkpt lat="43.63188" lon="6.6262">
        <ele>624.03</ele>
        <time>2016-09-28T12:50:24Z</time>
      </trkpt>
      <trkpt lat="43.63173" lon="6.62623">
        <ele>621.63</ele>
        <time>2016-09-28T12:50:38Z</time>
      </trkpt>
      <trkpt lat="43.6316" lon="6.62625">
        <ele>619.71</ele>
        <time>2016-09-28T12:50:52Z</time>
      </trkpt>
      <trkpt lat="43.63148" lon="6.62632">
        <ele>618.26</ele>
        <time>2016-09-28T12:51:04Z</time>
      </trkpt>
      <trkpt lat="43.63146" lon="6.62635">
        <ele>617.78</ele>
        <time>2016-09-28T12:51:06Z</time>
      </trkpt>
      <trkpt lat="43.63141" lon="6.62648">
        <ele>616.82</ele>
        <time>2016-09-28T12:51:20Z</time>
      </trkpt>
      <trkpt lat="43.63139" lon="6.62653">
        <ele>616.34</ele>
        <time>2016-09-28T12:51:32Z</time>
      </trkpt>
      <trkpt lat="43.63138" lon="6.62658">
        <ele>616.34</ele>
        <time>2016-09-28T12:51:45Z</time>
      </trkpt>
      <trkpt lat="43.63135" lon="6.62683">
        <ele>617.3</ele>
        <time>2016-09-28T12:51:59Z</time>
      </trkpt>
      <trkpt lat="43.63136" lon="6.62687">
        <ele>617.3</ele>
        <time>2016-09-28T12:52:02Z</time>
      </trkpt>
      <trkpt lat="43.63137" lon="6.62699">
        <ele>618.26</ele>
        <time>2016-09-28T12:52:10Z</time>
      </trkpt>
      <trkpt lat="43.63143" lon="6.62722">
        <ele>619.71</ele>
        <time>2016-09-28T12:52:24Z</time>
      </trkpt>
      <trkpt lat="43.63143" lon="6.62737">
        <ele>619.71</ele>
        <time>2016-09-28T12:52:36Z</time>
      </trkpt>
      <trkpt lat="43.63146" lon="6.62756">
        <ele>619.23</ele>
        <time>2016-09-28T12:52:46Z</time>
      </trkpt>
      <trkpt lat="43.63146" lon="6.62773">
        <ele>618.75</ele>
        <time>2016-09-28T12:52:57Z</time>
      </trkpt>
      <trkpt lat="43.63154" lon="6.62795">
        <ele>619.23</ele>
        <time>2016-09-28T12:53:11Z</time>
      </trkpt>
      <trkpt lat="43.63161" lon="6.62809">
        <ele>619.23</ele>
        <time>2016-09-28T12:53:21Z</time>
      </trkpt>
      <trkpt lat="43.63169" lon="6.62819">
        <ele>618.75</ele>
        <time>2016-09-28T12:53:31Z</time>
      </trkpt>
      <trkpt lat="43.63172" lon="6.62825">
        <ele>618.26</ele>
        <time>2016-09-28T12:53:36Z</time>
      </trkpt>
      <trkpt lat="43.63176" lon="6.62832">
        <ele>618.26</ele>
        <time>2016-09-28T12:53:43Z</time>
      </trkpt>
      <trkpt lat="43.63186" lon="6.62852">
        <ele>617.78</ele>
        <time>2016-09-28T12:53:59Z</time>
      </trkpt>
      <trkpt lat="43.63187" lon="6.6287">
        <ele>616.82</ele>
        <time>2016-09-28T12:54:12Z</time>
      </trkpt>
      <trkpt lat="43.63187" lon="6.62877">
        <ele>616.82</ele>
        <time>2016-09-28T12:54:17Z</time>
      </trkpt>
      <trkpt lat="43.63187" lon="6.62891">
        <ele>616.82</ele>
        <time>2016-09-28T12:54:26Z</time>
      </trkpt>
      <trkpt lat="43.6319" lon="6.62918">
        <ele>616.34</ele>
        <time>2016-09-28T12:54:41Z</time>
      </trkpt>
      <trkpt lat="43.63195" lon="6.62936">
        <ele>616.82</ele>
        <time>2016-09-28T12:54:52Z</time>
      </trkpt>
      <trkpt lat="43.632" lon="6.62957">
        <ele>617.3</ele>
        <time>2016-09-28T12:55:06Z</time>
      </trkpt>
      <trkpt lat="43.63201" lon="6.6296">
        <ele>617.3</ele>
        <time>2016-09-28T12:55:08Z</time>
      </trkpt>
      <trkpt lat="43.63201" lon="6.62983">
        <ele>618.26</ele>
        <time>2016-09-28T12:55:23Z</time>
      </trkpt>
      <trkpt lat="43.63203" lon="6.63003">
        <ele>618.26</ele>
        <time>2016-09-28T12:55:36Z</time>
      </trkpt>
      <trkpt lat="43.63201" lon="6.63019">
        <ele>618.75</ele>
        <time>2016-09-28T12:55:46Z</time>
      </trkpt>
      <trkpt lat="43.63198" lon="6.63041">
        <ele>620.19</ele>
        <time>2016-09-28T12:56:01Z</time>
      </trkpt>
      <trkpt lat="43.63197" lon="6.63045">
        <ele>620.67</ele>
        <time>2016-09-28T12:56:04Z</time>
      </trkpt>
      <trkpt lat="43.63196" lon="6.6305">
        <ele>620.67</ele>
        <time>2016-09-28T12:56:08Z</time>
      </trkpt>
      <trkpt lat="43.63194" lon="6.63055">
        <ele>621.15</ele>
        <time>2016-09-28T12:56:11Z</time>
      </trkpt>
      <trkpt lat="43.63186" lon="6.63077">
        <ele>622.11</ele>
        <time>2016-09-28T12:56:26Z</time>
      </trkpt>
      <trkpt lat="43.63184" lon="6.63081">
        <ele>622.59</ele>
        <time>2016-09-28T12:56:30Z</time>
      </trkpt>
      <trkpt lat="43.6318" lon="6.63096">
        <ele>623.07</ele>
        <time>2016-09-28T12:56:42Z</time>
      </trkpt>
      <trkpt lat="43.63175" lon="6.63117">
        <ele>624.03</ele>
        <time>2016-09-28T12:56:55Z</time>
      </trkpt>
      <trkpt lat="43.6318" lon="6.63133">
        <ele>625.47</ele>
        <time>2016-09-28T12:57:10Z</time>
      </trkpt>
      <trkpt lat="43.63183" lon="6.63137">
        <ele>625.96</ele>
        <time>2016-09-28T12:57:30Z</time>
      </trkpt>
      <trkpt lat="43.63186" lon="6.63143">
        <ele>625.96</ele>
        <time>2016-09-28T12:57:40Z</time>
      </trkpt>
      <trkpt lat="43.63188" lon="6.63147">
        <ele>625.96</ele>
        <time>2016-09-28T12:57:44Z</time>
      </trkpt>
      <trkpt lat="43.63198" lon="6.63156">
        <ele>624.99</ele>
        <time>2016-09-28T12:57:54Z</time>
      </trkpt>
      <trkpt lat="43.63206" lon="6.63161">
        <ele>624.51</ele>
        <time>2016-09-28T12:58:01Z</time>
      </trkpt>
      <trkpt lat="43.63225" lon="6.63164">
        <ele>624.03</ele>
        <time>2016-09-28T12:58:18Z</time>
      </trkpt>
      <trkpt lat="43.63245" lon="6.63169">
        <ele>623.07</ele>
        <time>2016-09-28T12:58:36Z</time>
      </trkpt>
      <trkpt lat="43.63253" lon="6.63169">
        <ele>623.07</ele>
        <time>2016-09-28T12:58:43Z</time>
      </trkpt>
      <trkpt lat="43.6326" lon="6.63169">
        <ele>622.59</ele>
        <time>2016-09-28T12:58:49Z</time>
      </trkpt>
      <trkpt lat="43.63264" lon="6.63169">
        <ele>622.59</ele>
        <time>2016-09-28T12:58:52Z</time>
      </trkpt>
      <trkpt lat="43.63278" lon="6.6317">
        <ele>622.11</ele>
        <time>2016-09-28T12:59:06Z</time>
      </trkpt>
      <trkpt lat="43.63295" lon="6.63168">
        <ele>622.11</ele>
        <time>2016-09-28T12:59:20Z</time>
      </trkpt>
      <trkpt lat="43.63296" lon="6.63167">
        <ele>621.63</ele>
        <time>2016-09-28T12:59:39Z</time>
      </trkpt>
      <trkpt lat="43.63296" lon="6.63167">
        <ele>622.11</ele>
        <time>2016-09-28T12:59:44Z</time>
      </trkpt>
      <trkpt lat="43.63299" lon="6.63165">
        <ele>622.11</ele>
        <time>2016-09-28T12:59:47Z</time>
      </trkpt>
      <trkpt lat="43.63315" lon="6.63154">
        <ele>622.59</ele>
        <time>2016-09-28T13:00:02Z</time>
      </trkpt>
      <trkpt lat="43.6333" lon="6.63148">
        <ele>623.55</ele>
        <time>2016-09-28T13:00:16Z</time>
      </trkpt>
      <trkpt lat="43.6333" lon="6.63147">
        <ele>623.07</ele>
        <time>2016-09-28T13:00:30Z</time>
      </trkpt>
      <trkpt lat="43.6334" lon="6.63147">
        <ele>623.07</ele>
        <time>2016-09-28T13:00:45Z</time>
      </trkpt>
      <trkpt lat="43.63346" lon="6.63147">
        <ele>623.55</ele>
        <time>2016-09-28T13:00:58Z</time>
      </trkpt>
      <trkpt lat="43.63347" lon="6.63146">
        <ele>623.55</ele>
        <time>2016-09-28T13:01:15Z</time>
      </trkpt>
      <trkpt lat="43.63348" lon="6.63146">
        <ele>623.55</ele>
        <time>2016-09-28T13:01:38Z</time>
      </trkpt>
      <trkpt lat="43.63349" lon="6.63146">
        <ele>623.55</ele>
        <time>2016-09-28T13:01:56Z</time>
      </trkpt>
      <trkpt lat="43.63354" lon="6.63145">
        <ele>623.55</ele>
        <time>2016-09-28T13:02:00Z</time>
      </trkpt>
      <trkpt lat="43.63364" lon="6.63144">
        <ele>623.07</ele>
        <time>2016-09-28T13:02:12Z</time>
      </trkpt>
      <trkpt lat="43.63365" lon="6.63144">
        <ele>623.07</ele>
        <time>2016-09-28T13:02:13Z</time>
      </trkpt>
      <trkpt lat="43.63381" lon="6.63135">
        <ele>622.59</ele>
        <time>2016-09-28T13:02:31Z</time>
      </trkpt>
      <trkpt lat="43.63386" lon="6.63132">
        <ele>622.11</ele>
        <time>2016-09-28T13:02:45Z</time>
      </trkpt>
      <trkpt lat="43.63388" lon="6.63132">
        <ele>622.11</ele>
        <time>2016-09-28T13:03:10Z</time>
      </trkpt>
      <trkpt lat="43.63388" lon="6.63132">
        <ele>622.11</ele>
        <time>2016-09-28T13:03:32Z</time>
      </trkpt>
      <trkpt lat="43.63388" lon="6.63132">
        <ele>621.63</ele>
        <time>2016-09-28T13:03:55Z</time>
      </trkpt>
      <trkpt lat="43.63391" lon="6.63132">
        <ele>621.63</ele>
        <time>2016-09-28T13:04:03Z</time>
      </trkpt>
      <trkpt lat="43.634" lon="6.63131">
        <ele>621.63</ele>
        <time>2016-09-28T13:04:11Z</time>
      </trkpt>
      <trkpt lat="43.63403" lon="6.63131">
        <ele>621.15</ele>
        <time>2016-09-28T13:04:14Z</time>
      </trkpt>
      <trkpt lat="43.63424" lon="6.63125">
        <ele>619.71</ele>
        <time>2016-09-28T13:04:31Z</time>
      </trkpt>
      <trkpt lat="43.63437" lon="6.63122">
        <ele>619.23</ele>
        <time>2016-09-28T13:04:43Z</time>
      </trkpt>
      <trkpt lat="43.6344" lon="6.63122">
        <ele>619.23</ele>
        <time>2016-09-28T13:04:45Z</time>
      </trkpt>
      <trkpt lat="43.63452" lon="6.6312">
        <ele>619.23</ele>
        <time>2016-09-28T13:04:57Z</time>
      </trkpt>
      <trkpt lat="43.63458" lon="6.6312">
        <ele>619.71</ele>
        <time>2016-09-28T13:05:02Z</time>
      </trkpt>
      <trkpt lat="43.63464" lon="6.6312">
        <ele>620.19</ele>
        <time>2016-09-28T13:05:07Z</time>
      </trkpt>
      <trkpt lat="43.63467" lon="6.63122">
        <ele>620.19</ele>
        <time>2016-09-28T13:05:10Z</time>
      </trkpt>
      <trkpt lat="43.63475" lon="6.63126">
        <ele>621.15</ele>
        <time>2016-09-28T13:05:19Z</time>
      </trkpt>
      <trkpt lat="43.63479" lon="6.63129">
        <ele>621.63</ele>
        <time>2016-09-28T13:05:23Z</time>
      </trkpt>
      <trkpt lat="43.63482" lon="6.6313">
        <ele>621.63</ele>
        <time>2016-09-28T13:05:26Z</time>
      </trkpt>
      <trkpt lat="43.63494" lon="6.63145">
        <ele>622.11</ele>
        <time>2016-09-28T13:05:41Z</time>
      </trkpt>
      <trkpt lat="43.63495" lon="6.63147">
        <ele>622.11</ele>
        <time>2016-09-28T13:05:43Z</time>
      </trkpt>
      <trkpt lat="43.63496" lon="6.63153">
        <ele>622.59</ele>
        <time>2016-09-28T13:05:48Z</time>
      </trkpt>
      <trkpt lat="43.63507" lon="6.63169">
        <ele>623.55</ele>
        <time>2016-09-28T13:06:03Z</time>
      </trkpt>
      <trkpt lat="43.63515" lon="6.63182">
        <ele>624.51</ele>
        <time>2016-09-28T13:06:14Z</time>
      </trkpt>
      <trkpt lat="43.6352" lon="6.63196">
        <ele>622.59</ele>
        <time>2016-09-28T13:06:26Z</time>
      </trkpt>
      <trkpt lat="43.63524" lon="6.63206">
        <ele>621.15</ele>
        <time>2016-09-28T13:06:32Z</time>
      </trkpt>
      <trkpt lat="43.6353" lon="6.63215">
        <ele>619.71</ele>
        <time>2016-09-28T13:06:39Z</time>
      </trkpt>
      <trkpt lat="43.63536" lon="6.6322">
        <ele>619.23</ele>
        <time>2016-09-28T13:06:44Z</time>
      </trkpt>
      <trkpt lat="43.63544" lon="6.63229">
        <ele>617.78</ele>
        <time>2016-09-28T13:06:54Z</time>
      </trkpt>
      <trkpt lat="43.63549" lon="6.63235">
        <ele>617.3</ele>
        <time>2016-09-28T13:07:00Z</time>
      </trkpt>
      <trkpt lat="43.63559" lon="6.63245">
        <ele>615.86</ele>
        <time>2016-09-28T13:07:11Z</time>
      </trkpt>
      <trkpt lat="43.63561" lon="6.63249">
        <ele>615.38</ele>
        <time>2016-09-28T13:07:14Z</time>
      </trkpt>
      <trkpt lat="43.63567" lon="6.63262">
        <ele>613.94</ele>
        <time>2016-09-28T13:07:23Z</time>
      </trkpt>
      <trkpt lat="43.63573" lon="6.63274">
        <ele>612.02</ele>
        <time>2016-09-28T13:07:36Z</time>
      </trkpt>
      <trkpt lat="43.63577" lon="6.63286">
        <ele>610.57</ele>
        <time>2016-09-28T13:07:48Z</time>
      </trkpt>
      <trkpt lat="43.63578" lon="6.6329">
        <ele>610.57</ele>
        <time>2016-09-28T13:07:51Z</time>
      </trkpt>
      <trkpt lat="43.63581" lon="6.63297">
        <ele>610.09</ele>
        <time>2016-09-28T13:07:57Z</time>
      </trkpt>
      <trkpt lat="43.63588" lon="6.63316">
        <ele>608.65</ele>
        <time>2016-09-28T13:08:11Z</time>
      </trkpt>
      <trkpt lat="43.63594" lon="6.63332">
        <ele>607.69</ele>
        <time>2016-09-28T13:08:25Z</time>
      </trkpt>
      <trkpt lat="43.63595" lon="6.63332">
        <ele>607.21</ele>
        <time>2016-09-28T13:08:41Z</time>
      </trkpt>
      <trkpt lat="43.63595" lon="6.63331">
        <ele>607.21</ele>
        <time>2016-09-28T13:09:05Z</time>
      </trkpt>
      <trkpt lat="43.63596" lon="6.63333">
        <ele>607.21</ele>
        <time>2016-09-28T13:09:25Z</time>
      </trkpt>
      <trkpt lat="43.63597" lon="6.63337">
        <ele>606.73</ele>
        <time>2016-09-28T13:09:28Z</time>
      </trkpt>
      <trkpt lat="43.63599" lon="6.63344">
        <ele>606.25</ele>
        <time>2016-09-28T13:09:33Z</time>
      </trkpt>
      <trkpt lat="43.63599" lon="6.63347">
        <ele>605.77</ele>
        <time>2016-09-28T13:09:35Z</time>
      </trkpt>
      <trkpt lat="43.63603" lon="6.63364">
        <ele>604.81</ele>
        <time>2016-09-28T13:09:46Z</time>
      </trkpt>
      <trkpt lat="43.63607" lon="6.63372">
        <ele>603.85</ele>
        <time>2016-09-28T13:09:53Z</time>
      </trkpt>
      <trkpt lat="43.63614" lon="6.63392">
        <ele>602.4</ele>
        <time>2016-09-28T13:10:09Z</time>
      </trkpt>
      <trkpt lat="43.63616" lon="6.63405">
        <ele>600.96</ele>
        <time>2016-09-28T13:10:20Z</time>
      </trkpt>
      <trkpt lat="43.63618" lon="6.63411">
        <ele>600.48</ele>
        <time>2016-09-28T13:10:24Z</time>
      </trkpt>
      <trkpt lat="43.63623" lon="6.63426">
        <ele>599.52</ele>
        <time>2016-09-28T13:10:35Z</time>
      </trkpt>
      <trkpt lat="43.63624" lon="6.63431">
        <ele>599.04</ele>
        <time>2016-09-28T13:10:41Z</time>
      </trkpt>
      <trkpt lat="43.63624" lon="6.63446">
        <ele>597.6</ele>
        <time>2016-09-28T13:10:54Z</time>
      </trkpt>
      <trkpt lat="43.63624" lon="6.63451">
        <ele>597.12</ele>
        <time>2016-09-28T13:10:57Z</time>
      </trkpt>
      <trkpt lat="43.63623" lon="6.63458">
        <ele>596.64</ele>
        <time>2016-09-28T13:11:02Z</time>
      </trkpt>
      <trkpt lat="43.63622" lon="6.63468">
        <ele>596.15</ele>
        <time>2016-09-28T13:11:08Z</time>
      </trkpt>
      <trkpt lat="43.63619" lon="6.63485">
        <ele>595.19</ele>
        <time>2016-09-28T13:11:18Z</time>
      </trkpt>
      <trkpt lat="43.63617" lon="6.63495">
        <ele>594.23</ele>
        <time>2016-09-28T13:11:23Z</time>
      </trkpt>
      <trkpt lat="43.63616" lon="6.63509">
        <ele>594.23</ele>
        <time>2016-09-28T13:11:29Z</time>
      </trkpt>
      <trkpt lat="43.63616" lon="6.63518">
        <ele>594.71</ele>
        <time>2016-09-28T13:11:33Z</time>
      </trkpt>
      <trkpt lat="43.63619" lon="6.63534">
        <ele>594.71</ele>
        <time>2016-09-28T13:11:41Z</time>
      </trkpt>
      <trkpt lat="43.6362" lon="6.63539">
        <ele>594.71</ele>
        <time>2016-09-28T13:11:44Z</time>
      </trkpt>
      <trkpt lat="43.6363" lon="6.63556">
        <ele>592.79</ele>
        <time>2016-09-28T13:11:59Z</time>
      </trkpt>
      <trkpt lat="43.63635" lon="6.63562">
        <ele>592.31</ele>
        <time>2016-09-28T13:12:04Z</time>
      </trkpt>
      <trkpt lat="43.63638" lon="6.63564">
        <ele>591.83</ele>
        <time>2016-09-28T13:12:06Z</time>
      </trkpt>
      <trkpt lat="43.63646" lon="6.63569">
        <ele>591.35</ele>
        <time>2016-09-28T13:12:12Z</time>
      </trkpt>
      <trkpt lat="43.63649" lon="6.6357">
        <ele>590.87</ele>
        <time>2016-09-28T13:12:15Z</time>
      </trkpt>
      <trkpt lat="43.63652" lon="6.63573">
        <ele>590.39</ele>
        <time>2016-09-28T13:12:18Z</time>
      </trkpt>
      <trkpt lat="43.63659" lon="6.63577">
        <ele>589.43</ele>
        <time>2016-09-28T13:12:26Z</time>
      </trkpt>
      <trkpt lat="43.63663" lon="6.63582">
        <ele>588.95</ele>
        <time>2016-09-28T13:12:30Z</time>
      </trkpt>
      <trkpt lat="43.63671" lon="6.63586">
        <ele>588.46</ele>
        <time>2016-09-28T13:12:40Z</time>
      </trkpt>
      <trkpt lat="43.63676" lon="6.63589">
        <ele>587.98</ele>
        <time>2016-09-28T13:12:45Z</time>
      </trkpt>
      <trkpt lat="43.63681" lon="6.63593">
        <ele>587.02</ele>
        <time>2016-09-28T13:12:52Z</time>
      </trkpt>
      <trkpt lat="43.63683" lon="6.63596">
        <ele>586.54</ele>
        <time>2016-09-28T13:13:11Z</time>
      </trkpt>
      <trkpt lat="43.63683" lon="6.63596">
        <ele>587.02</ele>
        <time>2016-09-28T13:13:15Z</time>
      </trkpt>
      <trkpt lat="43.63686" lon="6.63596">
        <ele>586.54</ele>
        <time>2016-09-28T13:13:17Z</time>
      </trkpt>
      <trkpt lat="43.63688" lon="6.63597">
        <ele>586.06</ele>
        <time>2016-09-28T13:13:20Z</time>
      </trkpt>
      <trkpt lat="43.63692" lon="6.63598">
        <ele>586.06</ele>
        <time>2016-09-28T13:13:23Z</time>
      </trkpt>
      <trkpt lat="43.63701" lon="6.63602">
        <ele>585.58</ele>
        <time>2016-09-28T13:13:35Z</time>
      </trkpt>
      <trkpt lat="43.63704" lon="6.63602">
        <ele>585.1</ele>
        <time>2016-09-28T13:13:38Z</time>
      </trkpt>
      <trkpt lat="43.63716" lon="6.63605">
        <ele>583.18</ele>
        <time>2016-09-28T13:13:48Z</time>
      </trkpt>
      <trkpt lat="43.63729" lon="6.63611">
        <ele>581.73</ele>
        <time>2016-09-28T13:14:01Z</time>
      </trkpt>
      <trkpt lat="43.63745" lon="6.63616">
        <ele>580.77</ele>
        <time>2016-09-28T13:14:15Z</time>
      </trkpt>
      <trkpt lat="43.63762" lon="6.63621">
        <ele>579.81</ele>
        <time>2016-09-28T13:14:30Z</time>
      </trkpt>
      <trkpt lat="43.63773" lon="6.63625">
        <ele>579.33</ele>
        <time>2016-09-28T13:14:40Z</time>
      </trkpt>
      <trkpt lat="43.63776" lon="6.63626">
        <ele>579.33</ele>
        <time>2016-09-28T13:14:43Z</time>
      </trkpt>
      <trkpt lat="43.63782" lon="6.63628">
        <ele>578.85</ele>
        <time>2016-09-28T13:14:49Z</time>
      </trkpt>
      <trkpt lat="43.63797" lon="6.63625">
        <ele>578.85</ele>
        <time>2016-09-28T13:15:03Z</time>
      </trkpt>
      <trkpt lat="43.63809" lon="6.63623">
        <ele>578.37</ele>
        <time>2016-09-28T13:15:16Z</time>
      </trkpt>
      <trkpt lat="43.63812" lon="6.63621">
        <ele>577.89</ele>
        <time>2016-09-28T13:15:20Z</time>
      </trkpt>
      <trkpt lat="43.63815" lon="6.63619">
        <ele>577.89</ele>
        <time>2016-09-28T13:15:23Z</time>
      </trkpt>
      <trkpt lat="43.63819" lon="6.63618">
        <ele>577.41</ele>
        <time>2016-09-28T13:15:26Z</time>
      </trkpt>
      <trkpt lat="43.6382" lon="6.63623">
        <ele>575.01</ele>
        <time>2016-09-28T13:15:39Z</time>
      </trkpt>
      <trkpt lat="43.63813" lon="6.63625">
        <ele>574.04</ele>
        <time>2016-09-28T13:15:46Z</time>
      </trkpt>
      <trkpt lat="43.63797" lon="6.63639">
        <ele>572.12</ele>
        <time>2016-09-28T13:16:03Z</time>
      </trkpt>
      <trkpt lat="43.63788" lon="6.63649">
        <ele>571.16</ele>
        <time>2016-09-28T13:16:14Z</time>
      </trkpt>
      <trkpt lat="43.63784" lon="6.63651">
        <ele>570.68</ele>
        <time>2016-09-28T13:16:18Z</time>
      </trkpt>
      <trkpt lat="43.6378" lon="6.63651">
        <ele>570.2</ele>
        <time>2016-09-28T13:16:21Z</time>
      </trkpt>
      <trkpt lat="43.63766" lon="6.63646">
        <ele>569.24</ele>
        <time>2016-09-28T13:16:35Z</time>
      </trkpt>
      <trkpt lat="43.63748" lon="6.63648">
        <ele>567.8</ele>
        <time>2016-09-28T13:16:51Z</time>
      </trkpt>
      <trkpt lat="43.63747" lon="6.63648">
        <ele>567.8</ele>
        <time>2016-09-28T13:16:52Z</time>
      </trkpt>
      <trkpt lat="43.63731" lon="6.6365">
        <ele>567.32</ele>
        <time>2016-09-28T13:17:07Z</time>
      </trkpt>
      <trkpt lat="43.6371" lon="6.63653">
        <ele>567.8</ele>
        <time>2016-09-28T13:17:23Z</time>
      </trkpt>
      <trkpt lat="43.637" lon="6.63654">
        <ele>567.8</ele>
        <time>2016-09-28T13:17:33Z</time>
      </trkpt>
      <trkpt lat="43.63687" lon="6.63653">
        <ele>567.8</ele>
        <time>2016-09-28T13:17:45Z</time>
      </trkpt>
      <trkpt lat="43.63672" lon="6.63649">
        <ele>566.35</ele>
        <time>2016-09-28T13:17:58Z</time>
      </trkpt>
      <trkpt lat="43.63653" lon="6.63645">
        <ele>564.91</ele>
        <time>2016-09-28T13:18:14Z</time>
      </trkpt>
      <trkpt lat="43.63633" lon="6.63642">
        <ele>564.91</ele>
        <time>2016-09-28T13:18:31Z</time>
      </trkpt>
      <trkpt lat="43.63632" lon="6.63641">
        <ele>564.91</ele>
        <time>2016-09-28T13:18:32Z</time>
      </trkpt>
      <trkpt lat="43.63623" lon="6.63641">
        <ele>564.91</ele>
        <time>2016-09-28T13:18:40Z</time>
      </trkpt>
      <trkpt lat="43.63616" lon="6.63641">
        <ele>563.95</ele>
        <time>2016-09-28T13:18:47Z</time>
      </trkpt>
      <trkpt lat="43.63605" lon="6.63647">
        <ele>562.51</ele>
        <time>2016-09-28T13:19:02Z</time>
      </trkpt>
      <trkpt lat="43.63606" lon="6.63648">
        <ele>562.03</ele>
        <time>2016-09-28T13:19:21Z</time>
      </trkpt>
      <trkpt lat="43.63609" lon="6.63659">
        <ele>560.59</ele>
        <time>2016-09-28T13:19:37Z</time>
      </trkpt>
      <trkpt lat="43.63614" lon="6.63668">
        <ele>559.62</ele>
        <time>2016-09-28T13:19:49Z</time>
      </trkpt>
      <trkpt lat="43.63623" lon="6.63676">
        <ele>558.66</ele>
        <time>2016-09-28T13:20:01Z</time>
      </trkpt>
      <trkpt lat="43.6363" lon="6.63681">
        <ele>557.7</ele>
        <time>2016-09-28T13:20:12Z</time>
      </trkpt>
      <trkpt lat="43.63633" lon="6.63683">
        <ele>556.74</ele>
        <time>2016-09-28T13:20:16Z</time>
      </trkpt>
      <trkpt lat="43.63643" lon="6.63687">
        <ele>555.78</ele>
        <time>2016-09-28T13:20:29Z</time>
      </trkpt>
      <trkpt lat="43.63648" lon="6.63688">
        <ele>555.3</ele>
        <time>2016-09-28T13:20:43Z</time>
      </trkpt>
      <trkpt lat="43.63649" lon="6.63688">
        <ele>554.82</ele>
        <time>2016-09-28T13:21:04Z</time>
      </trkpt>
      <trkpt lat="43.63656" lon="6.63688">
        <ele>554.34</ele>
        <time>2016-09-28T13:21:16Z</time>
      </trkpt>
      <trkpt lat="43.63664" lon="6.63692">
        <ele>554.34</ele>
        <time>2016-09-28T13:21:28Z</time>
      </trkpt>
      <trkpt lat="43.63674" lon="6.63697">
        <ele>552.9</ele>
        <time>2016-09-28T13:21:42Z</time>
      </trkpt>
      <trkpt lat="43.63682" lon="6.63701">
        <ele>551.93</ele>
        <time>2016-09-28T13:21:52Z</time>
      </trkpt>
      <trkpt lat="43.63684" lon="6.63702">
        <ele>551.93</ele>
        <time>2016-09-28T13:21:54Z</time>
      </trkpt>
      <trkpt lat="43.6369" lon="6.63705">
        <ele>550.97</ele>
        <time>2016-09-28T13:22:01Z</time>
      </trkpt>
      <trkpt lat="43.63705" lon="6.63708">
        <ele>550.49</ele>
        <time>2016-09-28T13:22:16Z</time>
      </trkpt>
      <trkpt lat="43.63711" lon="6.6371">
        <ele>550.01</ele>
        <time>2016-09-28T13:22:23Z</time>
      </trkpt>
      <trkpt lat="43.63723" lon="6.63711">
        <ele>549.05</ele>
        <time>2016-09-28T13:22:36Z</time>
      </trkpt>
      <trkpt lat="43.63723" lon="6.63713">
        <ele>548.57</ele>
        <time>2016-09-28T13:22:38Z</time>
      </trkpt>
      <trkpt lat="43.63722" lon="6.63716">
        <ele>548.09</ele>
        <time>2016-09-28T13:22:41Z</time>
      </trkpt>
      <trkpt lat="43.63718" lon="6.63717">
        <ele>548.09</ele>
        <time>2016-09-28T13:22:45Z</time>
      </trkpt>
      <trkpt lat="43.63702" lon="6.63714">
        <ele>548.09</ele>
        <time>2016-09-28T13:23:02Z</time>
      </trkpt>
      <trkpt lat="43.63701" lon="6.63714">
        <ele>547.61</ele>
        <time>2016-09-28T13:23:03Z</time>
      </trkpt>
      <trkpt lat="43.63691" lon="6.63714">
        <ele>547.61</ele>
        <time>2016-09-28T13:23:12Z</time>
      </trkpt>
      <trkpt lat="43.6368" lon="6.63713">
        <ele>547.61</ele>
        <time>2016-09-28T13:23:22Z</time>
      </trkpt>
      <trkpt lat="43.63676" lon="6.63712">
        <ele>547.61</ele>
        <time>2016-09-28T13:23:26Z</time>
      </trkpt>
      <trkpt lat="43.63669" lon="6.63713">
        <ele>547.13</ele>
        <time>2016-09-28T13:23:32Z</time>
      </trkpt>
      <trkpt lat="43.6366" lon="6.63716">
        <ele>545.69</ele>
        <time>2016-09-28T13:23:43Z</time>
      </trkpt>
      <trkpt lat="43.63652" lon="6.63723">
        <ele>543.76</ele>
        <time>2016-09-28T13:23:55Z</time>
      </trkpt>
      <trkpt lat="43.63657" lon="6.63739">
        <ele>540.88</ele>
        <time>2016-09-28T13:24:10Z</time>
      </trkpt>
      <trkpt lat="43.63663" lon="6.63745">
        <ele>539.92</ele>
        <time>2016-09-28T13:24:19Z</time>
      </trkpt>
      <trkpt lat="43.63675" lon="6.63755">
        <ele>538.96</ele>
        <time>2016-09-28T13:24:33Z</time>
      </trkpt>
      <trkpt lat="43.6369" lon="6.63763">
        <ele>538.96</ele>
        <time>2016-09-28T13:24:49Z</time>
      </trkpt>
      <trkpt lat="43.63705" lon="6.6377">
        <ele>536.55</ele>
        <time>2016-09-28T13:25:04Z</time>
      </trkpt>
      <trkpt lat="43.63713" lon="6.63772">
        <ele>536.07</ele>
        <time>2016-09-28T13:25:11Z</time>
      </trkpt>
      <trkpt lat="43.63726" lon="6.63775">
        <ele>534.15</ele>
        <time>2016-09-28T13:25:24Z</time>
      </trkpt>
      <trkpt lat="43.63739" lon="6.63779">
        <ele>534.15</ele>
        <time>2016-09-28T13:25:36Z</time>
      </trkpt>
      <trkpt lat="43.6374" lon="6.6378">
        <ele>534.15</ele>
        <time>2016-09-28T13:25:37Z</time>
      </trkpt>
      <trkpt lat="43.6375" lon="6.63789">
        <ele>535.11</ele>
        <time>2016-09-28T13:25:50Z</time>
      </trkpt>
      <trkpt lat="43.63751" lon="6.63789">
        <ele>535.11</ele>
        <time>2016-09-28T13:25:51Z</time>
      </trkpt>
      <trkpt lat="43.63756" lon="6.63793">
        <ele>534.63</ele>
        <time>2016-09-28T13:25:57Z</time>
      </trkpt>
      <trkpt lat="43.6376" lon="6.63795">
        <ele>534.63</ele>
        <time>2016-09-28T13:26:00Z</time>
      </trkpt>
      <trkpt lat="43.63767" lon="6.63796">
        <ele>534.15</ele>
        <time>2016-09-28T13:26:07Z</time>
      </trkpt>
      <trkpt lat="43.63782" lon="6.63795">
        <ele>534.63</ele>
        <time>2016-09-28T13:26:24Z</time>
      </trkpt>
      <trkpt lat="43.63792" lon="6.6379">
        <ele>534.63</ele>
        <time>2016-09-28T13:26:36Z</time>
      </trkpt>
      <trkpt lat="43.63802" lon="6.63784">
        <ele>534.15</ele>
        <time>2016-09-28T13:26:50Z</time>
      </trkpt>
      <trkpt lat="43.63813" lon="6.6378">
        <ele>533.67</ele>
        <time>2016-09-28T13:27:01Z</time>
      </trkpt>
      <trkpt lat="43.63817" lon="6.63778">
        <ele>533.67</ele>
        <time>2016-09-28T13:27:16Z</time>
      </trkpt>
      <trkpt lat="43.63824" lon="6.63776">
        <ele>534.15</ele>
        <time>2016-09-28T13:27:33Z</time>
      </trkpt>
      <trkpt lat="43.63829" lon="6.63773">
        <ele>534.15</ele>
        <time>2016-09-28T13:27:55Z</time>
      </trkpt>
      <trkpt lat="43.63836" lon="6.63765">
        <ele>535.11</ele>
        <time>2016-09-28T13:28:09Z</time>
      </trkpt>
      <trkpt lat="43.63843" lon="6.63758">
        <ele>534.63</ele>
        <time>2016-09-28T13:28:21Z</time>
      </trkpt>
      <trkpt lat="43.63851" lon="6.63745">
        <ele>534.63</ele>
        <time>2016-09-28T13:28:35Z</time>
      </trkpt>
      <trkpt lat="43.63852" lon="6.63744">
        <ele>534.63</ele>
        <time>2016-09-28T13:28:36Z</time>
      </trkpt>
      <trkpt lat="43.63859" lon="6.63735">
        <ele>534.15</ele>
        <time>2016-09-28T13:28:46Z</time>
      </trkpt>
      <trkpt lat="43.63861" lon="6.63735">
        <ele>532.71</ele>
        <time>2016-09-28T13:28:59Z</time>
      </trkpt>
      <trkpt lat="43.6386" lon="6.63737">
        <ele>532.23</ele>
        <time>2016-09-28T13:29:22Z</time>
      </trkpt>
      <trkpt lat="43.63858" lon="6.63738">
        <ele>531.75</ele>
        <time>2016-09-28T13:29:24Z</time>
      </trkpt>
      <trkpt lat="43.63856" lon="6.6374">
        <ele>531.75</ele>
        <time>2016-09-28T13:29:27Z</time>
      </trkpt>
      <trkpt lat="43.63848" lon="6.63752">
        <ele>530.79</ele>
        <time>2016-09-28T13:29:41Z</time>
      </trkpt>
      <trkpt lat="43.63843" lon="6.63763">
        <ele>529.34</ele>
        <time>2016-09-28T13:29:54Z</time>
      </trkpt>
      <trkpt lat="43.63833" lon="6.63778">
        <ele>527.42</ele>
        <time>2016-09-28T13:30:09Z</time>
      </trkpt>
      <trkpt lat="43.63824" lon="6.63794">
        <ele>526.46</ele>
        <time>2016-09-28T13:30:24Z</time>
      </trkpt>
      <trkpt lat="43.6382" lon="6.63798">
        <ele>525.98</ele>
        <time>2016-09-28T13:30:29Z</time>
      </trkpt>
      <trkpt lat="43.63809" lon="6.63812">
        <ele>524.06</ele>
        <time>2016-09-28T13:30:45Z</time>
      </trkpt>
      <trkpt lat="43.63804" lon="6.63816">
        <ele>523.58</ele>
        <time>2016-09-28T13:30:50Z</time>
      </trkpt>
      <trkpt lat="43.63799" lon="6.6382">
        <ele>522.61</ele>
        <time>2016-09-28T13:30:56Z</time>
      </trkpt>
      <trkpt lat="43.63795" lon="6.63824">
        <ele>522.13</ele>
        <time>2016-09-28T13:31:00Z</time>
      </trkpt>
      <trkpt lat="43.63791" lon="6.63826">
        <ele>521.65</ele>
        <time>2016-09-28T13:31:06Z</time>
      </trkpt>
      <trkpt lat="43.63779" lon="6.63831">
        <ele>520.69</ele>
        <time>2016-09-28T13:31:21Z</time>
      </trkpt>
      <trkpt lat="43.63771" lon="6.63838">
        <ele>520.69</ele>
        <time>2016-09-28T13:31:37Z</time>
      </trkpt>
      <trkpt lat="43.63772" lon="6.63839">
        <ele>521.17</ele>
        <time>2016-09-28T13:31:52Z</time>
      </trkpt>
      <trkpt lat="43.63772" lon="6.63839">
        <ele>517.81</ele>
        <time>2016-09-28T13:32:05Z</time>
      </trkpt>
      <trkpt lat="43.63772" lon="6.63839">
        <ele>522.61</ele>
        <time>2016-09-28T13:32:06Z</time>
      </trkpt>
      <trkpt lat="43.63772" lon="6.63839">
        <ele>519.25</ele>
        <time>2016-09-28T13:32:16Z</time>
      </trkpt>
      <trkpt lat="43.63772" lon="6.63839">
        <ele>522.13</ele>
        <time>2016-09-28T13:32:24Z</time>
      </trkpt>
      <trkpt lat="43.63772" lon="6.63839">
        <ele>519.25</ele>
        <time>2016-09-28T13:32:29Z</time>
      </trkpt>
      <trkpt lat="43.63772" lon="6.63839">
        <ele>522.61</ele>
        <time>2016-09-28T13:32:30Z</time>
      </trkpt>
      <trkpt lat="43.63772" lon="6.63838">
        <ele>518.77</ele>
        <time>2016-09-28T13:32:31Z</time>
      </trkpt>
      <trkpt lat="43.63772" lon="6.63838">
        <ele>522.13</ele>
        <time>2016-09-28T13:32:32Z</time>
      </trkpt>
      <trkpt lat="43.63772" lon="6.63838">
        <ele>518.77</ele>
        <time>2016-09-28T13:32:36Z</time>
      </trkpt>
      <trkpt lat="43.63772" lon="6.63838">
        <ele>523.09</ele>
        <time>2016-09-28T13:32:37Z</time>
      </trkpt>
      <trkpt lat="43.63772" lon="6.63839">
        <ele>521.17</ele>
        <time>2016-09-28T13:32:53Z</time>
      </trkpt>
      <trkpt lat="43.63771" lon="6.63839">
        <ele>521.17</ele>
        <time>2016-09-28T13:33:15Z</time>
      </trkpt>
      <trkpt lat="43.63771" lon="6.63838">
        <ele>520.21</ele>
        <time>2016-09-28T13:33:38Z</time>
      </trkpt>
      <trkpt lat="43.6377" lon="6.63838">
        <ele>520.69</ele>
        <time>2016-09-28T13:34:09Z</time>
      </trkpt>
      <trkpt lat="43.6377" lon="6.63839">
        <ele>520.69</ele>
        <time>2016-09-28T13:34:36Z</time>
      </trkpt>
      <trkpt lat="43.6377" lon="6.63839">
        <ele>520.21</ele>
        <time>2016-09-28T13:35:14Z</time>
      </trkpt>
      <trkpt lat="43.6377" lon="6.63839">
        <ele>520.69</ele>
        <time>2016-09-28T13:35:41Z</time>
      </trkpt>
      <trkpt lat="43.63771" lon="6.63839">
        <ele>520.69</ele>
        <time>2016-09-28T13:36:05Z</time>
      </trkpt>
      <trkpt lat="43.63771" lon="6.63839">
        <ele>520.69</ele>
        <time>2016-09-28T13:36:29Z</time>
      </trkpt>
      <trkpt lat="43.63771" lon="6.63839">
        <ele>520.69</ele>
        <time>2016-09-28T13:36:52Z</time>
      </trkpt>
      <trkpt lat="43.63772" lon="6.63839">
        <ele>520.69</ele>
        <time>2016-09-28T13:37:11Z</time>
      </trkpt>
      <trkpt lat="43.63772" lon="6.63839">
        <ele>517.33</ele>
        <time>2016-09-28T13:37:26Z</time>
      </trkpt>
      <trkpt lat="43.63772" lon="6.63839">
        <ele>523.58</ele>
        <time>2016-09-28T13:37:27Z</time>
      </trkpt>
      <trkpt lat="43.63772" lon="6.63839">
        <ele>519.73</ele>
        <time>2016-09-28T13:37:28Z</time>
      </trkpt>
      <trkpt lat="43.63772" lon="6.63839">
        <ele>523.09</ele>
        <time>2016-09-28T13:37:38Z</time>
      </trkpt>
      <trkpt lat="43.63772" lon="6.63839">
        <ele>513.48</ele>
        <time>2016-09-28T13:37:43Z</time>
      </trkpt>
      <trkpt lat="43.63772" lon="6.63839">
        <ele>519.73</ele>
        <time>2016-09-28T13:37:44Z</time>
      </trkpt>
      <trkpt lat="43.63772" lon="6.63839">
        <ele>527.9</ele>
        <time>2016-09-28T13:37:45Z</time>
      </trkpt>
      <trkpt lat="43.63772" lon="6.6384">
        <ele>514.44</ele>
        <time>2016-09-28T13:37:46Z</time>
      </trkpt>
      <trkpt lat="43.63772" lon="6.6384">
        <ele>519.25</ele>
        <time>2016-09-28T13:37:47Z</time>
      </trkpt>
      <trkpt lat="43.63772" lon="6.6384">
        <ele>527.42</ele>
        <time>2016-09-28T13:37:48Z</time>
      </trkpt>
      <trkpt lat="43.63772" lon="6.6384">
        <ele>520.69</ele>
        <time>2016-09-28T13:37:49Z</time>
      </trkpt>
      <trkpt lat="43.63772" lon="6.63845">
        <ele>519.73</ele>
        <time>2016-09-28T13:38:02Z</time>
      </trkpt>
      <trkpt lat="43.63776" lon="6.63856">
        <ele>517.81</ele>
        <time>2016-09-28T13:38:17Z</time>
      </trkpt>
      <trkpt lat="43.63776" lon="6.63857">
        <ele>517.33</ele>
        <time>2016-09-28T13:38:18Z</time>
      </trkpt>
      <trkpt lat="43.63781" lon="6.63872">
        <ele>514.92</ele>
        <time>2016-09-28T13:38:32Z</time>
      </trkpt>
      <trkpt lat="43.63783" lon="6.63884">
        <ele>513</ele>
        <time>2016-09-28T13:38:45Z</time>
      </trkpt>
      <trkpt lat="43.63785" lon="6.63891">
        <ele>511.56</ele>
        <time>2016-09-28T13:39:00Z</time>
      </trkpt>
      <trkpt lat="43.63786" lon="6.63892">
        <ele>511.56</ele>
        <time>2016-09-28T13:39:20Z</time>
      </trkpt>
      <trkpt lat="43.63787" lon="6.63892">
        <ele>511.56</ele>
        <time>2016-09-28T13:39:49Z</time>
      </trkpt>
      <trkpt lat="43.63787" lon="6.63894">
        <ele>511.56</ele>
        <time>2016-09-28T13:40:21Z</time>
      </trkpt>
      <trkpt lat="43.63787" lon="6.63905">
        <ele>510.12</ele>
        <time>2016-09-28T13:40:33Z</time>
      </trkpt>
      <trkpt lat="43.63789" lon="6.63922">
        <ele>508.19</ele>
        <time>2016-09-28T13:40:49Z</time>
      </trkpt>
      <trkpt lat="43.63793" lon="6.63929">
        <ele>506.75</ele>
        <time>2016-09-28T13:40:58Z</time>
      </trkpt>
      <trkpt lat="43.63796" lon="6.63932">
        <ele>506.27</ele>
        <time>2016-09-28T13:41:12Z</time>
      </trkpt>
      <trkpt lat="43.63797" lon="6.63932">
        <ele>506.27</ele>
        <time>2016-09-28T13:41:13Z</time>
      </trkpt>
      <trkpt lat="43.63799" lon="6.63933">
        <ele>505.79</ele>
        <time>2016-09-28T13:41:16Z</time>
      </trkpt>
      <trkpt lat="43.63803" lon="6.63933">
        <ele>505.31</ele>
        <time>2016-09-28T13:41:19Z</time>
      </trkpt>
      <trkpt lat="43.63817" lon="6.63922">
        <ele>501.95</ele>
        <time>2016-09-28T13:41:34Z</time>
      </trkpt>
      <trkpt lat="43.63819" lon="6.6392">
        <ele>500.98</ele>
        <time>2016-09-28T13:41:37Z</time>
      </trkpt>
      <trkpt lat="43.63829" lon="6.63915">
        <ele>499.06</ele>
        <time>2016-09-28T13:41:51Z</time>
      </trkpt>
      <trkpt lat="43.6383" lon="6.63916">
        <ele>499.06</ele>
        <time>2016-09-28T13:42:07Z</time>
      </trkpt>
      <trkpt lat="43.63831" lon="6.63917">
        <ele>498.58</ele>
        <time>2016-09-28T13:42:27Z</time>
      </trkpt>
      <trkpt lat="43.63831" lon="6.63917">
        <ele>499.06</ele>
        <time>2016-09-28T13:43:00Z</time>
      </trkpt>
      <trkpt lat="43.63831" lon="6.63916">
        <ele>498.58</ele>
        <time>2016-09-28T13:43:34Z</time>
      </trkpt>
      <trkpt lat="43.63831" lon="6.63916">
        <ele>498.58</ele>
        <time>2016-09-28T13:43:57Z</time>
      </trkpt>
      <trkpt lat="43.63831" lon="6.63917">
        <ele>498.58</ele>
        <time>2016-09-28T13:44:28Z</time>
      </trkpt>
      <trkpt lat="43.63832" lon="6.63917">
        <ele>498.58</ele>
        <time>2016-09-28T13:45:04Z</time>
      </trkpt>
      <trkpt lat="43.63832" lon="6.63917">
        <ele>498.58</ele>
        <time>2016-09-28T13:45:38Z</time>
      </trkpt>
      <trkpt lat="43.63832" lon="6.63917">
        <ele>498.1</ele>
        <time>2016-09-28T13:46:13Z</time>
      </trkpt>
      <trkpt lat="43.63832" lon="6.63918">
        <ele>498.1</ele>
        <time>2016-09-28T13:46:47Z</time>
      </trkpt>
      <trkpt lat="43.63831" lon="6.63921">
        <ele>497.62</ele>
        <time>2016-09-28T13:47:13Z</time>
      </trkpt>
      <trkpt lat="43.6383" lon="6.63924">
        <ele>497.62</ele>
        <time>2016-09-28T13:47:17Z</time>
      </trkpt>
      <trkpt lat="43.63829" lon="6.63926">
        <ele>497.62</ele>
        <time>2016-09-28T13:47:19Z</time>
      </trkpt>
      <trkpt lat="43.63825" lon="6.63933">
        <ele>497.14</ele>
        <time>2016-09-28T13:47:25Z</time>
      </trkpt>
      <trkpt lat="43.63823" lon="6.63937">
        <ele>497.14</ele>
        <time>2016-09-28T13:47:28Z</time>
      </trkpt>
      <trkpt lat="43.63817" lon="6.63954">
        <ele>496.18</ele>
        <time>2016-09-28T13:47:43Z</time>
      </trkpt>
      <trkpt lat="43.63816" lon="6.63968">
        <ele>494.26</ele>
        <time>2016-09-28T13:47:54Z</time>
      </trkpt>
      <trkpt lat="43.63812" lon="6.63977">
        <ele>492.33</ele>
        <time>2016-09-28T13:48:02Z</time>
      </trkpt>
      <trkpt lat="43.63808" lon="6.63985">
        <ele>493.29</ele>
        <time>2016-09-28T13:48:08Z</time>
      </trkpt>
      <trkpt lat="43.63805" lon="6.63994">
        <ele>491.37</ele>
        <time>2016-09-28T13:48:15Z</time>
      </trkpt>
      <trkpt lat="43.638" lon="6.63998">
        <ele>491.37</ele>
        <time>2016-09-28T13:48:20Z</time>
      </trkpt>
      <trkpt lat="43.63793" lon="6.64007">
        <ele>489.93</ele>
        <time>2016-09-28T13:48:28Z</time>
      </trkpt>
      <trkpt lat="43.63802" lon="6.64014">
        <ele>487.05</ele>
        <time>2016-09-28T13:48:37Z</time>
      </trkpt>
      <trkpt lat="43.63804" lon="6.64014">
        <ele>486.56</ele>
        <time>2016-09-28T13:48:39Z</time>
      </trkpt>
      <trkpt lat="43.63806" lon="6.64016">
        <ele>486.08</ele>
        <time>2016-09-28T13:48:41Z</time>
      </trkpt>
      <trkpt lat="43.63821" lon="6.64007">
        <ele>483.68</ele>
        <time>2016-09-28T13:48:55Z</time>
      </trkpt>
      <trkpt lat="43.63837" lon="6.63997">
        <ele>482.24</ele>
        <time>2016-09-28T13:49:08Z</time>
      </trkpt>
      <trkpt lat="43.63845" lon="6.6399">
        <ele>481.28</ele>
        <time>2016-09-28T13:49:16Z</time>
      </trkpt>
      <trkpt lat="43.63847" lon="6.63988">
        <ele>480.32</ele>
        <time>2016-09-28T13:49:31Z</time>
      </trkpt>
      <trkpt lat="43.63849" lon="6.63985">
        <ele>480.32</ele>
        <time>2016-09-28T13:49:44Z</time>
      </trkpt>
      <trkpt lat="43.63853" lon="6.63983">
        <ele>479.84</ele>
        <time>2016-09-28T13:49:49Z</time>
      </trkpt>
      <trkpt lat="43.63854" lon="6.63982">
        <ele>479.35</ele>
        <time>2016-09-28T13:49:51Z</time>
      </trkpt>
      <trkpt lat="43.63855" lon="6.63984">
        <ele>478.39</ele>
        <time>2016-09-28T13:50:04Z</time>
      </trkpt>
      <trkpt lat="43.63854" lon="6.63993">
        <ele>475.99</ele>
        <time>2016-09-28T13:50:19Z</time>
      </trkpt>
      <trkpt lat="43.63855" lon="6.64013">
        <ele>473.59</ele>
        <time>2016-09-28T13:50:36Z</time>
      </trkpt>
      <trkpt lat="43.63856" lon="6.64027">
        <ele>471.18</ele>
        <time>2016-09-28T13:50:47Z</time>
      </trkpt>
      <trkpt lat="43.63854" lon="6.64035">
        <ele>470.7</ele>
        <time>2016-09-28T13:50:59Z</time>
      </trkpt>
      <trkpt lat="43.63852" lon="6.64036">
        <ele>470.22</ele>
        <time>2016-09-28T13:51:17Z</time>
      </trkpt>
      <trkpt lat="43.6385" lon="6.64038">
        <ele>470.22</ele>
        <time>2016-09-28T13:51:34Z</time>
      </trkpt>
      <trkpt lat="43.63848" lon="6.6404">
        <ele>469.74</ele>
        <time>2016-09-28T13:51:40Z</time>
      </trkpt>
      <trkpt lat="43.63846" lon="6.64046">
        <ele>469.26</ele>
        <time>2016-09-28T13:51:46Z</time>
      </trkpt>
      <trkpt lat="43.63842" lon="6.64063">
        <ele>467.82</ele>
        <time>2016-09-28T13:52:02Z</time>
      </trkpt>
      <trkpt lat="43.63844" lon="6.64066">
        <ele>467.34</ele>
        <time>2016-09-28T13:52:17Z</time>
      </trkpt>
      <trkpt lat="43.63845" lon="6.64068">
        <ele>467.34</ele>
        <time>2016-09-28T13:52:46Z</time>
      </trkpt>
      <trkpt lat="43.63846" lon="6.64068">
        <ele>467.82</ele>
        <time>2016-09-28T13:53:12Z</time>
      </trkpt>
      <trkpt lat="43.63845" lon="6.6407">
        <ele>467.34</ele>
        <time>2016-09-28T13:53:33Z</time>
      </trkpt>
      <trkpt lat="43.63847" lon="6.64071">
        <ele>467.82</ele>
        <time>2016-09-28T13:53:59Z</time>
      </trkpt>
      <trkpt lat="43.63845" lon="6.64072">
        <ele>467.82</ele>
        <time>2016-09-28T13:54:22Z</time>
      </trkpt>
      <trkpt lat="43.63838" lon="6.64083">
        <ele>466.38</ele>
        <time>2016-09-28T13:54:35Z</time>
      </trkpt>
      <trkpt lat="43.63834" lon="6.641">
        <ele>464.93</ele>
        <time>2016-09-28T13:54:49Z</time>
      </trkpt>
      <trkpt lat="43.63831" lon="6.64121">
        <ele>463.01</ele>
        <time>2016-09-28T13:55:03Z</time>
      </trkpt>
      <trkpt lat="43.63834" lon="6.64146">
        <ele>462.05</ele>
        <time>2016-09-28T13:55:19Z</time>
      </trkpt>
      <trkpt lat="43.63835" lon="6.64151">
        <ele>461.57</ele>
        <time>2016-09-28T13:55:29Z</time>
      </trkpt>
      <trkpt lat="43.63836" lon="6.64161">
        <ele>461.09</ele>
        <time>2016-09-28T13:55:36Z</time>
      </trkpt>
      <trkpt lat="43.63834" lon="6.64168">
        <ele>461.09</ele>
        <time>2016-09-28T13:55:41Z</time>
      </trkpt>
      <trkpt lat="43.63819" lon="6.64182">
        <ele>460.13</ele>
        <time>2016-09-28T13:55:56Z</time>
      </trkpt>
      <trkpt lat="43.6381" lon="6.64178">
        <ele>459.65</ele>
        <time>2016-09-28T13:56:07Z</time>
      </trkpt>
      <trkpt lat="43.6381" lon="6.64178">
        <ele>459.65</ele>
        <time>2016-09-28T13:56:25Z</time>
      </trkpt>
      <trkpt lat="43.63802" lon="6.64172">
        <ele>461.09</ele>
        <time>2016-09-28T13:56:38Z</time>
      </trkpt>
      <trkpt lat="43.63795" lon="6.64168">
        <ele>462.05</ele>
        <time>2016-09-28T13:56:55Z</time>
      </trkpt>
      <trkpt lat="43.63795" lon="6.64166">
        <ele>462.05</ele>
        <time>2016-09-28T13:56:58Z</time>
      </trkpt>
      <trkpt lat="43.6378" lon="6.64159">
        <ele>462.53</ele>
        <time>2016-09-28T13:57:12Z</time>
      </trkpt>
      <trkpt lat="43.63771" lon="6.64149">
        <ele>463.49</ele>
        <time>2016-09-28T13:57:23Z</time>
      </trkpt>
      <trkpt lat="43.63764" lon="6.6414">
        <ele>463.49</ele>
        <time>2016-09-28T13:57:33Z</time>
      </trkpt>
      <trkpt lat="43.63755" lon="6.64135">
        <ele>463.49</ele>
        <time>2016-09-28T13:57:46Z</time>
      </trkpt>
      <trkpt lat="43.63756" lon="6.64134">
        <ele>463.49</ele>
        <time>2016-09-28T13:58:12Z</time>
      </trkpt>
      <trkpt lat="43.63755" lon="6.64133">
        <ele>463.01</ele>
        <time>2016-09-28T13:58:20Z</time>
      </trkpt>
      <trkpt lat="43.63751" lon="6.64129">
        <ele>463.01</ele>
        <time>2016-09-28T13:58:24Z</time>
      </trkpt>
      <trkpt lat="43.6374" lon="6.64124">
        <ele>463.01</ele>
        <time>2016-09-28T13:58:39Z</time>
      </trkpt>
      <trkpt lat="43.63735" lon="6.64122">
        <ele>463.01</ele>
        <time>2016-09-28T13:58:50Z</time>
      </trkpt>
      <trkpt lat="43.6373" lon="6.64122">
        <ele>462.53</ele>
        <time>2016-09-28T13:59:01Z</time>
      </trkpt>
      <trkpt lat="43.63729" lon="6.64122">
        <ele>462.53</ele>
        <time>2016-09-28T13:59:22Z</time>
      </trkpt>
      <trkpt lat="43.63727" lon="6.64121">
        <ele>462.53</ele>
        <time>2016-09-28T13:59:38Z</time>
      </trkpt>
      <trkpt lat="43.63726" lon="6.6412">
        <ele>462.05</ele>
        <time>2016-09-28T14:00:06Z</time>
      </trkpt>
      <trkpt lat="43.63726" lon="6.64121">
        <ele>462.53</ele>
        <time>2016-09-28T14:00:31Z</time>
      </trkpt>
      <trkpt lat="43.63726" lon="6.64121">
        <ele>462.05</ele>
        <time>2016-09-28T14:00:58Z</time>
      </trkpt>
      <trkpt lat="43.63727" lon="6.64122">
        <ele>462.53</ele>
        <time>2016-09-28T14:01:15Z</time>
      </trkpt>
      <trkpt lat="43.63728" lon="6.64123">
        <ele>462.53</ele>
        <time>2016-09-28T14:01:31Z</time>
      </trkpt>
      <trkpt lat="43.63729" lon="6.64123">
        <ele>462.53</ele>
        <time>2016-09-28T14:01:34Z</time>
      </trkpt>
      <trkpt lat="43.6374" lon="6.64126">
        <ele>462.53</ele>
        <time>2016-09-28T14:01:49Z</time>
      </trkpt>
      <trkpt lat="43.63739" lon="6.64128">
        <ele>462.53</ele>
        <time>2016-09-28T14:02:06Z</time>
      </trkpt>
      <trkpt lat="43.6374" lon="6.6413">
        <ele>463.01</ele>
        <time>2016-09-28T14:02:25Z</time>
      </trkpt>
      <trkpt lat="43.63742" lon="6.6413">
        <ele>462.53</ele>
        <time>2016-09-28T14:02:37Z</time>
      </trkpt>
      <trkpt lat="43.63744" lon="6.6413">
        <ele>462.53</ele>
        <time>2016-09-28T14:02:50Z</time>
      </trkpt>
      <trkpt lat="43.63745" lon="6.64129">
        <ele>462.53</ele>
        <time>2016-09-28T14:03:05Z</time>
      </trkpt>
      <trkpt lat="43.63745" lon="6.6413">
        <ele>463.01</ele>
        <time>2016-09-28T14:03:27Z</time>
      </trkpt>
      <trkpt lat="43.63746" lon="6.6413">
        <ele>462.53</ele>
        <time>2016-09-28T14:03:46Z</time>
      </trkpt>
      <trkpt lat="43.63742" lon="6.6413">
        <ele>462.53</ele>
        <time>2016-09-28T14:04:11Z</time>
      </trkpt>
      <trkpt lat="43.63738" lon="6.64129">
        <ele>462.53</ele>
        <time>2016-09-28T14:04:26Z</time>
      </trkpt>
      <trkpt lat="43.63738" lon="6.64132">
        <ele>463.01</ele>
        <time>2016-09-28T14:04:49Z</time>
      </trkpt>
      <trkpt lat="43.63744" lon="6.64133">
        <ele>463.01</ele>
        <time>2016-09-28T14:05:02Z</time>
      </trkpt>
      <trkpt lat="43.63744" lon="6.64135">
        <ele>463.49</ele>
        <time>2016-09-28T14:05:31Z</time>
      </trkpt>
      <trkpt lat="43.63747" lon="6.64139">
        <ele>463.49</ele>
        <time>2016-09-28T14:05:42Z</time>
      </trkpt>
      <trkpt lat="43.63749" lon="6.64142">
        <ele>463.01</ele>
        <time>2016-09-28T14:05:56Z</time>
      </trkpt>
      <trkpt lat="43.63747" lon="6.64139">
        <ele>463.01</ele>
        <time>2016-09-28T14:06:12Z</time>
      </trkpt>
      <trkpt lat="43.63741" lon="6.64127">
        <ele>463.01</ele>
        <time>2016-09-28T14:06:26Z</time>
      </trkpt>
      <trkpt lat="43.63736" lon="6.64121">
        <ele>463.01</ele>
        <time>2016-09-28T14:06:40Z</time>
      </trkpt>
      <trkpt lat="43.63733" lon="6.64121">
        <ele>463.01</ele>
        <time>2016-09-28T14:07:07Z</time>
      </trkpt>
      <trkpt lat="43.63732" lon="6.64121">
        <ele>463.01</ele>
        <time>2016-09-28T14:07:37Z</time>
      </trkpt>
      <trkpt lat="43.63733" lon="6.64121">
        <ele>463.01</ele>
        <time>2016-09-28T14:08:12Z</time>
      </trkpt>
      <trkpt lat="43.63733" lon="6.6412">
        <ele>462.53</ele>
        <time>2016-09-28T14:08:48Z</time>
      </trkpt>
      <trkpt lat="43.63733" lon="6.6412">
        <ele>463.01</ele>
        <time>2016-09-28T14:09:16Z</time>
      </trkpt>
      <trkpt lat="43.63732" lon="6.6412">
        <ele>463.01</ele>
        <time>2016-09-28T14:09:36Z</time>
      </trkpt>
      <trkpt lat="43.6373" lon="6.6412">
        <ele>462.53</ele>
        <time>2016-09-28T14:10:07Z</time>
      </trkpt>
      <trkpt lat="43.6373" lon="6.64121">
        <ele>462.53</ele>
        <time>2016-09-28T14:10:31Z</time>
      </trkpt>
      <trkpt lat="43.63729" lon="6.6412">
        <ele>462.53</ele>
        <time>2016-09-28T14:11:00Z</time>
      </trkpt>
      <trkpt lat="43.63729" lon="6.64119">
        <ele>462.53</ele>
        <time>2016-09-28T14:11:27Z</time>
      </trkpt>
      <trkpt lat="43.63728" lon="6.64119">
        <ele>462.53</ele>
        <time>2016-09-28T14:12:05Z</time>
      </trkpt>
      <trkpt lat="43.63733" lon="6.64121">
        <ele>462.53</ele>
        <time>2016-09-28T14:12:31Z</time>
      </trkpt>
      <trkpt lat="43.63742" lon="6.6413">
        <ele>462.53</ele>
        <time>2016-09-28T14:12:46Z</time>
      </trkpt>
      <trkpt lat="43.63748" lon="6.64134">
        <ele>463.01</ele>
        <time>2016-09-28T14:12:59Z</time>
      </trkpt>
      <trkpt lat="43.63749" lon="6.64135">
        <ele>463.01</ele>
        <time>2016-09-28T14:13:19Z</time>
      </trkpt>
      <trkpt lat="43.6375" lon="6.64136">
        <ele>462.53</ele>
        <time>2016-09-28T14:13:27Z</time>
      </trkpt>
      <trkpt lat="43.63752" lon="6.64138">
        <ele>463.01</ele>
        <time>2016-09-28T14:13:29Z</time>
      </trkpt>
      <trkpt lat="43.63765" lon="6.64149">
        <ele>462.53</ele>
        <time>2016-09-28T14:13:43Z</time>
      </trkpt>
      <trkpt lat="43.63775" lon="6.6416">
        <ele>462.05</ele>
        <time>2016-09-28T14:13:57Z</time>
      </trkpt>
      <trkpt lat="43.63787" lon="6.64167">
        <ele>461.57</ele>
        <time>2016-09-28T14:14:12Z</time>
      </trkpt>
      <trkpt lat="43.63796" lon="6.64173">
        <ele>460.61</ele>
        <time>2016-09-28T14:14:24Z</time>
      </trkpt>
      <trkpt lat="43.63806" lon="6.64173">
        <ele>459.17</ele>
        <time>2016-09-28T14:14:35Z</time>
      </trkpt>
      <trkpt lat="43.6381" lon="6.64175">
        <ele>458.69</ele>
        <time>2016-09-28T14:14:47Z</time>
      </trkpt>
      <trkpt lat="43.63807" lon="6.64176">
        <ele>458.21</ele>
        <time>2016-09-28T14:15:07Z</time>
      </trkpt>
      <trkpt lat="43.63805" lon="6.64177">
        <ele>458.21</ele>
        <time>2016-09-28T14:15:10Z</time>
      </trkpt>
      <trkpt lat="43.63791" lon="6.64181">
        <ele>456.76</ele>
        <time>2016-09-28T14:15:25Z</time>
      </trkpt>
      <trkpt lat="43.63779" lon="6.64182">
        <ele>455.32</ele>
        <time>2016-09-28T14:15:38Z</time>
      </trkpt>
      <trkpt lat="43.63778" lon="6.64182">
        <ele>455.32</ele>
        <time>2016-09-28T14:15:49Z</time>
      </trkpt>
      <trkpt lat="43.63772" lon="6.64183">
        <ele>454.36</ele>
        <time>2016-09-28T14:15:57Z</time>
      </trkpt>
      <trkpt lat="43.63767" lon="6.64182">
        <ele>453.88</ele>
        <time>2016-09-28T14:16:02Z</time>
      </trkpt>
      <trkpt lat="43.63753" lon="6.64177">
        <ele>452.92</ele>
        <time>2016-09-28T14:16:17Z</time>
      </trkpt>
      <trkpt lat="43.63742" lon="6.64172">
        <ele>451.96</ele>
        <time>2016-09-28T14:16:30Z</time>
      </trkpt>
      <trkpt lat="43.63731" lon="6.64167">
        <ele>450.52</ele>
        <time>2016-09-28T14:16:43Z</time>
      </trkpt>
      <trkpt lat="43.63718" lon="6.64161">
        <ele>449.07</ele>
        <time>2016-09-28T14:16:56Z</time>
      </trkpt>
      <trkpt lat="43.63706" lon="6.64167">
        <ele>447.63</ele>
        <time>2016-09-28T14:17:09Z</time>
      </trkpt>
      <trkpt lat="43.63711" lon="6.6418">
        <ele>446.67</ele>
        <time>2016-09-28T14:17:19Z</time>
      </trkpt>
      <trkpt lat="43.63718" lon="6.64186">
        <ele>446.19</ele>
        <time>2016-09-28T14:17:28Z</time>
      </trkpt>
      <trkpt lat="43.63731" lon="6.64196">
        <ele>444.75</ele>
        <time>2016-09-28T14:17:42Z</time>
      </trkpt>
      <trkpt lat="43.63742" lon="6.64206">
        <ele>443.31</ele>
        <time>2016-09-28T14:17:55Z</time>
      </trkpt>
      <trkpt lat="43.63752" lon="6.64213">
        <ele>442.34</ele>
        <time>2016-09-28T14:18:06Z</time>
      </trkpt>
      <trkpt lat="43.63769" lon="6.64214">
        <ele>440.42</ele>
        <time>2016-09-28T14:18:21Z</time>
      </trkpt>
      <trkpt lat="43.6378" lon="6.64218">
        <ele>438.5</ele>
        <time>2016-09-28T14:18:35Z</time>
      </trkpt>
      <trkpt lat="43.63782" lon="6.64222">
        <ele>438.02</ele>
        <time>2016-09-28T14:18:40Z</time>
      </trkpt>
      <trkpt lat="43.63781" lon="6.64225">
        <ele>438.02</ele>
        <time>2016-09-28T14:18:42Z</time>
      </trkpt>
      <trkpt lat="43.63774" lon="6.64228">
        <ele>437.06</ele>
        <time>2016-09-28T14:18:49Z</time>
      </trkpt>
      <trkpt lat="43.6376" lon="6.64234">
        <ele>436.1</ele>
        <time>2016-09-28T14:19:05Z</time>
      </trkpt>
      <trkpt lat="43.6375" lon="6.64234">
        <ele>434.65</ele>
        <time>2016-09-28T14:19:13Z</time>
      </trkpt>
      <trkpt lat="43.63748" lon="6.64235">
        <ele>434.17</ele>
        <time>2016-09-28T14:19:16Z</time>
      </trkpt>
      <trkpt lat="43.63734" lon="6.64241">
        <ele>431.77</ele>
        <time>2016-09-28T14:19:32Z</time>
      </trkpt>
      <trkpt lat="43.63722" lon="6.64244">
        <ele>429.37</ele>
        <time>2016-09-28T14:19:46Z</time>
      </trkpt>
      <trkpt lat="43.63716" lon="6.64247">
        <ele>428.4</ele>
        <time>2016-09-28T14:19:53Z</time>
      </trkpt>
      <trkpt lat="43.63712" lon="6.64249">
        <ele>428.4</ele>
        <time>2016-09-28T14:19:58Z</time>
      </trkpt>
      <trkpt lat="43.63706" lon="6.64253">
        <ele>426.96</ele>
        <time>2016-09-28T14:20:05Z</time>
      </trkpt>
      <trkpt lat="43.63704" lon="6.64254">
        <ele>426.48</ele>
        <time>2016-09-28T14:20:08Z</time>
      </trkpt>
      <trkpt lat="43.63692" lon="6.64259">
        <ele>425.04</ele>
        <time>2016-09-28T14:20:20Z</time>
      </trkpt>
      <trkpt lat="43.6369" lon="6.6426">
        <ele>425.04</ele>
        <time>2016-09-28T14:20:22Z</time>
      </trkpt>
      <trkpt lat="43.63678" lon="6.64256">
        <ele>424.56</ele>
        <time>2016-09-28T14:20:37Z</time>
      </trkpt>
      <trkpt lat="43.63674" lon="6.64255">
        <ele>424.56</ele>
        <time>2016-09-28T14:20:57Z</time>
      </trkpt>
      <trkpt lat="43.63675" lon="6.64255">
        <ele>424.08</ele>
        <time>2016-09-28T14:21:19Z</time>
      </trkpt>
      <trkpt lat="43.63661" lon="6.64255">
        <ele>423.12</ele>
        <time>2016-09-28T14:21:37Z</time>
      </trkpt>
      <trkpt lat="43.63646" lon="6.64265">
        <ele>422.64</ele>
        <time>2016-09-28T14:21:57Z</time>
      </trkpt>
      <trkpt lat="43.63641" lon="6.64269">
        <ele>422.16</ele>
        <time>2016-09-28T14:22:14Z</time>
      </trkpt>
      <trkpt lat="43.63641" lon="6.6427">
        <ele>422.16</ele>
        <time>2016-09-28T14:22:22Z</time>
      </trkpt>
      <trkpt lat="43.63639" lon="6.64269">
        <ele>421.68</ele>
        <time>2016-09-28T14:22:26Z</time>
      </trkpt>
      <trkpt lat="43.63626" lon="6.64262">
        <ele>420.23</ele>
        <time>2016-09-28T14:22:43Z</time>
      </trkpt>
      <trkpt lat="43.63621" lon="6.64257">
        <ele>419.75</ele>
        <time>2016-09-28T14:22:57Z</time>
      </trkpt>
      <trkpt lat="43.63622" lon="6.64257">
        <ele>419.75</ele>
        <time>2016-09-28T14:23:15Z</time>
      </trkpt>
      <trkpt lat="43.63623" lon="6.64245">
        <ele>418.79</ele>
        <time>2016-09-28T14:23:29Z</time>
      </trkpt>
      <trkpt lat="43.63623" lon="6.64243">
        <ele>417.35</ele>
        <time>2016-09-28T14:23:50Z</time>
      </trkpt>
      <trkpt lat="43.63625" lon="6.64246">
        <ele>416.87</ele>
        <time>2016-09-28T14:23:55Z</time>
      </trkpt>
      <trkpt lat="43.63615" lon="6.64257">
        <ele>415.43</ele>
        <time>2016-09-28T14:24:15Z</time>
      </trkpt>
      <trkpt lat="43.63614" lon="6.64257">
        <ele>415.43</ele>
        <time>2016-09-28T14:24:42Z</time>
      </trkpt>
      <trkpt lat="43.63612" lon="6.64267">
        <ele>415.91</ele>
        <time>2016-09-28T14:24:57Z</time>
      </trkpt>
      <trkpt lat="43.63615" lon="6.6428">
        <ele>415.91</ele>
        <time>2016-09-28T14:25:17Z</time>
      </trkpt>
      <trkpt lat="43.63612" lon="6.64283">
        <ele>414.95</ele>
        <time>2016-09-28T14:25:38Z</time>
      </trkpt>
      <trkpt lat="43.636" lon="6.64288">
        <ele>412.54</ele>
        <time>2016-09-28T14:25:55Z</time>
      </trkpt>
      <trkpt lat="43.6359" lon="6.64267">
        <ele>411.1</ele>
        <time>2016-09-28T14:26:13Z</time>
      </trkpt>
      <trkpt lat="43.63589" lon="6.64266">
        <ele>411.1</ele>
        <time>2016-09-28T14:26:29Z</time>
      </trkpt>
      <trkpt lat="43.63591" lon="6.64266">
        <ele>411.58</ele>
        <time>2016-09-28T14:26:57Z</time>
      </trkpt>
      <trkpt lat="43.63591" lon="6.64265">
        <ele>411.58</ele>
        <time>2016-09-28T14:27:22Z</time>
      </trkpt>
      <trkpt lat="43.63591" lon="6.64266">
        <ele>411.58</ele>
        <time>2016-09-28T14:27:33Z</time>
      </trkpt>
      <trkpt lat="43.63595" lon="6.64275">
        <ele>411.58</ele>
        <time>2016-09-28T14:27:46Z</time>
      </trkpt>
      <trkpt lat="43.63604" lon="6.64293">
        <ele>410.62</ele>
        <time>2016-09-28T14:28:06Z</time>
      </trkpt>
      <trkpt lat="43.63605" lon="6.64294">
        <ele>414.47</ele>
        <time>2016-09-28T14:28:07Z</time>
      </trkpt>
      <trkpt lat="43.63605" lon="6.64295">
        <ele>410.14</ele>
        <time>2016-09-28T14:28:08Z</time>
      </trkpt>
      <trkpt lat="43.63606" lon="6.64295">
        <ele>413.02</ele>
        <time>2016-09-28T14:28:09Z</time>
      </trkpt>
      <trkpt lat="43.63608" lon="6.64299">
        <ele>414.47</ele>
        <time>2016-09-28T14:28:13Z</time>
      </trkpt>
      <trkpt lat="43.63608" lon="6.643">
        <ele>411.58</ele>
        <time>2016-09-28T14:28:14Z</time>
      </trkpt>
      <trkpt lat="43.63609" lon="6.64301">
        <ele>409.18</ele>
        <time>2016-09-28T14:28:15Z</time>
      </trkpt>
      <trkpt lat="43.63609" lon="6.64302">
        <ele>414.95</ele>
        <time>2016-09-28T14:28:16Z</time>
      </trkpt>
      <trkpt lat="43.6361" lon="6.64303">
        <ele>412.06</ele>
        <time>2016-09-28T14:28:17Z</time>
      </trkpt>
    </trkseg>
  </trk>
</gpx>